<?xml version='1.0' encoding='UTF-8'?><gpx version="1.1" creator="JPX - https://github.com/jenetics/jpx" xmlns="http://www.topografix.com/GPX/1/1"><trk><trkseg><trkpt lat="43.4219972" lon="11.181195"><ele>174.0</ele><time>2026-04-26T07:14:12.165Z</time></trkpt><trkpt lat="43.422077" lon="11.1811918"><ele>174.0</ele><time>2026-04-26T07:14:26.183Z</time></trkpt><trkpt lat="43.4221275" lon="11.1811195"><ele>174.0</ele><time>2026-04-26T07:14:30.168Z</time></trkpt><trkpt lat="43.4222049" lon="11.1811363"><ele>174.0</ele><time>2026-04-26T07:14:34.168Z</time></trkpt><trkpt lat="43.4222427" lon="11.1812316"><ele>174.0</ele><time>2026-04-26T07:14:39.165Z</time></trkpt><trkpt lat="43.4222696" lon="11.1813182"><ele>174.0</ele><time>2026-04-26T07:14:42.164Z</time></trkpt><trkpt lat="43.4222936" lon="11.1814251"><ele>174.16666666666666</ele><time>2026-04-26T07:14:45.167Z</time></trkpt><trkpt lat="43.4223184" lon="11.1815436"><ele>174.33333333333334</ele><time>2026-04-26T07:14:48.165Z</time></trkpt><trkpt lat="43.4223224" lon="11.181641"><ele>174.5</ele><time>2026-04-26T07:14:50.168Z</time></trkpt><trkpt lat="43.4222848" lon="11.1817371"><ele>174.66666666666669</ele><time>2026-04-26T07:14:52.184Z</time></trkpt><trkpt lat="43.4222139" lon="11.1818132"><ele>174.83333333333334</ele><time>2026-04-26T07:14:55.167Z</time></trkpt><trkpt lat="43.4221494" lon="11.1818912"><ele>175.0</ele><time>2026-04-26T07:14:58.168Z</time></trkpt><trkpt lat="43.4220878" lon="11.1819494"><ele>175.0</ele><time>2026-04-26T07:15:01.168Z</time></trkpt><trkpt lat="43.4220217" lon="11.181999"><ele>175.0</ele><time>2026-04-26T07:15:05.171Z</time></trkpt><trkpt lat="43.4219542" lon="11.1818543"><ele>175.0</ele><time>2026-04-26T07:15:10.177Z</time></trkpt><trkpt lat="43.4219284" lon="11.1817724"><ele>175.0</ele><time>2026-04-26T07:15:12.173Z</time></trkpt><trkpt lat="43.4218881" lon="11.1816563"><ele>175.0</ele><time>2026-04-26T07:15:15.168Z</time></trkpt><trkpt lat="43.4218474" lon="11.1815467"><ele>175.0</ele><time>2026-04-26T07:15:18.166Z</time></trkpt><trkpt lat="43.4218097" lon="11.1814345"><ele>174.83333333333334</ele><time>2026-04-26T07:15:21.167Z</time></trkpt><trkpt lat="43.4217617" lon="11.181324"><ele>174.66666666666669</ele><time>2026-04-26T07:15:24.169Z</time></trkpt><trkpt lat="43.4217271" lon="11.1812137"><ele>174.5</ele><time>2026-04-26T07:15:27.17Z</time></trkpt><trkpt lat="43.4216882" lon="11.181109"><ele>174.33333333333334</ele><time>2026-04-26T07:15:30.168Z</time></trkpt><trkpt lat="43.4216459" lon="11.1810136"><ele>174.16666666666666</ele><time>2026-04-26T07:15:33.168Z</time></trkpt><trkpt lat="43.421608" lon="11.1809038"><ele>174.0</ele><time>2026-04-26T07:15:36.175Z</time></trkpt><trkpt lat="43.4215753" lon="11.1807951"><ele>174.0</ele><time>2026-04-26T07:15:39.169Z</time></trkpt><trkpt lat="43.4215442" lon="11.180696"><ele>174.0</ele><time>2026-04-26T07:15:42.167Z</time></trkpt><trkpt lat="43.4215177" lon="11.1805888"><ele>174.0</ele><time>2026-04-26T07:15:46.172Z</time></trkpt><trkpt lat="43.4214901" lon="11.1804857"><ele>174.0</ele><time>2026-04-26T07:15:50.165Z</time></trkpt><trkpt lat="43.4214659" lon="11.180385"><ele>174.0</ele><time>2026-04-26T07:15:54.168Z</time></trkpt><trkpt lat="43.4214544" lon="11.1802788"><ele>174.0</ele><time>2026-04-26T07:15:58.172Z</time></trkpt><trkpt lat="43.4214621" lon="11.1801668"><ele>173.85714285714286</ele><time>2026-04-26T07:16:02.173Z</time></trkpt><trkpt lat="43.4214818" lon="11.1800743"><ele>173.71428571428572</ele><time>2026-04-26T07:16:05.168Z</time></trkpt><trkpt lat="43.421505" lon="11.1799832"><ele>173.57142857142856</ele><time>2026-04-26T07:16:08.169Z</time></trkpt><trkpt lat="43.4215147" lon="11.1798855"><ele>173.42857142857144</ele><time>2026-04-26T07:16:11.174Z</time></trkpt><trkpt lat="43.4214911" lon="11.179804"><ele>173.2857142857143</ele><time>2026-04-26T07:16:14.17Z</time></trkpt><trkpt lat="43.4214366" lon="11.1797415"><ele>173.14285714285714</ele><time>2026-04-26T07:16:17.168Z</time></trkpt><trkpt lat="43.4213759" lon="11.1796908"><ele>173.0</ele><time>2026-04-26T07:16:20.167Z</time></trkpt><trkpt lat="43.4213274" lon="11.1796307"><ele>174.83333333333331</ele><time>2026-04-26T07:16:23.166Z</time></trkpt><trkpt lat="43.4212968" lon="11.1795529"><ele>176.66666666666666</ele><time>2026-04-26T07:16:26.17Z</time></trkpt><trkpt lat="43.4212626" lon="11.1794494"><ele>178.5</ele><time>2026-04-26T07:16:30.173Z</time></trkpt><trkpt lat="43.4212299" lon="11.1793456"><ele>180.33333333333334</ele><time>2026-04-26T07:16:34.168Z</time></trkpt><trkpt lat="43.4212023" lon="11.1792677"><ele>182.16666666666669</ele><time>2026-04-26T07:16:37.169Z</time></trkpt><trkpt lat="43.421175" lon="11.1791614"><ele>184.0</ele><time>2026-04-26T07:16:41.169Z</time></trkpt><trkpt lat="43.4211467" lon="11.1790557"><ele>184.42857142857144</ele><time>2026-04-26T07:16:45.178Z</time></trkpt><trkpt lat="43.4211211" lon="11.1789573"><ele>184.85714285714283</ele><time>2026-04-26T07:16:49.168Z</time></trkpt><trkpt lat="43.4210907" lon="11.1788555"><ele>185.28571428571428</ele><time>2026-04-26T07:16:53.179Z</time></trkpt><trkpt lat="43.4210694" lon="11.178757"><ele>185.71428571428572</ele><time>2026-04-26T07:16:57.168Z</time></trkpt><trkpt lat="43.4210475" lon="11.1786669"><ele>186.14285714285717</ele><time>2026-04-26T07:17:01.171Z</time></trkpt><trkpt lat="43.421028" lon="11.1785775"><ele>186.57142857142856</ele><time>2026-04-26T07:17:05.17Z</time></trkpt><trkpt lat="43.4210099" lon="11.1784917"><ele>187.0</ele><time>2026-04-26T07:17:09.166Z</time></trkpt><trkpt lat="43.4210017" lon="11.1783903"><ele>187.0</ele><time>2026-04-26T07:17:13.169Z</time></trkpt><trkpt lat="43.4209997" lon="11.1782938"><ele>187.0</ele><time>2026-04-26T07:17:17.168Z</time></trkpt><trkpt lat="43.4209923" lon="11.1781945"><ele>187.0</ele><time>2026-04-26T07:17:21.182Z</time></trkpt><trkpt lat="43.420984" lon="11.178096"><ele>187.0</ele><time>2026-04-26T07:17:25.181Z</time></trkpt><trkpt lat="43.4209786" lon="11.1780052"><ele>187.0</ele><time>2026-04-26T07:17:29.181Z</time></trkpt><trkpt lat="43.4209692" lon="11.1779177"><ele>187.0</ele><time>2026-04-26T07:17:33.188Z</time></trkpt><trkpt lat="43.4209693" lon="11.177815"><ele>187.0</ele><time>2026-04-26T07:17:38.174Z</time></trkpt><trkpt lat="43.4209682" lon="11.1777255"><ele>187.57142857142856</ele><time>2026-04-26T07:17:42.183Z</time></trkpt><trkpt lat="43.4209648" lon="11.1776378"><ele>188.14285714285717</ele><time>2026-04-26T07:17:46.176Z</time></trkpt><trkpt lat="43.4209582" lon="11.1775395"><ele>188.71428571428572</ele><time>2026-04-26T07:17:51.177Z</time></trkpt><trkpt lat="43.4209594" lon="11.1774341"><ele>189.28571428571428</ele><time>2026-04-26T07:17:56.185Z</time></trkpt><trkpt lat="43.4209584" lon="11.1773291"><ele>189.85714285714283</ele><time>2026-04-26T07:18:01.189Z</time></trkpt><trkpt lat="43.4209535" lon="11.1772247"><ele>190.42857142857144</ele><time>2026-04-26T07:18:06.178Z</time></trkpt><trkpt lat="43.420945" lon="11.1771355"><ele>191.0</ele><time>2026-04-26T07:18:10.178Z</time></trkpt><trkpt lat="43.4209363" lon="11.177047"><ele>192.0</ele><time>2026-04-26T07:18:14.176Z</time></trkpt><trkpt lat="43.4209322" lon="11.1769604"><ele>193.0</ele><time>2026-04-26T07:18:18.173Z</time></trkpt><trkpt lat="43.420926" lon="11.176856"><ele>194.0</ele><time>2026-04-26T07:18:23.183Z</time></trkpt><trkpt lat="43.420911" lon="11.1767503"><ele>195.0</ele><time>2026-04-26T07:18:28.175Z</time></trkpt><trkpt lat="43.4208932" lon="11.1766651"><ele>196.0</ele><time>2026-04-26T07:18:32.171Z</time></trkpt><trkpt lat="43.4208741" lon="11.1765806"><ele>197.0</ele><time>2026-04-26T07:18:36.177Z</time></trkpt><trkpt lat="43.4208536" lon="11.1764979"><ele>198.0</ele><time>2026-04-26T07:18:40.179Z</time></trkpt><trkpt lat="43.4208333" lon="11.1764111"><ele>199.85714285714286</ele><time>2026-04-26T07:18:44.188Z</time></trkpt><trkpt lat="43.4208098" lon="11.1763259"><ele>201.7142857142857</ele><time>2026-04-26T07:18:48.176Z</time></trkpt><trkpt lat="43.4207871" lon="11.1762428"><ele>203.57142857142856</ele><time>2026-04-26T07:18:52.173Z</time></trkpt><trkpt lat="43.4207623" lon="11.1761622"><ele>205.42857142857144</ele><time>2026-04-26T07:18:56.185Z</time></trkpt><trkpt lat="43.4207297" lon="11.1760838"><ele>207.28571428571428</ele><time>2026-04-26T07:19:00.175Z</time></trkpt><trkpt lat="43.4206956" lon="11.17601"><ele>209.14285714285714</ele><time>2026-04-26T07:19:04.182Z</time></trkpt><trkpt lat="43.4206649" lon="11.1759135"><ele>211.0</ele><time>2026-04-26T07:19:09.175Z</time></trkpt><trkpt lat="43.4206404" lon="11.1758322"><ele>211.0</ele><time>2026-04-26T07:19:13.181Z</time></trkpt><trkpt lat="43.4206106" lon="11.1757537"><ele>211.0</ele><time>2026-04-26T07:19:17.184Z</time></trkpt><trkpt lat="43.4205804" lon="11.175677"><ele>211.0</ele><time>2026-04-26T07:19:21.178Z</time></trkpt><trkpt lat="43.4205434" lon="11.1755898"><ele>211.0</ele><time>2026-04-26T07:19:26.175Z</time></trkpt><trkpt lat="43.4205163" lon="11.1755081"><ele>211.0</ele><time>2026-04-26T07:19:30.177Z</time></trkpt><trkpt lat="43.420484" lon="11.17541"><ele>211.0</ele><time>2026-04-26T07:19:35.178Z</time></trkpt><trkpt lat="43.4204493" lon="11.1753148"><ele>211.0</ele><time>2026-04-26T07:19:40.183Z</time></trkpt><trkpt lat="43.4204228" lon="11.1752184"><ele>212.28571428571428</ele><time>2026-04-26T07:19:45.175Z</time></trkpt><trkpt lat="43.4203976" lon="11.1751374"><ele>213.57142857142858</ele><time>2026-04-26T07:19:49.218Z</time></trkpt><trkpt lat="43.4203723" lon="11.1750555"><ele>214.85714285714283</ele><time>2026-04-26T07:19:53.181Z</time></trkpt><trkpt lat="43.420348" lon="11.1749589"><ele>216.14285714285714</ele><time>2026-04-26T07:19:58.177Z</time></trkpt><trkpt lat="43.4203266" lon="11.174863"><ele>217.42857142857142</ele><time>2026-04-26T07:20:03.179Z</time></trkpt><trkpt lat="43.4203073" lon="11.1747613"><ele>218.7142857142857</ele><time>2026-04-26T07:20:08.175Z</time></trkpt><trkpt lat="43.4202905" lon="11.1746597"><ele>220.0</ele><time>2026-04-26T07:20:13.182Z</time></trkpt><trkpt lat="43.4202734" lon="11.1745587"><ele>221.0</ele><time>2026-04-26T07:20:18.185Z</time></trkpt><trkpt lat="43.4202609" lon="11.1744588"><ele>222.0</ele><time>2026-04-26T07:20:23.187Z</time></trkpt><trkpt lat="43.4202511" lon="11.1743697"><ele>223.0</ele><time>2026-04-26T07:20:27.178Z</time></trkpt><trkpt lat="43.4202456" lon="11.1742634"><ele>224.0</ele><time>2026-04-26T07:20:32.177Z</time></trkpt><trkpt lat="43.4202394" lon="11.1741592"><ele>225.00000000000003</ele><time>2026-04-26T07:20:37.184Z</time></trkpt><trkpt lat="43.4202368" lon="11.1740698"><ele>226.0</ele><time>2026-04-26T07:20:41.179Z</time></trkpt><trkpt lat="43.4202341" lon="11.1739824"><ele>227.0</ele><time>2026-04-26T07:20:45.182Z</time></trkpt><trkpt lat="43.4202385" lon="11.1738942"><ele>228.0</ele><time>2026-04-26T07:20:49.181Z</time></trkpt><trkpt lat="43.4202387" lon="11.1738056"><ele>229.00000000000003</ele><time>2026-04-26T07:20:53.197Z</time></trkpt><trkpt lat="43.4202411" lon="11.1737184"><ele>230.0</ele><time>2026-04-26T07:20:57.201Z</time></trkpt><trkpt lat="43.4202458" lon="11.1736139"><ele>231.0</ele><time>2026-04-26T07:21:02.178Z</time></trkpt><trkpt lat="43.4202507" lon="11.1735274"><ele>232.00000000000003</ele><time>2026-04-26T07:21:06.179Z</time></trkpt><trkpt lat="43.4202559" lon="11.1734234"><ele>233.0</ele><time>2026-04-26T07:21:11.18Z</time></trkpt><trkpt lat="43.4202567" lon="11.1733217"><ele>234.0</ele><time>2026-04-26T07:21:16.194Z</time></trkpt><trkpt lat="43.4202583" lon="11.1732342"><ele>234.85714285714286</ele><time>2026-04-26T07:21:20.176Z</time></trkpt><trkpt lat="43.4202604" lon="11.1731346"><ele>235.71428571428572</ele><time>2026-04-26T07:21:25.178Z</time></trkpt><trkpt lat="43.4202596" lon="11.173037"><ele>236.57142857142858</ele><time>2026-04-26T07:21:30.184Z</time></trkpt><trkpt lat="43.4202609" lon="11.1729317"><ele>237.42857142857144</ele><time>2026-04-26T07:21:35.182Z</time></trkpt><trkpt lat="43.4202605" lon="11.1728332"><ele>238.28571428571428</ele><time>2026-04-26T07:21:40.18Z</time></trkpt><trkpt lat="43.4202557" lon="11.1727313"><ele>239.14285714285717</ele><time>2026-04-26T07:21:45.212Z</time></trkpt><trkpt lat="43.4202563" lon="11.1726367"><ele>240.0</ele><time>2026-04-26T07:21:50.222Z</time></trkpt><trkpt lat="43.420257" lon="11.1725386"><ele>240.0</ele><time>2026-04-26T07:21:55.176Z</time></trkpt><trkpt lat="43.4202546" lon="11.172433"><ele>240.0</ele><time>2026-04-26T07:22:00.179Z</time></trkpt><trkpt lat="43.4202566" lon="11.1723441"><ele>240.0</ele><time>2026-04-26T07:22:04.178Z</time></trkpt><trkpt lat="43.4202531" lon="11.1722531"><ele>240.0</ele><time>2026-04-26T07:22:08.182Z</time></trkpt><trkpt lat="43.4202427" lon="11.1721475"><ele>240.0</ele><time>2026-04-26T07:22:13.179Z</time></trkpt><trkpt lat="43.4202336" lon="11.172043"><ele>240.0</ele><time>2026-04-26T07:22:18.182Z</time></trkpt><trkpt lat="43.4202278" lon="11.171946"><ele>240.0</ele><time>2026-04-26T07:22:23.179Z</time></trkpt><trkpt lat="43.4202208" lon="11.1718431"><ele>240.28571428571428</ele><time>2026-04-26T07:22:28.218Z</time></trkpt><trkpt lat="43.4202096" lon="11.1717533"><ele>240.57142857142856</ele><time>2026-04-26T07:22:32.199Z</time></trkpt><trkpt lat="43.420199" lon="11.1716552"><ele>240.85714285714283</ele><time>2026-04-26T07:22:36.214Z</time></trkpt><trkpt lat="43.4201861" lon="11.1715625"><ele>241.14285714285714</ele><time>2026-04-26T07:22:40.176Z</time></trkpt><trkpt lat="43.4201727" lon="11.1714668"><ele>241.4285714285714</ele><time>2026-04-26T07:22:44.187Z</time></trkpt><trkpt lat="43.4201555" lon="11.171373"><ele>241.7142857142857</ele><time>2026-04-26T07:22:48.181Z</time></trkpt><trkpt lat="43.4201381" lon="11.1712772"><ele>242.0</ele><time>2026-04-26T07:22:52.185Z</time></trkpt><trkpt lat="43.420122" lon="11.1711793"><ele>242.00000000000003</ele><time>2026-04-26T07:22:56.183Z</time></trkpt><trkpt lat="43.4201084" lon="11.1710898"><ele>242.0</ele><time>2026-04-26T07:23:00.168Z</time></trkpt><trkpt lat="43.4200909" lon="11.170987"><ele>242.0</ele><time>2026-04-26T07:23:04.187Z</time></trkpt><trkpt lat="43.4200681" lon="11.1708779"><ele>242.0</ele><time>2026-04-26T07:23:08.173Z</time></trkpt><trkpt lat="43.4200494" lon="11.1707798"><ele>242.00000000000003</ele><time>2026-04-26T07:23:11.171Z</time></trkpt><trkpt lat="43.4200329" lon="11.170661"><ele>242.0</ele><time>2026-04-26T07:23:14.175Z</time></trkpt><trkpt lat="43.4200153" lon="11.1705346"><ele>241.85714285714283</ele><time>2026-04-26T07:23:17.182Z</time></trkpt><trkpt lat="43.4200003" lon="11.1704456"><ele>241.7142857142857</ele><time>2026-04-26T07:23:19.184Z</time></trkpt><trkpt lat="43.4199827" lon="11.1703541"><ele>241.57142857142856</ele><time>2026-04-26T07:23:21.183Z</time></trkpt><trkpt lat="43.4199657" lon="11.1702643"><ele>241.42857142857144</ele><time>2026-04-26T07:23:23.182Z</time></trkpt><trkpt lat="43.4199512" lon="11.1701687"><ele>241.2857142857143</ele><time>2026-04-26T07:23:25.183Z</time></trkpt><trkpt lat="43.4199352" lon="11.1700714"><ele>241.14285714285717</ele><time>2026-04-26T07:23:27.177Z</time></trkpt><trkpt lat="43.4199173" lon="11.1699732"><ele>241.0</ele><time>2026-04-26T07:23:29.181Z</time></trkpt><trkpt lat="43.4198995" lon="11.1698707"><ele>240.99999999999997</ele><time>2026-04-26T07:23:31.168Z</time></trkpt><trkpt lat="43.4198838" lon="11.1697637"><ele>241.0</ele><time>2026-04-26T07:23:33.198Z</time></trkpt><trkpt lat="43.4198663" lon="11.1696552"><ele>241.0</ele><time>2026-04-26T07:23:35.178Z</time></trkpt><trkpt lat="43.4198476" lon="11.1695475"><ele>241.0</ele><time>2026-04-26T07:23:37.18Z</time></trkpt><trkpt lat="43.4198295" lon="11.1694386"><ele>240.99999999999997</ele><time>2026-04-26T07:23:39.178Z</time></trkpt><trkpt lat="43.4198157" lon="11.1693267"><ele>241.0</ele><time>2026-04-26T07:23:41.185Z</time></trkpt><trkpt lat="43.4197978" lon="11.1692187"><ele>240.99999999999997</ele><time>2026-04-26T07:23:43.2Z</time></trkpt><trkpt lat="43.4197863" lon="11.1691097"><ele>241.0</ele><time>2026-04-26T07:23:45.178Z</time></trkpt><trkpt lat="43.4197795" lon="11.1689985"><ele>241.0</ele><time>2026-04-26T07:23:47.177Z</time></trkpt><trkpt lat="43.4197707" lon="11.1688896"><ele>241.0</ele><time>2026-04-26T07:23:49.181Z</time></trkpt><trkpt lat="43.4197604" lon="11.1687755"><ele>240.99999999999997</ele><time>2026-04-26T07:23:51.196Z</time></trkpt><trkpt lat="43.4197511" lon="11.1686737"><ele>241.0</ele><time>2026-04-26T07:23:53.193Z</time></trkpt><trkpt lat="43.4197355" lon="11.1685729"><ele>240.83333333333331</ele><time>2026-04-26T07:23:55.191Z</time></trkpt><trkpt lat="43.4197214" lon="11.1684694"><ele>240.66666666666666</ele><time>2026-04-26T07:23:57.176Z</time></trkpt><trkpt lat="43.419716" lon="11.1683627"><ele>240.5</ele><time>2026-04-26T07:23:59.2Z</time></trkpt><trkpt lat="43.4197068" lon="11.1682528"><ele>240.33333333333331</ele><time>2026-04-26T07:24:01.189Z</time></trkpt><trkpt lat="43.4197008" lon="11.1681385"><ele>240.16666666666666</ele><time>2026-04-26T07:24:03.187Z</time></trkpt><trkpt lat="43.4196895" lon="11.1680261"><ele>240.0</ele><time>2026-04-26T07:24:05.138Z</time></trkpt><trkpt lat="43.4196809" lon="11.1679059"><ele>240.0</ele><time>2026-04-26T07:24:07.179Z</time></trkpt><trkpt lat="43.4196694" lon="11.1677868"><ele>240.0</ele><time>2026-04-26T07:24:09.19Z</time></trkpt><trkpt lat="43.4196607" lon="11.1676652"><ele>240.0</ele><time>2026-04-26T07:24:11.182Z</time></trkpt><trkpt lat="43.4196488" lon="11.1675418"><ele>240.0</ele><time>2026-04-26T07:24:13.186Z</time></trkpt><trkpt lat="43.4196407" lon="11.1674219"><ele>240.0</ele><time>2026-04-26T07:24:15.189Z</time></trkpt><trkpt lat="43.419632" lon="11.1673035"><ele>240.0</ele><time>2026-04-26T07:24:17.188Z</time></trkpt><trkpt lat="43.4196226" lon="11.1671879"><ele>240.0</ele><time>2026-04-26T07:24:19.19Z</time></trkpt><trkpt lat="43.4196124" lon="11.1670733"><ele>240.0</ele><time>2026-04-26T07:24:21.126Z</time></trkpt><trkpt lat="43.4196035" lon="11.1669542"><ele>240.0</ele><time>2026-04-26T07:24:23.192Z</time></trkpt><trkpt lat="43.419599" lon="11.1668403"><ele>240.0</ele><time>2026-04-26T07:24:25.182Z</time></trkpt><trkpt lat="43.4195897" lon="11.1667266"><ele>240.0</ele><time>2026-04-26T07:24:27.184Z</time></trkpt><trkpt lat="43.4195791" lon="11.1666114"><ele>240.0</ele><time>2026-04-26T07:24:29.19Z</time></trkpt><trkpt lat="43.4195736" lon="11.1664941"><ele>240.0</ele><time>2026-04-26T07:24:31.183Z</time></trkpt><trkpt lat="43.4195642" lon="11.1663748"><ele>240.0</ele><time>2026-04-26T07:24:33.182Z</time></trkpt><trkpt lat="43.4195542" lon="11.1662539"><ele>240.0</ele><time>2026-04-26T07:24:35.191Z</time></trkpt><trkpt lat="43.4195436" lon="11.1661372"><ele>240.0</ele><time>2026-04-26T07:24:37.191Z</time></trkpt><trkpt lat="43.4195304" lon="11.1660219"><ele>240.0</ele><time>2026-04-26T07:24:39.186Z</time></trkpt><trkpt lat="43.4195282" lon="11.1659046"><ele>240.0</ele><time>2026-04-26T07:24:41.186Z</time></trkpt><trkpt lat="43.4195235" lon="11.1657911"><ele>239.83333333333334</ele><time>2026-04-26T07:24:43.081Z</time></trkpt><trkpt lat="43.4195137" lon="11.1656688"><ele>239.66666666666669</ele><time>2026-04-26T07:24:45.18Z</time></trkpt><trkpt lat="43.4195064" lon="11.1655524"><ele>239.5</ele><time>2026-04-26T07:24:47.189Z</time></trkpt><trkpt lat="43.4194956" lon="11.1654357"><ele>239.33333333333334</ele><time>2026-04-26T07:24:49.188Z</time></trkpt><trkpt lat="43.4194857" lon="11.1653184"><ele>239.16666666666669</ele><time>2026-04-26T07:24:51.102Z</time></trkpt><trkpt lat="43.4194787" lon="11.1651913"><ele>239.0</ele><time>2026-04-26T07:24:53.189Z</time></trkpt><trkpt lat="43.4194669" lon="11.1650725"><ele>239.00000000000003</ele><time>2026-04-26T07:24:55.185Z</time></trkpt><trkpt lat="43.4194572" lon="11.1649527"><ele>239.0</ele><time>2026-04-26T07:24:57.186Z</time></trkpt><trkpt lat="43.4194469" lon="11.1648349"><ele>239.0</ele><time>2026-04-26T07:24:59.192Z</time></trkpt><trkpt lat="43.4194353" lon="11.1647163"><ele>239.0</ele><time>2026-04-26T07:25:01.184Z</time></trkpt><trkpt lat="43.4194312" lon="11.1646"><ele>239.00000000000003</ele><time>2026-04-26T07:25:03.174Z</time></trkpt><trkpt lat="43.4194202" lon="11.164484"><ele>239.0</ele><time>2026-04-26T07:25:05.184Z</time></trkpt><trkpt lat="43.4194038" lon="11.1643717"><ele>239.16666666666669</ele><time>2026-04-26T07:25:07.169Z</time></trkpt><trkpt lat="43.4193917" lon="11.1642631"><ele>239.33333333333334</ele><time>2026-04-26T07:25:09.178Z</time></trkpt><trkpt lat="43.4193758" lon="11.1641548"><ele>239.5</ele><time>2026-04-26T07:25:11.168Z</time></trkpt><trkpt lat="43.4193574" lon="11.1640459"><ele>239.66666666666669</ele><time>2026-04-26T07:25:13.172Z</time></trkpt><trkpt lat="43.4193436" lon="11.1639383"><ele>239.83333333333334</ele><time>2026-04-26T07:25:15.171Z</time></trkpt><trkpt lat="43.4193313" lon="11.1638296"><ele>240.0</ele><time>2026-04-26T07:25:17.168Z</time></trkpt><trkpt lat="43.4193047" lon="11.1637212"><ele>240.16666666666666</ele><time>2026-04-26T07:25:19.184Z</time></trkpt><trkpt lat="43.4192846" lon="11.163618"><ele>240.33333333333331</ele><time>2026-04-26T07:25:21.17Z</time></trkpt><trkpt lat="43.419264" lon="11.1635178"><ele>240.5</ele><time>2026-04-26T07:25:23.171Z</time></trkpt><trkpt lat="43.4192383" lon="11.163416"><ele>240.66666666666666</ele><time>2026-04-26T07:25:25.118Z</time></trkpt><trkpt lat="43.4192183" lon="11.1633112"><ele>240.83333333333331</ele><time>2026-04-26T07:25:27.168Z</time></trkpt><trkpt lat="43.4191965" lon="11.1632137"><ele>241.0</ele><time>2026-04-26T07:25:29.103Z</time></trkpt><trkpt lat="43.4191742" lon="11.1631243"><ele>241.0</ele><time>2026-04-26T07:25:30.998Z</time></trkpt><trkpt lat="43.4191574" lon="11.1630303"><ele>241.00000000000003</ele><time>2026-04-26T07:25:33.178Z</time></trkpt><trkpt lat="43.4191335" lon="11.1629492"><ele>241.0</ele><time>2026-04-26T07:25:35.177Z</time></trkpt><trkpt lat="43.4191193" lon="11.1628617"><ele>241.0</ele><time>2026-04-26T07:25:37.168Z</time></trkpt><trkpt lat="43.4191056" lon="11.1627683"><ele>241.00000000000003</ele><time>2026-04-26T07:25:39.165Z</time></trkpt><trkpt lat="43.4190866" lon="11.1626729"><ele>241.0</ele><time>2026-04-26T07:25:41.172Z</time></trkpt><trkpt lat="43.4190691" lon="11.1625686"><ele>241.0</ele><time>2026-04-26T07:25:43.21Z</time></trkpt><trkpt lat="43.4190483" lon="11.1624678"><ele>241.49999999999997</ele><time>2026-04-26T07:25:45.112Z</time></trkpt><trkpt lat="43.4190279" lon="11.1623496"><ele>242.0</ele><time>2026-04-26T07:25:47.225Z</time></trkpt><trkpt lat="43.4190093" lon="11.16224"><ele>242.5</ele><time>2026-04-26T07:25:49.184Z</time></trkpt><trkpt lat="43.4189856" lon="11.1621278"><ele>243.0</ele><time>2026-04-26T07:25:51.18Z</time></trkpt><trkpt lat="43.4189594" lon="11.1620196"><ele>243.49999999999997</ele><time>2026-04-26T07:25:53.18Z</time></trkpt><trkpt lat="43.418935" lon="11.1619091"><ele>244.0</ele><time>2026-04-26T07:25:55.188Z</time></trkpt><trkpt lat="43.4189118" lon="11.1618016"><ele>243.99999999999997</ele><time>2026-04-26T07:25:57.196Z</time></trkpt><trkpt lat="43.418889" lon="11.1616965"><ele>244.0</ele><time>2026-04-26T07:25:59.173Z</time></trkpt><trkpt lat="43.4188716" lon="11.1615964"><ele>244.0</ele><time>2026-04-26T07:26:01.215Z</time></trkpt><trkpt lat="43.4188483" lon="11.1614919"><ele>244.0</ele><time>2026-04-26T07:26:03.22Z</time></trkpt><trkpt lat="43.4188234" lon="11.1613881"><ele>243.99999999999997</ele><time>2026-04-26T07:26:05.187Z</time></trkpt><trkpt lat="43.4187977" lon="11.1612817"><ele>244.0</ele><time>2026-04-26T07:26:07.19Z</time></trkpt><trkpt lat="43.4187659" lon="11.161174"><ele>243.2</ele><time>2026-04-26T07:26:09.185Z</time></trkpt><trkpt lat="43.4187324" lon="11.1610661"><ele>242.39999999999998</ele><time>2026-04-26T07:26:11.185Z</time></trkpt><trkpt lat="43.4186957" lon="11.1609581"><ele>241.6</ele><time>2026-04-26T07:26:13.185Z</time></trkpt><trkpt lat="43.4186542" lon="11.1608456"><ele>240.8</ele><time>2026-04-26T07:26:15.182Z</time></trkpt><trkpt lat="43.4186064" lon="11.1607345"><ele>240.0</ele><time>2026-04-26T07:26:17.193Z</time></trkpt><trkpt lat="43.4185523" lon="11.160623"><ele>240.0</ele><time>2026-04-26T07:26:19.182Z</time></trkpt><trkpt lat="43.4184982" lon="11.1605073"><ele>240.0</ele><time>2026-04-26T07:26:21.194Z</time></trkpt><trkpt lat="43.4184399" lon="11.1603944"><ele>240.0</ele><time>2026-04-26T07:26:23.179Z</time></trkpt><trkpt lat="43.4183828" lon="11.160271"><ele>240.0</ele><time>2026-04-26T07:26:25.19Z</time></trkpt><trkpt lat="43.4183187" lon="11.1601428"><ele>240.0</ele><time>2026-04-26T07:26:27.178Z</time></trkpt><trkpt lat="43.418253" lon="11.1600167"><ele>240.0</ele><time>2026-04-26T07:26:29.183Z</time></trkpt><trkpt lat="43.4181925" lon="11.1598848"><ele>240.0</ele><time>2026-04-26T07:26:31.188Z</time></trkpt><trkpt lat="43.4181307" lon="11.1597571"><ele>240.0</ele><time>2026-04-26T07:26:33.184Z</time></trkpt><trkpt lat="43.418069" lon="11.1596225"><ele>240.0</ele><time>2026-04-26T07:26:35.19Z</time></trkpt><trkpt lat="43.4180067" lon="11.1594907"><ele>240.0</ele><time>2026-04-26T07:26:37.223Z</time></trkpt><trkpt lat="43.4179385" lon="11.1593646"><ele>240.0</ele><time>2026-04-26T07:26:39.191Z</time></trkpt><trkpt lat="43.4178621" lon="11.1592483"><ele>240.0</ele><time>2026-04-26T07:26:41.224Z</time></trkpt><trkpt lat="43.4177695" lon="11.1591487"><ele>240.0</ele><time>2026-04-26T07:26:43.188Z</time></trkpt><trkpt lat="43.4176671" lon="11.1590741"><ele>240.0</ele><time>2026-04-26T07:26:45.186Z</time></trkpt><trkpt lat="43.4175514" lon="11.1590367"><ele>240.0</ele><time>2026-04-26T07:26:47.225Z</time></trkpt><trkpt lat="43.4174293" lon="11.1590435"><ele>240.0</ele><time>2026-04-26T07:26:49.182Z</time></trkpt><trkpt lat="43.4173662" lon="11.1590526"><ele>240.0</ele><time>2026-04-26T07:26:50.182Z</time></trkpt><trkpt lat="43.4172445" lon="11.1590879"><ele>240.0</ele><time>2026-04-26T07:26:52.18Z</time></trkpt><trkpt lat="43.4171849" lon="11.1591198"><ele>239.16666666666666</ele><time>2026-04-26T07:26:53.219Z</time></trkpt><trkpt lat="43.4171272" lon="11.1591619"><ele>238.33333333333331</ele><time>2026-04-26T07:26:54.189Z</time></trkpt><trkpt lat="43.4170133" lon="11.1592472"><ele>237.5</ele><time>2026-04-26T07:26:56.216Z</time></trkpt><trkpt lat="43.4169537" lon="11.1592956"><ele>236.66666666666666</ele><time>2026-04-26T07:26:57.232Z</time></trkpt><trkpt lat="43.4168957" lon="11.1593476"><ele>235.83333333333331</ele><time>2026-04-26T07:26:58.221Z</time></trkpt><trkpt lat="43.416839" lon="11.1593944"><ele>235.0</ele><time>2026-04-26T07:26:59.183Z</time></trkpt><trkpt lat="43.4167783" lon="11.1594392"><ele>234.99999999999997</ele><time>2026-04-26T07:27:00.187Z</time></trkpt><trkpt lat="43.4167205" lon="11.1594869"><ele>235.0</ele><time>2026-04-26T07:27:01.222Z</time></trkpt><trkpt lat="43.416663" lon="11.1595341"><ele>235.0</ele><time>2026-04-26T07:27:02.223Z</time></trkpt><trkpt lat="43.4166077" lon="11.1595774"><ele>235.0</ele><time>2026-04-26T07:27:03.202Z</time></trkpt><trkpt lat="43.4164995" lon="11.1596661"><ele>234.99999999999997</ele><time>2026-04-26T07:27:05.187Z</time></trkpt><trkpt lat="43.4163908" lon="11.1597493"><ele>235.0</ele><time>2026-04-26T07:27:07.224Z</time></trkpt><trkpt lat="43.4163329" lon="11.1597962"><ele>234.4</ele><time>2026-04-26T07:27:08.192Z</time></trkpt><trkpt lat="43.4162769" lon="11.1598394"><ele>233.8</ele><time>2026-04-26T07:27:09.183Z</time></trkpt><trkpt lat="43.4161687" lon="11.1599243"><ele>233.2</ele><time>2026-04-26T07:27:11.223Z</time></trkpt><trkpt lat="43.4160667" lon="11.1600114"><ele>232.6</ele><time>2026-04-26T07:27:13.187Z</time></trkpt><trkpt lat="43.4159628" lon="11.1600932"><ele>232.0</ele><time>2026-04-26T07:27:15.197Z</time></trkpt><trkpt lat="43.4158588" lon="11.1601826"><ele>232.0</ele><time>2026-04-26T07:27:17.192Z</time></trkpt><trkpt lat="43.415753" lon="11.1602658"><ele>232.0</ele><time>2026-04-26T07:27:19.188Z</time></trkpt><trkpt lat="43.4156487" lon="11.1603471"><ele>232.0</ele><time>2026-04-26T07:27:21.188Z</time></trkpt><trkpt lat="43.4155504" lon="11.1604284"><ele>232.0</ele><time>2026-04-26T07:27:23.188Z</time></trkpt><trkpt lat="43.4154491" lon="11.1605108"><ele>232.0</ele><time>2026-04-26T07:27:25.222Z</time></trkpt><trkpt lat="43.4153508" lon="11.1605938"><ele>232.0</ele><time>2026-04-26T07:27:27.189Z</time></trkpt><trkpt lat="43.415255" lon="11.1606724"><ele>232.0</ele><time>2026-04-26T07:27:29.188Z</time></trkpt><trkpt lat="43.4151602" lon="11.1607451"><ele>232.0</ele><time>2026-04-26T07:27:31.19Z</time></trkpt><trkpt lat="43.4150612" lon="11.1607961"><ele>232.0</ele><time>2026-04-26T07:27:33.181Z</time></trkpt><trkpt lat="43.4149571" lon="11.1608044"><ele>232.0</ele><time>2026-04-26T07:27:35.188Z</time></trkpt><trkpt lat="43.414853" lon="11.1607754"><ele>232.0</ele><time>2026-04-26T07:27:37.186Z</time></trkpt><trkpt lat="43.4147671" lon="11.1607064"><ele>232.0</ele><time>2026-04-26T07:27:39.188Z</time></trkpt><trkpt lat="43.4146879" lon="11.1606163"><ele>232.0</ele><time>2026-04-26T07:27:41.224Z</time></trkpt><trkpt lat="43.4146178" lon="11.1605213"><ele>232.0</ele><time>2026-04-26T07:27:43.191Z</time></trkpt><trkpt lat="43.4145505" lon="11.1604347"><ele>231.39999999999998</ele><time>2026-04-26T07:27:45.186Z</time></trkpt><trkpt lat="43.4144798" lon="11.1603537"><ele>230.79999999999998</ele><time>2026-04-26T07:27:47.175Z</time></trkpt><trkpt lat="43.4144141" lon="11.1602675"><ele>230.2</ele><time>2026-04-26T07:27:49.191Z</time></trkpt><trkpt lat="43.414348" lon="11.1601782"><ele>229.6</ele><time>2026-04-26T07:27:51.228Z</time></trkpt><trkpt lat="43.4142776" lon="11.1600862"><ele>229.0</ele><time>2026-04-26T07:27:53.186Z</time></trkpt><trkpt lat="43.4142028" lon="11.159996"><ele>229.0</ele><time>2026-04-26T07:27:55.191Z</time></trkpt><trkpt lat="43.4141312" lon="11.1598938"><ele>229.0</ele><time>2026-04-26T07:27:57.19Z</time></trkpt><trkpt lat="43.4140519" lon="11.1597911"><ele>229.0</ele><time>2026-04-26T07:27:59.185Z</time></trkpt><trkpt lat="43.4139667" lon="11.1596802"><ele>229.0</ele><time>2026-04-26T07:28:01.183Z</time></trkpt><trkpt lat="43.4138751" lon="11.1595688"><ele>228.66666666666666</ele><time>2026-04-26T07:28:03.19Z</time></trkpt><trkpt lat="43.4138302" lon="11.1595058"><ele>228.33333333333331</ele><time>2026-04-26T07:28:04.187Z</time></trkpt><trkpt lat="43.413782" lon="11.159444"><ele>228.0</ele><time>2026-04-26T07:28:05.233Z</time></trkpt><trkpt lat="43.4137319" lon="11.159382"><ele>227.66666666666669</ele><time>2026-04-26T07:28:06.191Z</time></trkpt><trkpt lat="43.413687" lon="11.1593193"><ele>227.33333333333334</ele><time>2026-04-26T07:28:07.186Z</time></trkpt><trkpt lat="43.4135986" lon="11.1592036"><ele>227.0</ele><time>2026-04-26T07:28:09.185Z</time></trkpt><trkpt lat="43.413536" lon="11.1590824"><ele>226.8</ele><time>2026-04-26T07:28:11.221Z</time></trkpt><trkpt lat="43.4135363" lon="11.1589273"><ele>226.6</ele><time>2026-04-26T07:28:13.221Z</time></trkpt><trkpt lat="43.4135834" lon="11.1587902"><ele>226.40000000000003</ele><time>2026-04-26T07:28:15.185Z</time></trkpt><trkpt lat="43.4136143" lon="11.1586499"><ele>226.20000000000002</ele><time>2026-04-26T07:28:17.215Z</time></trkpt><trkpt lat="43.4136196" lon="11.1585017"><ele>226.0</ele><time>2026-04-26T07:28:19.183Z</time></trkpt><trkpt lat="43.4136436" lon="11.1583621"><ele>226.0</ele><time>2026-04-26T07:28:21.203Z</time></trkpt><trkpt lat="43.4136977" lon="11.158243"><ele>226.00000000000003</ele><time>2026-04-26T07:28:23.238Z</time></trkpt><trkpt lat="43.413772" lon="11.1581502"><ele>226.00000000000003</ele><time>2026-04-26T07:28:25.226Z</time></trkpt><trkpt lat="43.4138501" lon="11.1580666"><ele>226.0</ele><time>2026-04-26T07:28:27.216Z</time></trkpt><trkpt lat="43.4139285" lon="11.1579832"><ele>226.0</ele><time>2026-04-26T07:28:29.189Z</time></trkpt><trkpt lat="43.4140049" lon="11.1579046"><ele>226.60000000000002</ele><time>2026-04-26T07:28:31.191Z</time></trkpt><trkpt lat="43.4140776" lon="11.1578226"><ele>227.20000000000002</ele><time>2026-04-26T07:28:33.179Z</time></trkpt><trkpt lat="43.4141527" lon="11.1577469"><ele>227.79999999999998</ele><time>2026-04-26T07:28:35.186Z</time></trkpt><trkpt lat="43.4142256" lon="11.157666"><ele>228.39999999999998</ele><time>2026-04-26T07:28:37.189Z</time></trkpt><trkpt lat="43.4142944" lon="11.1575876"><ele>229.0</ele><time>2026-04-26T07:28:39.187Z</time></trkpt><trkpt lat="43.4143607" lon="11.1575113"><ele>228.99999999999997</ele><time>2026-04-26T07:28:41.181Z</time></trkpt><trkpt lat="43.4144217" lon="11.1574395"><ele>229.0</ele><time>2026-04-26T07:28:43.184Z</time></trkpt><trkpt lat="43.4144784" lon="11.1573672"><ele>229.0</ele><time>2026-04-26T07:28:45.182Z</time></trkpt><trkpt lat="43.4145285" lon="11.1572852"><ele>229.0</ele><time>2026-04-26T07:28:47.19Z</time></trkpt><trkpt lat="43.4145783" lon="11.1572105"><ele>228.99999999999997</ele><time>2026-04-26T07:28:49.189Z</time></trkpt><trkpt lat="43.414625" lon="11.1571349"><ele>229.0</ele><time>2026-04-26T07:28:51.177Z</time></trkpt><trkpt lat="43.4146621" lon="11.1570519"><ele>229.66666666666666</ele><time>2026-04-26T07:28:53.187Z</time></trkpt><trkpt lat="43.4146998" lon="11.1569623"><ele>230.33333333333331</ele><time>2026-04-26T07:28:55.18Z</time></trkpt><trkpt lat="43.4147374" lon="11.1568802"><ele>231.0</ele><time>2026-04-26T07:28:57.175Z</time></trkpt><trkpt lat="43.4147742" lon="11.156796"><ele>231.66666666666669</ele><time>2026-04-26T07:28:59.176Z</time></trkpt><trkpt lat="43.4148124" lon="11.1567102"><ele>232.33333333333334</ele><time>2026-04-26T07:29:01.19Z</time></trkpt><trkpt lat="43.4148492" lon="11.1566296"><ele>233.0</ele><time>2026-04-26T07:29:03.168Z</time></trkpt><trkpt lat="43.4149007" lon="11.1565263"><ele>233.00000000000003</ele><time>2026-04-26T07:29:06.175Z</time></trkpt><trkpt lat="43.4149354" lon="11.1564465"><ele>233.0</ele><time>2026-04-26T07:29:08.181Z</time></trkpt><trkpt lat="43.4149716" lon="11.1563576"><ele>233.0</ele><time>2026-04-26T07:29:10.17Z</time></trkpt><trkpt lat="43.4150126" lon="11.1562657"><ele>233.0</ele><time>2026-04-26T07:29:12.18Z</time></trkpt><trkpt lat="43.4150526" lon="11.1561733"><ele>233.00000000000003</ele><time>2026-04-26T07:29:14.188Z</time></trkpt><trkpt lat="43.4150956" lon="11.1560811"><ele>233.0</ele><time>2026-04-26T07:29:16.169Z</time></trkpt><trkpt lat="43.4151346" lon="11.1559832"><ele>233.00000000000003</ele><time>2026-04-26T07:29:18.177Z</time></trkpt><trkpt lat="43.4151784" lon="11.1558842"><ele>233.0</ele><time>2026-04-26T07:29:20.177Z</time></trkpt><trkpt lat="43.4152281" lon="11.1557827"><ele>233.0</ele><time>2026-04-26T07:29:22.174Z</time></trkpt><trkpt lat="43.4152714" lon="11.1556817"><ele>233.0</ele><time>2026-04-26T07:29:24.171Z</time></trkpt><trkpt lat="43.4153002" lon="11.1556036"><ele>233.00000000000003</ele><time>2026-04-26T07:29:25.168Z</time></trkpt><trkpt lat="43.4153385" lon="11.1555218"><ele>233.0</ele><time>2026-04-26T07:29:27.173Z</time></trkpt><trkpt lat="43.4153895" lon="11.1554158"><ele>232.4</ele><time>2026-04-26T07:29:29.168Z</time></trkpt><trkpt lat="43.4154362" lon="11.1553046"><ele>231.8</ele><time>2026-04-26T07:29:31.177Z</time></trkpt><trkpt lat="43.4154818" lon="11.1551968"><ele>231.2</ele><time>2026-04-26T07:29:33.189Z</time></trkpt><trkpt lat="43.4155223" lon="11.1550785"><ele>230.6</ele><time>2026-04-26T07:29:35.188Z</time></trkpt><trkpt lat="43.4155583" lon="11.1549572"><ele>230.0</ele><time>2026-04-26T07:29:37.183Z</time></trkpt><trkpt lat="43.4155913" lon="11.1548268"><ele>229.8</ele><time>2026-04-26T07:29:39.184Z</time></trkpt><trkpt lat="43.4156276" lon="11.1546888"><ele>229.6</ele><time>2026-04-26T07:29:41.19Z</time></trkpt><trkpt lat="43.4156597" lon="11.1545436"><ele>229.39999999999998</ele><time>2026-04-26T07:29:43.185Z</time></trkpt><trkpt lat="43.4156939" lon="11.1544057"><ele>229.2</ele><time>2026-04-26T07:29:45.172Z</time></trkpt><trkpt lat="43.4157303" lon="11.1542596"><ele>229.0</ele><time>2026-04-26T07:29:47.19Z</time></trkpt><trkpt lat="43.4157638" lon="11.154113"><ele>228.79999999999998</ele><time>2026-04-26T07:29:49.188Z</time></trkpt><trkpt lat="43.415798" lon="11.1539633"><ele>228.59999999999997</ele><time>2026-04-26T07:29:51.188Z</time></trkpt><trkpt lat="43.4158367" lon="11.1538152"><ele>228.4</ele><time>2026-04-26T07:29:53.186Z</time></trkpt><trkpt lat="43.415868" lon="11.1536741"><ele>228.2</ele><time>2026-04-26T07:29:55.188Z</time></trkpt><trkpt lat="43.4158973" lon="11.1535304"><ele>228.0</ele><time>2026-04-26T07:29:57.187Z</time></trkpt><trkpt lat="43.4159253" lon="11.1533835"><ele>228.0</ele><time>2026-04-26T07:29:59.187Z</time></trkpt><trkpt lat="43.4159654" lon="11.1532412"><ele>228.0</ele><time>2026-04-26T07:30:01.183Z</time></trkpt><trkpt lat="43.4160012" lon="11.1530939"><ele>228.0</ele><time>2026-04-26T07:30:03.172Z</time></trkpt><trkpt lat="43.4160341" lon="11.1529428"><ele>228.0</ele><time>2026-04-26T07:30:05.186Z</time></trkpt><trkpt lat="43.4160726" lon="11.152796"><ele>227.60000000000002</ele><time>2026-04-26T07:30:07.182Z</time></trkpt><trkpt lat="43.416106" lon="11.1526506"><ele>227.20000000000002</ele><time>2026-04-26T07:30:09.177Z</time></trkpt><trkpt lat="43.4161373" lon="11.152503"><ele>226.8</ele><time>2026-04-26T07:30:11.179Z</time></trkpt><trkpt lat="43.4161741" lon="11.1523603"><ele>226.4</ele><time>2026-04-26T07:30:13.186Z</time></trkpt><trkpt lat="43.4162101" lon="11.152219"><ele>226.0</ele><time>2026-04-26T07:30:15.196Z</time></trkpt><trkpt lat="43.4162442" lon="11.1520727"><ele>226.0</ele><time>2026-04-26T07:30:17.189Z</time></trkpt><trkpt lat="43.4162789" lon="11.1519311"><ele>226.00000000000003</ele><time>2026-04-26T07:30:19.18Z</time></trkpt><trkpt lat="43.4163105" lon="11.1517916"><ele>226.00000000000003</ele><time>2026-04-26T07:30:21.173Z</time></trkpt><trkpt lat="43.416343" lon="11.1516513"><ele>226.0</ele><time>2026-04-26T07:30:23.177Z</time></trkpt><trkpt lat="43.4163751" lon="11.1515122"><ele>226.0</ele><time>2026-04-26T07:30:25.183Z</time></trkpt><trkpt lat="43.4164083" lon="11.1513778"><ele>225.8</ele><time>2026-04-26T07:30:27.177Z</time></trkpt><trkpt lat="43.4164426" lon="11.1512391"><ele>225.60000000000002</ele><time>2026-04-26T07:30:29.183Z</time></trkpt><trkpt lat="43.4164748" lon="11.1511061"><ele>225.4</ele><time>2026-04-26T07:30:31.18Z</time></trkpt><trkpt lat="43.4165046" lon="11.1509693"><ele>225.2</ele><time>2026-04-26T07:30:33.184Z</time></trkpt><trkpt lat="43.4165387" lon="11.1508474"><ele>225.0</ele><time>2026-04-26T07:30:35.168Z</time></trkpt><trkpt lat="43.4165645" lon="11.1507299"><ele>225.0</ele><time>2026-04-26T07:30:37.186Z</time></trkpt><trkpt lat="43.4165919" lon="11.1506167"><ele>225.0</ele><time>2026-04-26T07:30:39.177Z</time></trkpt><trkpt lat="43.416617" lon="11.1505002"><ele>225.0</ele><time>2026-04-26T07:30:41.182Z</time></trkpt><trkpt lat="43.4166444" lon="11.1503755"><ele>225.0</ele><time>2026-04-26T07:30:43.193Z</time></trkpt><trkpt lat="43.4166749" lon="11.1502417"><ele>225.0</ele><time>2026-04-26T07:30:45.189Z</time></trkpt><trkpt lat="43.4167112" lon="11.1500977"><ele>225.0</ele><time>2026-04-26T07:30:47.185Z</time></trkpt><trkpt lat="43.4167541" lon="11.1499388"><ele>225.0</ele><time>2026-04-26T07:30:49.184Z</time></trkpt><trkpt lat="43.4168007" lon="11.1497758"><ele>225.0</ele><time>2026-04-26T07:30:51.185Z</time></trkpt><trkpt lat="43.4168228" lon="11.1496926"><ele>225.0</ele><time>2026-04-26T07:30:52.18Z</time></trkpt><trkpt lat="43.4168471" lon="11.1496059"><ele>225.0</ele><time>2026-04-26T07:30:53.181Z</time></trkpt><trkpt lat="43.4168712" lon="11.149519"><ele>224.42857142857147</ele><time>2026-04-26T07:30:54.186Z</time></trkpt><trkpt lat="43.416892" lon="11.1494313"><ele>223.85714285714286</ele><time>2026-04-26T07:30:55.187Z</time></trkpt><trkpt lat="43.4169098" lon="11.1493451"><ele>223.2857142857143</ele><time>2026-04-26T07:30:56.18Z</time></trkpt><trkpt lat="43.4169245" lon="11.1492557"><ele>222.71428571428572</ele><time>2026-04-26T07:30:57.189Z</time></trkpt><trkpt lat="43.4169346" lon="11.1491643"><ele>222.14285714285717</ele><time>2026-04-26T07:30:58.186Z</time></trkpt><trkpt lat="43.4169429" lon="11.1490714"><ele>221.57142857142858</ele><time>2026-04-26T07:30:59.191Z</time></trkpt><trkpt lat="43.4169485" lon="11.1489791"><ele>221.0</ele><time>2026-04-26T07:31:00.178Z</time></trkpt><trkpt lat="43.4169504" lon="11.1488885"><ele>220.42857142857144</ele><time>2026-04-26T07:31:01.175Z</time></trkpt><trkpt lat="43.4169479" lon="11.1487955"><ele>219.85714285714286</ele><time>2026-04-26T07:31:02.183Z</time></trkpt><trkpt lat="43.4169404" lon="11.1487019"><ele>219.28571428571428</ele><time>2026-04-26T07:31:03.183Z</time></trkpt><trkpt lat="43.4169301" lon="11.1486091"><ele>218.71428571428572</ele><time>2026-04-26T07:31:04.176Z</time></trkpt><trkpt lat="43.4169204" lon="11.1485153"><ele>218.14285714285714</ele><time>2026-04-26T07:31:05.181Z</time></trkpt><trkpt lat="43.4169054" lon="11.1484242"><ele>217.57142857142858</ele><time>2026-04-26T07:31:06.19Z</time></trkpt><trkpt lat="43.4168839" lon="11.1483349"><ele>217.0</ele><time>2026-04-26T07:31:07.185Z</time></trkpt><trkpt lat="43.4168617" lon="11.1482465"><ele>217.28571428571428</ele><time>2026-04-26T07:31:08.183Z</time></trkpt><trkpt lat="43.4168387" lon="11.1481576"><ele>217.57142857142856</ele><time>2026-04-26T07:31:09.188Z</time></trkpt><trkpt lat="43.416816" lon="11.1480688"><ele>217.85714285714286</ele><time>2026-04-26T07:31:10.188Z</time></trkpt><trkpt lat="43.4167923" lon="11.1479819"><ele>218.14285714285714</ele><time>2026-04-26T07:31:11.184Z</time></trkpt><trkpt lat="43.4167652" lon="11.1478968"><ele>218.42857142857142</ele><time>2026-04-26T07:31:12.188Z</time></trkpt><trkpt lat="43.4167383" lon="11.1478134"><ele>218.71428571428572</ele><time>2026-04-26T07:31:13.185Z</time></trkpt><trkpt lat="43.4167125" lon="11.147729"><ele>219.0</ele><time>2026-04-26T07:31:14.185Z</time></trkpt><trkpt lat="43.4166887" lon="11.1476449"><ele>219.0</ele><time>2026-04-26T07:31:15.172Z</time></trkpt><trkpt lat="43.4166659" lon="11.14756"><ele>219.0</ele><time>2026-04-26T07:31:16.179Z</time></trkpt><trkpt lat="43.4166407" lon="11.147477"><ele>219.0</ele><time>2026-04-26T07:31:17.187Z</time></trkpt><trkpt lat="43.4165776" lon="11.1473395"><ele>219.0</ele><time>2026-04-26T07:31:19.188Z</time></trkpt><trkpt lat="43.416472" lon="11.1472671"><ele>219.0</ele><time>2026-04-26T07:31:21.183Z</time></trkpt><trkpt lat="43.4164087" lon="11.1472489"><ele>219.0</ele><time>2026-04-26T07:31:22.183Z</time></trkpt><trkpt lat="43.416341" lon="11.1472378"><ele>218.16666666666666</ele><time>2026-04-26T07:31:23.182Z</time></trkpt><trkpt lat="43.4162697" lon="11.1472311"><ele>217.33333333333331</ele><time>2026-04-26T07:31:24.182Z</time></trkpt><trkpt lat="43.4161967" lon="11.1472161"><ele>216.5</ele><time>2026-04-26T07:31:25.185Z</time></trkpt><trkpt lat="43.4161219" lon="11.1472036"><ele>215.66666666666666</ele><time>2026-04-26T07:31:26.184Z</time></trkpt><trkpt lat="43.4160446" lon="11.1471949"><ele>214.83333333333331</ele><time>2026-04-26T07:31:27.185Z</time></trkpt><trkpt lat="43.4159688" lon="11.1471784"><ele>214.0</ele><time>2026-04-26T07:31:28.188Z</time></trkpt><trkpt lat="43.4158939" lon="11.1471536"><ele>214.00000000000003</ele><time>2026-04-26T07:31:29.178Z</time></trkpt><trkpt lat="43.4158195" lon="11.1471252"><ele>214.0</ele><time>2026-04-26T07:31:30.186Z</time></trkpt><trkpt lat="43.4157468" lon="11.1470968"><ele>214.0</ele><time>2026-04-26T07:31:31.182Z</time></trkpt><trkpt lat="43.4156743" lon="11.1470691"><ele>214.0</ele><time>2026-04-26T07:31:32.183Z</time></trkpt><trkpt lat="43.4156039" lon="11.1470401"><ele>214.0</ele><time>2026-04-26T07:31:33.19Z</time></trkpt><trkpt lat="43.4155394" lon="11.1470035"><ele>214.00000000000003</ele><time>2026-04-26T07:31:34.184Z</time></trkpt><trkpt lat="43.4154727" lon="11.1469784"><ele>214.0</ele><time>2026-04-26T07:31:35.189Z</time></trkpt><trkpt lat="43.4154022" lon="11.1469752"><ele>213.42857142857144</ele><time>2026-04-26T07:31:36.179Z</time></trkpt><trkpt lat="43.4153306" lon="11.1469837"><ele>212.85714285714286</ele><time>2026-04-26T07:31:37.183Z</time></trkpt><trkpt lat="43.4152588" lon="11.1469995"><ele>212.28571428571428</ele><time>2026-04-26T07:31:38.186Z</time></trkpt><trkpt lat="43.4151912" lon="11.1470224"><ele>211.71428571428572</ele><time>2026-04-26T07:31:39.187Z</time></trkpt><trkpt lat="43.4151249" lon="11.1470549"><ele>211.14285714285714</ele><time>2026-04-26T07:31:40.184Z</time></trkpt><trkpt lat="43.415057" lon="11.1470875"><ele>210.57142857142858</ele><time>2026-04-26T07:31:41.185Z</time></trkpt><trkpt lat="43.4149922" lon="11.1471243"><ele>210.0</ele><time>2026-04-26T07:31:42.189Z</time></trkpt><trkpt lat="43.4148786" lon="11.1472105"><ele>210.0</ele><time>2026-04-26T07:31:44.188Z</time></trkpt><trkpt lat="43.4148243" lon="11.1472646"><ele>210.0</ele><time>2026-04-26T07:31:45.19Z</time></trkpt><trkpt lat="43.4147694" lon="11.1473117"><ele>210.0</ele><time>2026-04-26T07:31:46.191Z</time></trkpt><trkpt lat="43.4146666" lon="11.1474018"><ele>210.0</ele><time>2026-04-26T07:31:48.181Z</time></trkpt><trkpt lat="43.4145712" lon="11.1474962"><ele>210.0</ele><time>2026-04-26T07:31:50.172Z</time></trkpt><trkpt lat="43.4144757" lon="11.1475788"><ele>211.2</ele><time>2026-04-26T07:31:52.181Z</time></trkpt><trkpt lat="43.4143889" lon="11.1476695"><ele>212.4</ele><time>2026-04-26T07:31:54.172Z</time></trkpt><trkpt lat="43.4143008" lon="11.1477557"><ele>213.60000000000002</ele><time>2026-04-26T07:31:56.19Z</time></trkpt><trkpt lat="43.4142123" lon="11.1478363"><ele>214.8</ele><time>2026-04-26T07:31:58.183Z</time></trkpt><trkpt lat="43.4141214" lon="11.1479174"><ele>216.0</ele><time>2026-04-26T07:32:00.18Z</time></trkpt><trkpt lat="43.4140346" lon="11.1479988"><ele>216.0</ele><time>2026-04-26T07:32:02.181Z</time></trkpt><trkpt lat="43.4139568" lon="11.14807"><ele>216.00000000000003</ele><time>2026-04-26T07:32:04.176Z</time></trkpt><trkpt lat="43.4138723" lon="11.1481351"><ele>216.00000000000003</ele><time>2026-04-26T07:32:06.169Z</time></trkpt><trkpt lat="43.4137952" lon="11.1481922"><ele>216.0</ele><time>2026-04-26T07:32:08.182Z</time></trkpt><trkpt lat="43.4137205" lon="11.1482563"><ele>216.0</ele><time>2026-04-26T07:32:10.188Z</time></trkpt><trkpt lat="43.4136514" lon="11.1483343"><ele>216.57142857142856</ele><time>2026-04-26T07:32:12.181Z</time></trkpt><trkpt lat="43.4135897" lon="11.1483921"><ele>217.14285714285714</ele><time>2026-04-26T07:32:14.179Z</time></trkpt><trkpt lat="43.4135279" lon="11.1484408"><ele>217.71428571428572</ele><time>2026-04-26T07:32:16.185Z</time></trkpt><trkpt lat="43.4134667" lon="11.1484797"><ele>218.28571428571428</ele><time>2026-04-26T07:32:18.181Z</time></trkpt><trkpt lat="43.4133983" lon="11.1485158"><ele>218.85714285714286</ele><time>2026-04-26T07:32:20.182Z</time></trkpt><trkpt lat="43.4133267" lon="11.1485455"><ele>219.42857142857142</ele><time>2026-04-26T07:32:22.185Z</time></trkpt><trkpt lat="43.4132604" lon="11.1485724"><ele>220.0</ele><time>2026-04-26T07:32:24.171Z</time></trkpt><trkpt lat="43.413156" lon="11.1485919"><ele>219.99999999999997</ele><time>2026-04-26T07:32:27.196Z</time></trkpt><trkpt lat="43.4130865" lon="11.1485917"><ele>220.0</ele><time>2026-04-26T07:32:29.181Z</time></trkpt><trkpt lat="43.4130142" lon="11.1485917"><ele>220.0</ele><time>2026-04-26T07:32:31.176Z</time></trkpt><trkpt lat="43.412933" lon="11.1485819"><ele>220.0</ele><time>2026-04-26T07:32:33.184Z</time></trkpt><trkpt lat="43.4128549" lon="11.1485635"><ele>219.99999999999997</ele><time>2026-04-26T07:32:35.202Z</time></trkpt><trkpt lat="43.4127795" lon="11.1485598"><ele>220.0</ele><time>2026-04-26T07:32:37.23Z</time></trkpt><trkpt lat="43.412701" lon="11.1485695"><ele>220.33333333333331</ele><time>2026-04-26T07:32:39.184Z</time></trkpt><trkpt lat="43.4126209" lon="11.1485741"><ele>220.66666666666666</ele><time>2026-04-26T07:32:41.205Z</time></trkpt><trkpt lat="43.412554" lon="11.1485885"><ele>221.0</ele><time>2026-04-26T07:32:43.205Z</time></trkpt><trkpt lat="43.4124858" lon="11.1485954"><ele>221.33333333333331</ele><time>2026-04-26T07:32:45.174Z</time></trkpt><trkpt lat="43.4124021" lon="11.1485737"><ele>221.66666666666666</ele><time>2026-04-26T07:32:48.189Z</time></trkpt><trkpt lat="43.412311" lon="11.1485789"><ele>222.0</ele><time>2026-04-26T07:32:51.189Z</time></trkpt><trkpt lat="43.4122474" lon="11.1485814"><ele>222.0</ele><time>2026-04-26T07:32:53.181Z</time></trkpt><trkpt lat="43.4121806" lon="11.1485811"><ele>222.0</ele><time>2026-04-26T07:32:55.188Z</time></trkpt><trkpt lat="43.4121144" lon="11.148565"><ele>222.0</ele><time>2026-04-26T07:32:57.178Z</time></trkpt><trkpt lat="43.4120459" lon="11.148545"><ele>222.0</ele><time>2026-04-26T07:32:59.19Z</time></trkpt><trkpt lat="43.4119746" lon="11.1485213"><ele>222.0</ele><time>2026-04-26T07:33:01.171Z</time></trkpt><trkpt lat="43.4119034" lon="11.148495"><ele>222.0</ele><time>2026-04-26T07:33:03.217Z</time></trkpt><trkpt lat="43.411831" lon="11.1484575"><ele>222.0</ele><time>2026-04-26T07:33:05.183Z</time></trkpt><trkpt lat="43.41176" lon="11.1484132"><ele>222.16666666666666</ele><time>2026-04-26T07:33:07.181Z</time></trkpt><trkpt lat="43.4116873" lon="11.1483701"><ele>222.33333333333331</ele><time>2026-04-26T07:33:09.18Z</time></trkpt><trkpt lat="43.4116169" lon="11.1483327"><ele>222.5</ele><time>2026-04-26T07:33:11.182Z</time></trkpt><trkpt lat="43.4115486" lon="11.1482882"><ele>222.66666666666666</ele><time>2026-04-26T07:33:13.181Z</time></trkpt><trkpt lat="43.4114702" lon="11.1482369"><ele>222.83333333333331</ele><time>2026-04-26T07:33:15.178Z</time></trkpt><trkpt lat="43.4113844" lon="11.1481922"><ele>223.0</ele><time>2026-04-26T07:33:17.171Z</time></trkpt><trkpt lat="43.4112921" lon="11.1481445"><ele>221.8</ele><time>2026-04-26T07:33:19.189Z</time></trkpt><trkpt lat="43.4111977" lon="11.1480855"><ele>220.60000000000002</ele><time>2026-04-26T07:33:21.185Z</time></trkpt><trkpt lat="43.4111043" lon="11.1480265"><ele>219.39999999999998</ele><time>2026-04-26T07:33:23.191Z</time></trkpt><trkpt lat="43.4110191" lon="11.1479677"><ele>218.2</ele><time>2026-04-26T07:33:25.192Z</time></trkpt><trkpt lat="43.4109285" lon="11.1478973"><ele>217.0</ele><time>2026-04-26T07:33:27.19Z</time></trkpt><trkpt lat="43.4108369" lon="11.1478213"><ele>217.0</ele><time>2026-04-26T07:33:29.193Z</time></trkpt><trkpt lat="43.4107676" lon="11.1477043"><ele>217.0</ele><time>2026-04-26T07:33:31.188Z</time></trkpt><trkpt lat="43.4107249" lon="11.1475614"><ele>217.0</ele><time>2026-04-26T07:33:33.193Z</time></trkpt><trkpt lat="43.4107464" lon="11.1473926"><ele>217.0</ele><time>2026-04-26T07:33:35.188Z</time></trkpt><trkpt lat="43.410804" lon="11.1472404"><ele>216.33333333333331</ele><time>2026-04-26T07:33:37.184Z</time></trkpt><trkpt lat="43.4108369" lon="11.1471654"><ele>215.66666666666666</ele><time>2026-04-26T07:33:38.191Z</time></trkpt><trkpt lat="43.4108645" lon="11.1470871"><ele>215.0</ele><time>2026-04-26T07:33:39.187Z</time></trkpt><trkpt lat="43.410901" lon="11.147015"><ele>214.33333333333331</ele><time>2026-04-26T07:33:40.191Z</time></trkpt><trkpt lat="43.4109403" lon="11.1469389"><ele>213.66666666666666</ele><time>2026-04-26T07:33:41.193Z</time></trkpt><trkpt lat="43.4109775" lon="11.1468607"><ele>213.0</ele><time>2026-04-26T07:33:42.188Z</time></trkpt><trkpt lat="43.4110462" lon="11.1467056"><ele>212.99999999999997</ele><time>2026-04-26T07:33:44.191Z</time></trkpt><trkpt lat="43.4110832" lon="11.1466251"><ele>213.0</ele><time>2026-04-26T07:33:45.185Z</time></trkpt><trkpt lat="43.4111202" lon="11.146545"><ele>213.0</ele><time>2026-04-26T07:33:46.192Z</time></trkpt><trkpt lat="43.4111535" lon="11.1464634"><ele>213.0</ele><time>2026-04-26T07:33:47.188Z</time></trkpt><trkpt lat="43.4111898" lon="11.1463814"><ele>213.0</ele><time>2026-04-26T07:33:48.19Z</time></trkpt><trkpt lat="43.4112167" lon="11.1462945"><ele>212.99999999999997</ele><time>2026-04-26T07:33:49.19Z</time></trkpt><trkpt lat="43.4112343" lon="11.1462043"><ele>213.0</ele><time>2026-04-26T07:33:50.182Z</time></trkpt><trkpt lat="43.4112388" lon="11.1461091"><ele>211.99999999999997</ele><time>2026-04-26T07:33:51.185Z</time></trkpt><trkpt lat="43.4112327" lon="11.1460203"><ele>211.0</ele><time>2026-04-26T07:33:52.192Z</time></trkpt><trkpt lat="43.4112142" lon="11.1459368"><ele>210.0</ele><time>2026-04-26T07:33:53.187Z</time></trkpt><trkpt lat="43.4111892" lon="11.1458525"><ele>209.0</ele><time>2026-04-26T07:33:54.189Z</time></trkpt><trkpt lat="43.4111526" lon="11.1457752"><ele>208.0</ele><time>2026-04-26T07:33:55.184Z</time></trkpt><trkpt lat="43.4111063" lon="11.1457068"><ele>206.99999999999997</ele><time>2026-04-26T07:33:56.224Z</time></trkpt><trkpt lat="43.4110516" lon="11.1456488"><ele>206.0</ele><time>2026-04-26T07:33:57.229Z</time></trkpt><trkpt lat="43.4109955" lon="11.1455892"><ele>204.57142857142856</ele><time>2026-04-26T07:33:58.233Z</time></trkpt><trkpt lat="43.4109325" lon="11.1455405"><ele>203.14285714285714</ele><time>2026-04-26T07:33:59.186Z</time></trkpt><trkpt lat="43.4108656" lon="11.1455015"><ele>201.71428571428572</ele><time>2026-04-26T07:34:00.19Z</time></trkpt><trkpt lat="43.4108006" lon="11.145464"><ele>200.28571428571428</ele><time>2026-04-26T07:34:01.206Z</time></trkpt><trkpt lat="43.4107379" lon="11.1454222"><ele>198.85714285714286</ele><time>2026-04-26T07:34:02.198Z</time></trkpt><trkpt lat="43.4106705" lon="11.1453796"><ele>197.42857142857142</ele><time>2026-04-26T07:34:03.223Z</time></trkpt><trkpt lat="43.4106023" lon="11.1453444"><ele>196.0</ele><time>2026-04-26T07:34:04.188Z</time></trkpt><trkpt lat="43.4105379" lon="11.145303"><ele>196.0</ele><time>2026-04-26T07:34:05.189Z</time></trkpt><trkpt lat="43.4104749" lon="11.1452627"><ele>196.0</ele><time>2026-04-26T07:34:06.231Z</time></trkpt><trkpt lat="43.4104085" lon="11.1452245"><ele>196.0</ele><time>2026-04-26T07:34:07.195Z</time></trkpt><trkpt lat="43.4103453" lon="11.1451841"><ele>196.0</ele><time>2026-04-26T07:34:08.198Z</time></trkpt><trkpt lat="43.4102815" lon="11.1451375"><ele>196.0</ele><time>2026-04-26T07:34:09.186Z</time></trkpt><trkpt lat="43.4102195" lon="11.1451006"><ele>196.0</ele><time>2026-04-26T07:34:10.186Z</time></trkpt><trkpt lat="43.4101545" lon="11.145064"><ele>196.0</ele><time>2026-04-26T07:34:11.226Z</time></trkpt><trkpt lat="43.4100873" lon="11.1450172"><ele>195.99999999999997</ele><time>2026-04-26T07:34:12.204Z</time></trkpt><trkpt lat="43.4100147" lon="11.1449808"><ele>196.0</ele><time>2026-04-26T07:34:13.234Z</time></trkpt><trkpt lat="43.4099434" lon="11.1449437"><ele>196.0</ele><time>2026-04-26T07:34:14.188Z</time></trkpt><trkpt lat="43.4098689" lon="11.1449078"><ele>196.0</ele><time>2026-04-26T07:34:15.191Z</time></trkpt><trkpt lat="43.4097929" lon="11.144876"><ele>195.99999999999997</ele><time>2026-04-26T07:34:16.226Z</time></trkpt><trkpt lat="43.4097154" lon="11.1448468"><ele>196.0</ele><time>2026-04-26T07:34:17.23Z</time></trkpt><trkpt lat="43.4096375" lon="11.1448233"><ele>194.57142857142858</ele><time>2026-04-26T07:34:18.229Z</time></trkpt><trkpt lat="43.4095654" lon="11.1448073"><ele>193.14285714285714</ele><time>2026-04-26T07:34:19.185Z</time></trkpt><trkpt lat="43.4094944" lon="11.1447911"><ele>191.71428571428572</ele><time>2026-04-26T07:34:20.188Z</time></trkpt><trkpt lat="43.4094253" lon="11.1447725"><ele>190.28571428571428</ele><time>2026-04-26T07:34:21.211Z</time></trkpt><trkpt lat="43.4093607" lon="11.1447522"><ele>188.85714285714286</ele><time>2026-04-26T07:34:22.18Z</time></trkpt><trkpt lat="43.4093005" lon="11.144719"><ele>187.42857142857144</ele><time>2026-04-26T07:34:23.232Z</time></trkpt><trkpt lat="43.4092391" lon="11.1446806"><ele>186.0</ele><time>2026-04-26T07:34:24.177Z</time></trkpt><trkpt lat="43.4091822" lon="11.1446205"><ele>186.0</ele><time>2026-04-26T07:34:25.176Z</time></trkpt><trkpt lat="43.4091373" lon="11.1445454"><ele>186.0</ele><time>2026-04-26T07:34:26.183Z</time></trkpt><trkpt lat="43.4090984" lon="11.1444626"><ele>186.0</ele><time>2026-04-26T07:34:27.223Z</time></trkpt><trkpt lat="43.409062" lon="11.1443722"><ele>186.0</ele><time>2026-04-26T07:34:28.181Z</time></trkpt><trkpt lat="43.4090214" lon="11.1442732"><ele>186.0</ele><time>2026-04-26T07:34:29.191Z</time></trkpt><trkpt lat="43.4089876" lon="11.1441785"><ele>186.0</ele><time>2026-04-26T07:34:30.229Z</time></trkpt><trkpt lat="43.4089512" lon="11.1440779"><ele>184.5</ele><time>2026-04-26T07:34:31.187Z</time></trkpt><trkpt lat="43.4089104" lon="11.1439829"><ele>183.0</ele><time>2026-04-26T07:34:32.208Z</time></trkpt><trkpt lat="43.4088668" lon="11.1438858"><ele>181.5</ele><time>2026-04-26T07:34:33.223Z</time></trkpt><trkpt lat="43.4088185" lon="11.1437896"><ele>180.0</ele><time>2026-04-26T07:34:34.183Z</time></trkpt><trkpt lat="43.4087716" lon="11.1436952"><ele>178.5</ele><time>2026-04-26T07:34:35.191Z</time></trkpt><trkpt lat="43.4087239" lon="11.1436031"><ele>177.0</ele><time>2026-04-26T07:34:36.199Z</time></trkpt><trkpt lat="43.408678" lon="11.1435078"><ele>177.0</ele><time>2026-04-26T07:34:37.189Z</time></trkpt><trkpt lat="43.4086251" lon="11.1434198"><ele>177.0</ele><time>2026-04-26T07:34:38.233Z</time></trkpt><trkpt lat="43.4085652" lon="11.1433452"><ele>177.0</ele><time>2026-04-26T07:34:39.181Z</time></trkpt><trkpt lat="43.4084976" lon="11.1432845"><ele>177.0</ele><time>2026-04-26T07:34:40.179Z</time></trkpt><trkpt lat="43.4084227" lon="11.1432353"><ele>177.0</ele><time>2026-04-26T07:34:41.231Z</time></trkpt><trkpt lat="43.4083442" lon="11.143202"><ele>177.0</ele><time>2026-04-26T07:34:42.186Z</time></trkpt><trkpt lat="43.408266" lon="11.1431759"><ele>176.33333333333334</ele><time>2026-04-26T07:34:43.232Z</time></trkpt><trkpt lat="43.4081856" lon="11.1431664"><ele>175.66666666666666</ele><time>2026-04-26T07:34:44.186Z</time></trkpt><trkpt lat="43.408099" lon="11.1431611"><ele>175.0</ele><time>2026-04-26T07:34:45.194Z</time></trkpt><trkpt lat="43.4080121" lon="11.1431567"><ele>174.33333333333331</ele><time>2026-04-26T07:34:46.219Z</time></trkpt><trkpt lat="43.4079212" lon="11.1431554"><ele>173.66666666666666</ele><time>2026-04-26T07:34:47.172Z</time></trkpt><trkpt lat="43.4078316" lon="11.1431549"><ele>173.0</ele><time>2026-04-26T07:34:48.243Z</time></trkpt><trkpt lat="43.4077387" lon="11.1431359"><ele>173.0</ele><time>2026-04-26T07:34:49.18Z</time></trkpt><trkpt lat="43.4076496" lon="11.1431055"><ele>173.0</ele><time>2026-04-26T07:34:50.196Z</time></trkpt><trkpt lat="43.4075606" lon="11.1430684"><ele>173.0</ele><time>2026-04-26T07:34:51.228Z</time></trkpt><trkpt lat="43.4074741" lon="11.1430152"><ele>173.0</ele><time>2026-04-26T07:34:52.198Z</time></trkpt><trkpt lat="43.4073953" lon="11.1429463"><ele>173.0</ele><time>2026-04-26T07:34:53.225Z</time></trkpt><trkpt lat="43.4073258" lon="11.1428558"><ele>173.0</ele><time>2026-04-26T07:34:54.178Z</time></trkpt><trkpt lat="43.4072661" lon="11.1427583"><ele>173.0</ele><time>2026-04-26T07:34:55.175Z</time></trkpt><trkpt lat="43.4072165" lon="11.1426529"><ele>173.0</ele><time>2026-04-26T07:34:56.22Z</time></trkpt><trkpt lat="43.4071721" lon="11.1425416"><ele>173.0</ele><time>2026-04-26T07:34:57.19Z</time></trkpt><trkpt lat="43.4071362" lon="11.1424304"><ele>173.0</ele><time>2026-04-26T07:34:58.184Z</time></trkpt><trkpt lat="43.4071069" lon="11.1423166"><ele>172.83333333333331</ele><time>2026-04-26T07:34:59.174Z</time></trkpt><trkpt lat="43.4070803" lon="11.1422061"><ele>172.66666666666666</ele><time>2026-04-26T07:35:00.184Z</time></trkpt><trkpt lat="43.4070552" lon="11.1420913"><ele>172.5</ele><time>2026-04-26T07:35:01.187Z</time></trkpt><trkpt lat="43.4070282" lon="11.1419798"><ele>172.33333333333334</ele><time>2026-04-26T07:35:02.227Z</time></trkpt><trkpt lat="43.4069997" lon="11.1418726"><ele>172.16666666666669</ele><time>2026-04-26T07:35:03.191Z</time></trkpt><trkpt lat="43.4069784" lon="11.1417642"><ele>172.0</ele><time>2026-04-26T07:35:04.19Z</time></trkpt><trkpt lat="43.4069546" lon="11.1416572"><ele>172.00000000000003</ele><time>2026-04-26T07:35:05.189Z</time></trkpt><trkpt lat="43.4069317" lon="11.1415547"><ele>172.0</ele><time>2026-04-26T07:35:06.235Z</time></trkpt><trkpt lat="43.4069064" lon="11.1414541"><ele>172.0</ele><time>2026-04-26T07:35:07.231Z</time></trkpt><trkpt lat="43.406883" lon="11.1413551"><ele>172.0</ele><time>2026-04-26T07:35:08.192Z</time></trkpt><trkpt lat="43.406861" lon="11.1412586"><ele>172.0</ele><time>2026-04-26T07:35:09.193Z</time></trkpt><trkpt lat="43.4068375" lon="11.1411647"><ele>172.00000000000003</ele><time>2026-04-26T07:35:10.192Z</time></trkpt><trkpt lat="43.4068154" lon="11.1410716"><ele>172.0</ele><time>2026-04-26T07:35:11.232Z</time></trkpt><trkpt lat="43.4067923" lon="11.140979"><ele>171.57142857142858</ele><time>2026-04-26T07:35:12.232Z</time></trkpt><trkpt lat="43.4067719" lon="11.140886"><ele>171.14285714285714</ele><time>2026-04-26T07:35:13.195Z</time></trkpt><trkpt lat="43.4067505" lon="11.1407979"><ele>170.71428571428572</ele><time>2026-04-26T07:35:14.185Z</time></trkpt><trkpt lat="43.4067281" lon="11.1407128"><ele>170.28571428571428</ele><time>2026-04-26T07:35:15.182Z</time></trkpt><trkpt lat="43.4067054" lon="11.1406248"><ele>169.85714285714286</ele><time>2026-04-26T07:35:16.192Z</time></trkpt><trkpt lat="43.4066816" lon="11.1405382"><ele>169.42857142857144</ele><time>2026-04-26T07:35:17.233Z</time></trkpt><trkpt lat="43.4066552" lon="11.1404515"><ele>169.0</ele><time>2026-04-26T07:35:18.233Z</time></trkpt><trkpt lat="43.4066222" lon="11.1403711"><ele>169.0</ele><time>2026-04-26T07:35:19.187Z</time></trkpt><trkpt lat="43.4065881" lon="11.1402942"><ele>169.0</ele><time>2026-04-26T07:35:20.189Z</time></trkpt><trkpt lat="43.4065505" lon="11.14022"><ele>169.0</ele><time>2026-04-26T07:35:21.179Z</time></trkpt><trkpt lat="43.4065133" lon="11.1401447"><ele>169.0</ele><time>2026-04-26T07:35:22.182Z</time></trkpt><trkpt lat="43.4064739" lon="11.1400723"><ele>169.0</ele><time>2026-04-26T07:35:23.174Z</time></trkpt><trkpt lat="43.4064343" lon="11.1399959"><ele>169.0</ele><time>2026-04-26T07:35:24.179Z</time></trkpt><trkpt lat="43.4063948" lon="11.1399263"><ele>169.0</ele><time>2026-04-26T07:35:25.184Z</time></trkpt><trkpt lat="43.4063542" lon="11.1398553"><ele>169.0</ele><time>2026-04-26T07:35:26.183Z</time></trkpt><trkpt lat="43.4063127" lon="11.1397864"><ele>169.0</ele><time>2026-04-26T07:35:27.176Z</time></trkpt><trkpt lat="43.4062735" lon="11.1397185"><ele>169.0</ele><time>2026-04-26T07:35:28.187Z</time></trkpt><trkpt lat="43.4062339" lon="11.1396468"><ele>169.0</ele><time>2026-04-26T07:35:29.185Z</time></trkpt><trkpt lat="43.4061946" lon="11.1395773"><ele>169.0</ele><time>2026-04-26T07:35:30.185Z</time></trkpt><trkpt lat="43.4061584" lon="11.1395038"><ele>169.0</ele><time>2026-04-26T07:35:31.19Z</time></trkpt><trkpt lat="43.4061187" lon="11.1394333"><ele>169.0</ele><time>2026-04-26T07:35:32.193Z</time></trkpt><trkpt lat="43.4060394" lon="11.1393019"><ele>169.0</ele><time>2026-04-26T07:35:34.19Z</time></trkpt><trkpt lat="43.4059638" lon="11.1391703"><ele>169.0</ele><time>2026-04-26T07:35:36.193Z</time></trkpt><trkpt lat="43.4058838" lon="11.1390477"><ele>169.0</ele><time>2026-04-26T07:35:38.219Z</time></trkpt><trkpt lat="43.405805" lon="11.1389166"><ele>169.0</ele><time>2026-04-26T07:35:40.184Z</time></trkpt><trkpt lat="43.4057218" lon="11.138796"><ele>169.0</ele><time>2026-04-26T07:35:42.193Z</time></trkpt><trkpt lat="43.4056498" lon="11.138663"><ele>169.0</ele><time>2026-04-26T07:35:44.189Z</time></trkpt><trkpt lat="43.4055758" lon="11.1385367"><ele>169.0</ele><time>2026-04-26T07:35:46.231Z</time></trkpt><trkpt lat="43.4054926" lon="11.1384059"><ele>169.0</ele><time>2026-04-26T07:35:48.232Z</time></trkpt><trkpt lat="43.4054164" lon="11.1382742"><ele>169.5</ele><time>2026-04-26T07:35:50.188Z</time></trkpt><trkpt lat="43.4053387" lon="11.1381526"><ele>170.0</ele><time>2026-04-26T07:35:52.2Z</time></trkpt><trkpt lat="43.4052626" lon="11.1380314"><ele>170.5</ele><time>2026-04-26T07:35:54.187Z</time></trkpt><trkpt lat="43.405185" lon="11.137907"><ele>171.0</ele><time>2026-04-26T07:35:56.194Z</time></trkpt><trkpt lat="43.4051102" lon="11.1377856"><ele>171.0</ele><time>2026-04-26T07:35:58.241Z</time></trkpt><trkpt lat="43.4050391" lon="11.1376681"><ele>171.0</ele><time>2026-04-26T07:36:00.189Z</time></trkpt><trkpt lat="43.4049609" lon="11.1375424"><ele>171.0</ele><time>2026-04-26T07:36:02.188Z</time></trkpt><trkpt lat="43.4048951" lon="11.1374017"><ele>171.0</ele><time>2026-04-26T07:36:04.187Z</time></trkpt><trkpt lat="43.404851" lon="11.137339"><ele>171.0</ele><time>2026-04-26T07:36:05.183Z</time></trkpt><trkpt lat="43.4048102" lon="11.1372644"><ele>171.16666666666666</ele><time>2026-04-26T07:36:06.19Z</time></trkpt><trkpt lat="43.404771" lon="11.1371957"><ele>171.33333333333334</ele><time>2026-04-26T07:36:07.185Z</time></trkpt><trkpt lat="43.4047275" lon="11.1371299"><ele>171.5</ele><time>2026-04-26T07:36:08.224Z</time></trkpt><trkpt lat="43.4046871" lon="11.1370632"><ele>171.66666666666669</ele><time>2026-04-26T07:36:09.188Z</time></trkpt><trkpt lat="43.4046103" lon="11.1369359"><ele>171.83333333333334</ele><time>2026-04-26T07:36:11.193Z</time></trkpt><trkpt lat="43.4045303" lon="11.1368118"><ele>172.0</ele><time>2026-04-26T07:36:13.231Z</time></trkpt><trkpt lat="43.4044506" lon="11.1366893"><ele>172.0</ele><time>2026-04-26T07:36:15.19Z</time></trkpt><trkpt lat="43.4043664" lon="11.136587"><ele>172.0</ele><time>2026-04-26T07:36:17.189Z</time></trkpt><trkpt lat="43.4042726" lon="11.1364989"><ele>172.0</ele><time>2026-04-26T07:36:19.19Z</time></trkpt><trkpt lat="43.404171" lon="11.1364112"><ele>172.0</ele><time>2026-04-26T07:36:21.23Z</time></trkpt><trkpt lat="43.4040827" lon="11.1363227"><ele>172.39999999999998</ele><time>2026-04-26T07:36:23.222Z</time></trkpt><trkpt lat="43.4039825" lon="11.1362494"><ele>172.79999999999998</ele><time>2026-04-26T07:36:25.2Z</time></trkpt><trkpt lat="43.4038879" lon="11.1361832"><ele>173.2</ele><time>2026-04-26T07:36:27.211Z</time></trkpt><trkpt lat="43.4037919" lon="11.1361263"><ele>173.6</ele><time>2026-04-26T07:36:29.19Z</time></trkpt><trkpt lat="43.4037007" lon="11.1360765"><ele>174.0</ele><time>2026-04-26T07:36:31.224Z</time></trkpt><trkpt lat="43.4036134" lon="11.1360268"><ele>174.0</ele><time>2026-04-26T07:36:33.241Z</time></trkpt><trkpt lat="43.4035266" lon="11.1359778"><ele>174.0</ele><time>2026-04-26T07:36:35.189Z</time></trkpt><trkpt lat="43.4034423" lon="11.1359277"><ele>174.0</ele><time>2026-04-26T07:36:37.184Z</time></trkpt><trkpt lat="43.4033646" lon="11.1358849"><ele>174.0</ele><time>2026-04-26T07:36:39.191Z</time></trkpt><trkpt lat="43.4032903" lon="11.1358393"><ele>174.0</ele><time>2026-04-26T07:36:41.189Z</time></trkpt><trkpt lat="43.4032227" lon="11.1357879"><ele>174.0</ele><time>2026-04-26T07:36:43.186Z</time></trkpt><trkpt lat="43.4031595" lon="11.1357229"><ele>174.2</ele><time>2026-04-26T07:36:45.188Z</time></trkpt><trkpt lat="43.4031147" lon="11.1356273"><ele>174.39999999999998</ele><time>2026-04-26T07:36:47.178Z</time></trkpt><trkpt lat="43.4031028" lon="11.1355148"><ele>174.6</ele><time>2026-04-26T07:36:49.213Z</time></trkpt><trkpt lat="43.4031584" lon="11.1353953"><ele>174.8</ele><time>2026-04-26T07:36:51.185Z</time></trkpt><trkpt lat="43.4031905" lon="11.1352692"><ele>175.0</ele><time>2026-04-26T07:36:53.187Z</time></trkpt><trkpt lat="43.4032289" lon="11.1351313"><ele>175.0</ele><time>2026-04-26T07:36:55.19Z</time></trkpt><trkpt lat="43.4032606" lon="11.1349972"><ele>175.0</ele><time>2026-04-26T07:36:57.196Z</time></trkpt><trkpt lat="43.403286" lon="11.1348795"><ele>175.0</ele><time>2026-04-26T07:36:59.191Z</time></trkpt><trkpt lat="43.4033101" lon="11.1347755"><ele>175.0</ele><time>2026-04-26T07:37:01.18Z</time></trkpt><trkpt lat="43.4033538" lon="11.1346783"><ele>175.0</ele><time>2026-04-26T07:37:03.186Z</time></trkpt><trkpt lat="43.4033984" lon="11.1345825"><ele>175.0</ele><time>2026-04-26T07:37:05.188Z</time></trkpt><trkpt lat="43.4034514" lon="11.134506"><ele>174.85714285714286</ele><time>2026-04-26T07:37:07.186Z</time></trkpt><trkpt lat="43.4035134" lon="11.1344586"><ele>174.71428571428572</ele><time>2026-04-26T07:37:09.183Z</time></trkpt><trkpt lat="43.4035759" lon="11.1344211"><ele>174.57142857142856</ele><time>2026-04-26T07:37:11.184Z</time></trkpt><trkpt lat="43.4036408" lon="11.1343963"><ele>174.42857142857144</ele><time>2026-04-26T07:37:13.172Z</time></trkpt><trkpt lat="43.4037035" lon="11.134379"><ele>174.28571428571428</ele><time>2026-04-26T07:37:15.173Z</time></trkpt><trkpt lat="43.4037704" lon="11.1343588"><ele>174.14285714285714</ele><time>2026-04-26T07:37:17.239Z</time></trkpt><trkpt lat="43.4038354" lon="11.1343387"><ele>174.0</ele><time>2026-04-26T07:37:19.192Z</time></trkpt><trkpt lat="43.4039098" lon="11.1343113"><ele>173.79999999999998</ele><time>2026-04-26T07:37:21.228Z</time></trkpt><trkpt lat="43.4040005" lon="11.134287"><ele>173.6</ele><time>2026-04-26T07:37:23.219Z</time></trkpt><trkpt lat="43.4041019" lon="11.1342549"><ele>173.4</ele><time>2026-04-26T07:37:25.192Z</time></trkpt><trkpt lat="43.4042194" lon="11.134217"><ele>173.2</ele><time>2026-04-26T07:37:27.201Z</time></trkpt><trkpt lat="43.4043418" lon="11.1341794"><ele>173.0</ele><time>2026-04-26T07:37:29.191Z</time></trkpt><trkpt lat="43.4044041" lon="11.134159"><ele>173.0</ele><time>2026-04-26T07:37:30.193Z</time></trkpt><trkpt lat="43.4044663" lon="11.1341396"><ele>173.0</ele><time>2026-04-26T07:37:31.185Z</time></trkpt><trkpt lat="43.4045282" lon="11.1341233"><ele>173.0</ele><time>2026-04-26T07:37:32.224Z</time></trkpt><trkpt lat="43.404591" lon="11.1341142"><ele>173.0</ele><time>2026-04-26T07:37:33.198Z</time></trkpt><trkpt lat="43.404709" lon="11.134088"><ele>173.0</ele><time>2026-04-26T07:37:35.188Z</time></trkpt><trkpt lat="43.404829" lon="11.134075"><ele>173.0</ele><time>2026-04-26T07:37:37.194Z</time></trkpt><trkpt lat="43.4049512" lon="11.1340621"><ele>175.0</ele><time>2026-04-26T07:37:39.198Z</time></trkpt><trkpt lat="43.4050697" lon="11.1340436"><ele>177.0</ele><time>2026-04-26T07:37:41.189Z</time></trkpt><trkpt lat="43.4051915" lon="11.1340274"><ele>179.0</ele><time>2026-04-26T07:37:43.185Z</time></trkpt><trkpt lat="43.4053095" lon="11.1340037"><ele>181.0</ele><time>2026-04-26T07:37:45.184Z</time></trkpt><trkpt lat="43.4054293" lon="11.1339953"><ele>181.0</ele><time>2026-04-26T07:37:47.226Z</time></trkpt><trkpt lat="43.4055479" lon="11.1339877"><ele>181.0</ele><time>2026-04-26T07:37:49.183Z</time></trkpt><trkpt lat="43.4056671" lon="11.1339729"><ele>181.0</ele><time>2026-04-26T07:37:51.177Z</time></trkpt><trkpt lat="43.4057802" lon="11.1339582"><ele>181.0</ele><time>2026-04-26T07:37:53.17Z</time></trkpt><trkpt lat="43.4059011" lon="11.1339367"><ele>181.0</ele><time>2026-04-26T07:37:55.175Z</time></trkpt><trkpt lat="43.4060232" lon="11.1339142"><ele>181.0</ele><time>2026-04-26T07:37:57.172Z</time></trkpt><trkpt lat="43.4060876" lon="11.1338991"><ele>181.0</ele><time>2026-04-26T07:37:58.18Z</time></trkpt><trkpt lat="43.4061529" lon="11.1338878"><ele>181.0</ele><time>2026-04-26T07:37:59.173Z</time></trkpt><trkpt lat="43.4062186" lon="11.1338732"><ele>181.0</ele><time>2026-04-26T07:38:00.177Z</time></trkpt><trkpt lat="43.4063445" lon="11.1338376"><ele>181.0</ele><time>2026-04-26T07:38:02.177Z</time></trkpt><trkpt lat="43.4064063" lon="11.133815"><ele>179.57142857142856</ele><time>2026-04-26T07:38:03.179Z</time></trkpt><trkpt lat="43.4064706" lon="11.1337919"><ele>178.14285714285714</ele><time>2026-04-26T07:38:04.175Z</time></trkpt><trkpt lat="43.4065341" lon="11.1337691"><ele>176.71428571428572</ele><time>2026-04-26T07:38:05.179Z</time></trkpt><trkpt lat="43.4066021" lon="11.1337458"><ele>175.28571428571428</ele><time>2026-04-26T07:38:06.184Z</time></trkpt><trkpt lat="43.40667" lon="11.1337203"><ele>173.85714285714286</ele><time>2026-04-26T07:38:07.181Z</time></trkpt><trkpt lat="43.4067403" lon="11.1336967"><ele>172.42857142857142</ele><time>2026-04-26T07:38:08.184Z</time></trkpt><trkpt lat="43.4068094" lon="11.1336771"><ele>171.0</ele><time>2026-04-26T07:38:09.183Z</time></trkpt><trkpt lat="43.4068736" lon="11.133681"><ele>171.0</ele><time>2026-04-26T07:38:10.176Z</time></trkpt><trkpt lat="43.4070031" lon="11.13371"><ele>171.0</ele><time>2026-04-26T07:38:12.19Z</time></trkpt><trkpt lat="43.4070805" lon="11.1337172"><ele>171.0</ele><time>2026-04-26T07:38:13.189Z</time></trkpt><trkpt lat="43.4071761" lon="11.1337066"><ele>171.0</ele><time>2026-04-26T07:38:14.176Z</time></trkpt><trkpt lat="43.407264" lon="11.1336779"><ele>171.0</ele><time>2026-04-26T07:38:15.185Z</time></trkpt><trkpt lat="43.4073671" lon="11.1336479"><ele>170.0</ele><time>2026-04-26T07:38:16.182Z</time></trkpt><trkpt lat="43.4074682" lon="11.1336178"><ele>169.0</ele><time>2026-04-26T07:38:17.183Z</time></trkpt><trkpt lat="43.4075633" lon="11.1335922"><ele>168.0</ele><time>2026-04-26T07:38:18.185Z</time></trkpt><trkpt lat="43.4076596" lon="11.1335669"><ele>167.0</ele><time>2026-04-26T07:38:19.189Z</time></trkpt><trkpt lat="43.4077533" lon="11.1335552"><ele>166.0</ele><time>2026-04-26T07:38:20.185Z</time></trkpt><trkpt lat="43.4078463" lon="11.133552"><ele>166.0</ele><time>2026-04-26T07:38:21.184Z</time></trkpt><trkpt lat="43.4079344" lon="11.1335435"><ele>166.0</ele><time>2026-04-26T07:38:22.185Z</time></trkpt><trkpt lat="43.40802" lon="11.1335393"><ele>166.0</ele><time>2026-04-26T07:38:23.184Z</time></trkpt><trkpt lat="43.4080999" lon="11.1335286"><ele>166.0</ele><time>2026-04-26T07:38:24.19Z</time></trkpt><trkpt lat="43.4081817" lon="11.1335215"><ele>166.0</ele><time>2026-04-26T07:38:25.186Z</time></trkpt><trkpt lat="43.4083361" lon="11.133492"><ele>165.5</ele><time>2026-04-26T07:38:27.221Z</time></trkpt><trkpt lat="43.4084137" lon="11.1334768"><ele>165.0</ele><time>2026-04-26T07:38:28.191Z</time></trkpt><trkpt lat="43.4084852" lon="11.1334716"><ele>164.5</ele><time>2026-04-26T07:38:29.185Z</time></trkpt><trkpt lat="43.4085566" lon="11.1334559"><ele>164.0</ele><time>2026-04-26T07:38:30.226Z</time></trkpt><trkpt lat="43.4086246" lon="11.1334412"><ele>163.5</ele><time>2026-04-26T07:38:31.223Z</time></trkpt><trkpt lat="43.4086886" lon="11.1334323"><ele>163.0</ele><time>2026-04-26T07:38:32.227Z</time></trkpt><trkpt lat="43.4088023" lon="11.1334163"><ele>163.5</ele><time>2026-04-26T07:38:34.186Z</time></trkpt><trkpt lat="43.4089089" lon="11.1333984"><ele>164.0</ele><time>2026-04-26T07:38:36.228Z</time></trkpt><trkpt lat="43.4089951" lon="11.1333633"><ele>164.5</ele><time>2026-04-26T07:38:38.182Z</time></trkpt><trkpt lat="43.4090646" lon="11.1333019"><ele>165.0</ele><time>2026-04-26T07:38:40.179Z</time></trkpt><trkpt lat="43.4091412" lon="11.1332759"><ele>165.5</ele><time>2026-04-26T07:38:42.198Z</time></trkpt><trkpt lat="43.4091985" lon="11.1332368"><ele>166.0</ele><time>2026-04-26T07:38:44.127Z</time></trkpt><trkpt lat="43.4092936" lon="11.1332416"><ele>166.0</ele><time>2026-04-26T07:38:46.185Z</time></trkpt><trkpt lat="43.4094038" lon="11.1332346"><ele>166.0</ele><time>2026-04-26T07:38:48.189Z</time></trkpt><trkpt lat="43.4094992" lon="11.1332552"><ele>166.0</ele><time>2026-04-26T07:38:50.182Z</time></trkpt><trkpt lat="43.4095567" lon="11.1333216"><ele>166.0</ele><time>2026-04-26T07:38:52.182Z</time></trkpt><trkpt lat="43.409621" lon="11.1333903"><ele>166.0</ele><time>2026-04-26T07:38:54.182Z</time></trkpt><trkpt lat="43.409701" lon="11.1333912"><ele>166.0</ele><time>2026-04-26T07:38:56.193Z</time></trkpt><trkpt lat="43.4097662" lon="11.1332973"><ele>166.8</ele><time>2026-04-26T07:38:58.193Z</time></trkpt><trkpt lat="43.4098284" lon="11.1331974"><ele>167.60000000000002</ele><time>2026-04-26T07:39:00.186Z</time></trkpt><trkpt lat="43.4099051" lon="11.133123"><ele>168.4</ele><time>2026-04-26T07:39:02.214Z</time></trkpt><trkpt lat="43.4099908" lon="11.13311"><ele>169.2</ele><time>2026-04-26T07:39:04.179Z</time></trkpt><trkpt lat="43.4100836" lon="11.1330898"><ele>170.0</ele><time>2026-04-26T07:39:06.182Z</time></trkpt><trkpt lat="43.4101782" lon="11.1330674"><ele>170.0</ele><time>2026-04-26T07:39:08.209Z</time></trkpt><trkpt lat="43.4102721" lon="11.1330553"><ele>170.0</ele><time>2026-04-26T07:39:10.204Z</time></trkpt><trkpt lat="43.4103683" lon="11.133046"><ele>170.0</ele><time>2026-04-26T07:39:12.232Z</time></trkpt><trkpt lat="43.4104644" lon="11.1330289"><ele>170.0</ele><time>2026-04-26T07:39:14.187Z</time></trkpt><trkpt lat="43.4105642" lon="11.1330093"><ele>170.0</ele><time>2026-04-26T07:39:16.201Z</time></trkpt><trkpt lat="43.4106639" lon="11.1329759"><ele>169.8</ele><time>2026-04-26T07:39:18.188Z</time></trkpt><trkpt lat="43.4107666" lon="11.132978"><ele>169.6</ele><time>2026-04-26T07:39:20.19Z</time></trkpt><trkpt lat="43.410865" lon="11.133005"><ele>169.39999999999998</ele><time>2026-04-26T07:39:22.182Z</time></trkpt><trkpt lat="43.4109482" lon="11.1329479"><ele>169.2</ele><time>2026-04-26T07:39:24.188Z</time></trkpt><trkpt lat="43.410946" lon="11.1328069"><ele>169.0</ele><time>2026-04-26T07:39:26.182Z</time></trkpt><trkpt lat="43.4109024" lon="11.1326877"><ele>169.0</ele><time>2026-04-26T07:39:28.191Z</time></trkpt><trkpt lat="43.4108638" lon="11.1325802"><ele>169.0</ele><time>2026-04-26T07:39:30.188Z</time></trkpt><trkpt lat="43.4108288" lon="11.1324674"><ele>169.0</ele><time>2026-04-26T07:39:32.188Z</time></trkpt><trkpt lat="43.4107902" lon="11.1323544"><ele>169.0</ele><time>2026-04-26T07:39:34.188Z</time></trkpt><trkpt lat="43.4107538" lon="11.1322464"><ele>169.0</ele><time>2026-04-26T07:39:36.184Z</time></trkpt><trkpt lat="43.4107212" lon="11.1321449"><ele>169.0</ele><time>2026-04-26T07:39:38.188Z</time></trkpt><trkpt lat="43.4106957" lon="11.1320537"><ele>169.28571428571428</ele><time>2026-04-26T07:39:40.174Z</time></trkpt><trkpt lat="43.4106716" lon="11.1319732"><ele>169.57142857142856</ele><time>2026-04-26T07:39:42.184Z</time></trkpt><trkpt lat="43.4106394" lon="11.1318695"><ele>169.85714285714283</ele><time>2026-04-26T07:39:45.186Z</time></trkpt><trkpt lat="43.4106092" lon="11.1317799"><ele>170.14285714285714</ele><time>2026-04-26T07:39:48.183Z</time></trkpt><trkpt lat="43.4105769" lon="11.1316902"><ele>170.42857142857142</ele><time>2026-04-26T07:39:52.103Z</time></trkpt><trkpt lat="43.410548" lon="11.1315941"><ele>170.7142857142857</ele><time>2026-04-26T07:39:57.19Z</time></trkpt><trkpt lat="43.4105164" lon="11.1314962"><ele>171.0</ele><time>2026-04-26T07:40:02.171Z</time></trkpt><trkpt lat="43.4104891" lon="11.1314102"><ele>172.28571428571428</ele><time>2026-04-26T07:40:07.183Z</time></trkpt><trkpt lat="43.4104551" lon="11.1313199"><ele>173.57142857142856</ele><time>2026-04-26T07:40:12.085Z</time></trkpt><trkpt lat="43.4104302" lon="11.1312346"><ele>174.85714285714283</ele><time>2026-04-26T07:40:17.177Z</time></trkpt><trkpt lat="43.4103949" lon="11.1311404"><ele>176.14285714285714</ele><time>2026-04-26T07:40:22.177Z</time></trkpt><trkpt lat="43.4103691" lon="11.131057"><ele>177.42857142857144</ele><time>2026-04-26T07:40:26.183Z</time></trkpt><trkpt lat="43.4103413" lon="11.1309621"><ele>178.7142857142857</ele><time>2026-04-26T07:40:31.186Z</time></trkpt><trkpt lat="43.4103113" lon="11.1308644"><ele>180.0</ele><time>2026-04-26T07:40:36.182Z</time></trkpt><trkpt lat="43.4102712" lon="11.1307749"><ele>181.0</ele><time>2026-04-26T07:40:40.184Z</time></trkpt><trkpt lat="43.4102465" lon="11.1306942"><ele>182.0</ele><time>2026-04-26T07:40:45.102Z</time></trkpt><trkpt lat="43.410223" lon="11.13061"><ele>183.0</ele><time>2026-04-26T07:40:49.182Z</time></trkpt><trkpt lat="43.4101962" lon="11.1305231"><ele>184.0</ele><time>2026-04-26T07:40:54.17Z</time></trkpt><trkpt lat="43.4101627" lon="11.1304287"><ele>185.0</ele><time>2026-04-26T07:41:00.181Z</time></trkpt><trkpt lat="43.4101321" lon="11.1303353"><ele>186.0</ele><time>2026-04-26T07:41:06.139Z</time></trkpt><trkpt lat="43.4101033" lon="11.1302457"><ele>187.0</ele><time>2026-04-26T07:41:11.866Z</time></trkpt><trkpt lat="43.4100707" lon="11.1301643"><ele>187.0</ele><time>2026-04-26T07:41:17.188Z</time></trkpt><trkpt lat="43.4100406" lon="11.130066"><ele>187.0</ele><time>2026-04-26T07:41:24.179Z</time></trkpt><trkpt lat="43.4100102" lon="11.1299787"><ele>187.0</ele><time>2026-04-26T07:41:29.178Z</time></trkpt><trkpt lat="43.409981" lon="11.129888"><ele>187.0</ele><time>2026-04-26T07:41:35.189Z</time></trkpt><trkpt lat="43.4099579" lon="11.1298009"><ele>187.0</ele><time>2026-04-26T07:41:41.207Z</time></trkpt><trkpt lat="43.4099233" lon="11.1297182"><ele>187.0</ele><time>2026-04-26T07:41:49.147Z</time></trkpt><trkpt lat="43.4098939" lon="11.1296313"><ele>187.0</ele><time>2026-04-26T07:41:55.18Z</time></trkpt><trkpt lat="43.4098856" lon="11.1295409"><ele>187.7142857142857</ele><time>2026-04-26T07:42:00.182Z</time></trkpt><trkpt lat="43.40987" lon="11.1294457"><ele>188.42857142857144</ele><time>2026-04-26T07:42:06.182Z</time></trkpt><trkpt lat="43.4098776" lon="11.1293333"><ele>189.14285714285714</ele><time>2026-04-26T07:42:12.187Z</time></trkpt><trkpt lat="43.4098845" lon="11.1292389"><ele>189.85714285714283</ele><time>2026-04-26T07:42:17.184Z</time></trkpt><trkpt lat="43.4099025" lon="11.1291412"><ele>190.57142857142856</ele><time>2026-04-26T07:42:21.19Z</time></trkpt><trkpt lat="43.4099143" lon="11.1290404"><ele>191.28571428571428</ele><time>2026-04-26T07:42:26.179Z</time></trkpt><trkpt lat="43.4099093" lon="11.1289491"><ele>192.0</ele><time>2026-04-26T07:42:31.182Z</time></trkpt><trkpt lat="43.4098814" lon="11.1288565"><ele>192.66666666666666</ele><time>2026-04-26T07:42:35.19Z</time></trkpt><trkpt lat="43.4098467" lon="11.1287665"><ele>193.33333333333331</ele><time>2026-04-26T07:42:40.175Z</time></trkpt><trkpt lat="43.4098528" lon="11.1286589"><ele>194.0</ele><time>2026-04-26T07:42:45.182Z</time></trkpt><trkpt lat="43.4099017" lon="11.1285742"><ele>194.66666666666666</ele><time>2026-04-26T07:42:49.181Z</time></trkpt><trkpt lat="43.4099516" lon="11.1284969"><ele>195.33333333333331</ele><time>2026-04-26T07:42:52.178Z</time></trkpt><trkpt lat="43.4099985" lon="11.1284051"><ele>196.0</ele><time>2026-04-26T07:42:55.193Z</time></trkpt><trkpt lat="43.410052" lon="11.1283263"><ele>196.0</ele><time>2026-04-26T07:42:58.171Z</time></trkpt><trkpt lat="43.4101028" lon="11.128235"><ele>196.0</ele><time>2026-04-26T07:43:01.178Z</time></trkpt><trkpt lat="43.4101044" lon="11.1281421"><ele>196.0</ele><time>2026-04-26T07:43:03.177Z</time></trkpt><trkpt lat="43.4100858" lon="11.1280314"><ele>196.0</ele><time>2026-04-26T07:43:06.197Z</time></trkpt><trkpt lat="43.4100859" lon="11.1279425"><ele>196.0</ele><time>2026-04-26T07:43:08.182Z</time></trkpt><trkpt lat="43.4101242" lon="11.1278609"><ele>196.0</ele><time>2026-04-26T07:43:10.182Z</time></trkpt><trkpt lat="43.4101544" lon="11.1277716"><ele>196.0</ele><time>2026-04-26T07:43:13.181Z</time></trkpt><trkpt lat="43.4101929" lon="11.1276728"><ele>196.83333333333331</ele><time>2026-04-26T07:43:17.186Z</time></trkpt><trkpt lat="43.4102273" lon="11.1275813"><ele>197.66666666666666</ele><time>2026-04-26T07:43:21.185Z</time></trkpt><trkpt lat="43.4102436" lon="11.1274699"><ele>198.5</ele><time>2026-04-26T07:43:25.195Z</time></trkpt><trkpt lat="43.4102311" lon="11.127373"><ele>199.33333333333331</ele><time>2026-04-26T07:43:28.184Z</time></trkpt><trkpt lat="43.410191" lon="11.1272889"><ele>200.16666666666666</ele><time>2026-04-26T07:43:31.184Z</time></trkpt><trkpt lat="43.4101229" lon="11.1272137"><ele>201.0</ele><time>2026-04-26T07:43:34.187Z</time></trkpt><trkpt lat="43.4100634" lon="11.1271448"><ele>201.66666666666666</ele><time>2026-04-26T07:43:37.18Z</time></trkpt><trkpt lat="43.4100124" lon="11.1270699"><ele>202.33333333333331</ele><time>2026-04-26T07:43:40.191Z</time></trkpt><trkpt lat="43.409937" lon="11.1269886"><ele>203.0</ele><time>2026-04-26T07:43:43.184Z</time></trkpt><trkpt lat="43.4098841" lon="11.1269248"><ele>203.66666666666666</ele><time>2026-04-26T07:43:45.185Z</time></trkpt><trkpt lat="43.4098357" lon="11.1268664"><ele>204.33333333333331</ele><time>2026-04-26T07:43:46.959Z</time></trkpt><trkpt lat="43.4097722" lon="11.1267943"><ele>205.0</ele><time>2026-04-26T07:43:49.179Z</time></trkpt><trkpt lat="43.4097169" lon="11.1267314"><ele>205.0</ele><time>2026-04-26T07:43:51.185Z</time></trkpt><trkpt lat="43.4096683" lon="11.1266753"><ele>205.0</ele><time>2026-04-26T07:43:53.187Z</time></trkpt><trkpt lat="43.4095942" lon="11.1266018"><ele>205.0</ele><time>2026-04-26T07:43:56.19Z</time></trkpt><trkpt lat="43.4095435" lon="11.1265431"><ele>205.0</ele><time>2026-04-26T07:43:58.188Z</time></trkpt><trkpt lat="43.4094909" lon="11.1264841"><ele>205.0</ele><time>2026-04-26T07:44:00.183Z</time></trkpt><trkpt lat="43.4094159" lon="11.1264137"><ele>205.0</ele><time>2026-04-26T07:44:03.182Z</time></trkpt><trkpt lat="43.4093656" lon="11.1263606"><ele>205.0</ele><time>2026-04-26T07:44:05.182Z</time></trkpt><trkpt lat="43.4092954" lon="11.1262728"><ele>205.49999999999997</ele><time>2026-04-26T07:44:08.181Z</time></trkpt><trkpt lat="43.4092577" lon="11.1262012"><ele>206.0</ele><time>2026-04-26T07:44:10.184Z</time></trkpt><trkpt lat="43.409226" lon="11.1260858"><ele>206.5</ele><time>2026-04-26T07:44:13.189Z</time></trkpt><trkpt lat="43.4092277" lon="11.1259566"><ele>207.0</ele><time>2026-04-26T07:44:16.185Z</time></trkpt><trkpt lat="43.4092464" lon="11.1258336"><ele>207.49999999999997</ele><time>2026-04-26T07:44:19.189Z</time></trkpt><trkpt lat="43.4092759" lon="11.1257185"><ele>208.0</ele><time>2026-04-26T07:44:22.188Z</time></trkpt><trkpt lat="43.4093058" lon="11.1256006"><ele>208.33333333333331</ele><time>2026-04-26T07:44:25.186Z</time></trkpt><trkpt lat="43.4093256" lon="11.1255181"><ele>208.66666666666666</ele><time>2026-04-26T07:44:27.187Z</time></trkpt><trkpt lat="43.4093536" lon="11.1253979"><ele>209.0</ele><time>2026-04-26T07:44:30.183Z</time></trkpt><trkpt lat="43.4093834" lon="11.1252855"><ele>209.33333333333331</ele><time>2026-04-26T07:44:33.182Z</time></trkpt><trkpt lat="43.4094002" lon="11.1251998"><ele>209.66666666666666</ele><time>2026-04-26T07:44:35.182Z</time></trkpt><trkpt lat="43.4094245" lon="11.1250751"><ele>210.0</ele><time>2026-04-26T07:44:38.19Z</time></trkpt><trkpt lat="43.4094531" lon="11.1249565"><ele>210.5</ele><time>2026-04-26T07:44:41.187Z</time></trkpt><trkpt lat="43.4094816" lon="11.124837"><ele>211.0</ele><time>2026-04-26T07:44:44.189Z</time></trkpt><trkpt lat="43.4094977" lon="11.1247199"><ele>211.5</ele><time>2026-04-26T07:44:47.188Z</time></trkpt><trkpt lat="43.4095123" lon="11.1246347"><ele>212.0</ele><time>2026-04-26T07:44:49.172Z</time></trkpt><trkpt lat="43.4095257" lon="11.1245499"><ele>212.5</ele><time>2026-04-26T07:44:51.187Z</time></trkpt><trkpt lat="43.4095488" lon="11.124422"><ele>213.0</ele><time>2026-04-26T07:44:54.191Z</time></trkpt><trkpt lat="43.409579" lon="11.124337"><ele>212.99999999999997</ele><time>2026-04-26T07:44:56.184Z</time></trkpt><trkpt lat="43.4095875" lon="11.1242467"><ele>213.0</ele><time>2026-04-26T07:44:58.182Z</time></trkpt><trkpt lat="43.4096155" lon="11.1241482"><ele>213.0</ele><time>2026-04-26T07:45:01.188Z</time></trkpt><trkpt lat="43.4096339" lon="11.1240622"><ele>213.0</ele><time>2026-04-26T07:45:03.185Z</time></trkpt><trkpt lat="43.4096314" lon="11.1239613"><ele>213.0</ele><time>2026-04-26T07:45:05.184Z</time></trkpt><trkpt lat="43.4096256" lon="11.1238648"><ele>212.99999999999997</ele><time>2026-04-26T07:45:07.184Z</time></trkpt><trkpt lat="43.4096123" lon="11.1237611"><ele>213.0</ele><time>2026-04-26T07:45:09.173Z</time></trkpt><trkpt lat="43.409576" lon="11.1236705"><ele>212.83333333333334</ele><time>2026-04-26T07:45:11.183Z</time></trkpt><trkpt lat="43.4095345" lon="11.1235839"><ele>212.66666666666669</ele><time>2026-04-26T07:45:13.184Z</time></trkpt><trkpt lat="43.4094817" lon="11.1235036"><ele>212.5</ele><time>2026-04-26T07:45:15.192Z</time></trkpt><trkpt lat="43.4094224" lon="11.1234414"><ele>212.33333333333334</ele><time>2026-04-26T07:45:17.194Z</time></trkpt><trkpt lat="43.4093482" lon="11.1233904"><ele>212.16666666666669</ele><time>2026-04-26T07:45:19.181Z</time></trkpt><trkpt lat="43.4092717" lon="11.1233484"><ele>212.0</ele><time>2026-04-26T07:45:21.192Z</time></trkpt><trkpt lat="43.4091541" lon="11.1233029"><ele>212.00000000000003</ele><time>2026-04-26T07:45:24.194Z</time></trkpt><trkpt lat="43.4090751" lon="11.1232731"><ele>212.0</ele><time>2026-04-26T07:45:26.178Z</time></trkpt><trkpt lat="43.4089978" lon="11.123238"><ele>212.0</ele><time>2026-04-26T07:45:28.194Z</time></trkpt><trkpt lat="43.4089212" lon="11.1232098"><ele>212.0</ele><time>2026-04-26T07:45:30.185Z</time></trkpt><trkpt lat="43.4088407" lon="11.1231816"><ele>212.00000000000003</ele><time>2026-04-26T07:45:32.179Z</time></trkpt><trkpt lat="43.4087613" lon="11.1231475"><ele>212.0</ele><time>2026-04-26T07:45:34.18Z</time></trkpt><trkpt lat="43.4086816" lon="11.1231158"><ele>211.50000000000003</ele><time>2026-04-26T07:45:36.184Z</time></trkpt><trkpt lat="43.4086002" lon="11.123088"><ele>211.0</ele><time>2026-04-26T07:45:38.187Z</time></trkpt><trkpt lat="43.4085165" lon="11.1230498"><ele>210.5</ele><time>2026-04-26T07:45:40.186Z</time></trkpt><trkpt lat="43.4084344" lon="11.1230171"><ele>210.0</ele><time>2026-04-26T07:45:42.184Z</time></trkpt><trkpt lat="43.4083512" lon="11.1229854"><ele>209.50000000000003</ele><time>2026-04-26T07:45:44.183Z</time></trkpt><trkpt lat="43.4082673" lon="11.1229555"><ele>209.0</ele><time>2026-04-26T07:45:46.179Z</time></trkpt><trkpt lat="43.4081832" lon="11.1229252"><ele>209.00000000000003</ele><time>2026-04-26T07:45:48.182Z</time></trkpt><trkpt lat="43.4080987" lon="11.1228864"><ele>209.0</ele><time>2026-04-26T07:45:50.184Z</time></trkpt><trkpt lat="43.4080133" lon="11.1228513"><ele>209.0</ele><time>2026-04-26T07:45:52.184Z</time></trkpt><trkpt lat="43.4079289" lon="11.122817"><ele>209.0</ele><time>2026-04-26T07:45:54.173Z</time></trkpt><trkpt lat="43.4078447" lon="11.1227931"><ele>209.00000000000003</ele><time>2026-04-26T07:45:56.185Z</time></trkpt><trkpt lat="43.4077624" lon="11.1227573"><ele>209.0</ele><time>2026-04-26T07:45:58.186Z</time></trkpt><trkpt lat="43.4076788" lon="11.1227255"><ele>209.33333333333334</ele><time>2026-04-26T07:46:00.181Z</time></trkpt><trkpt lat="43.4075961" lon="11.1226926"><ele>209.66666666666669</ele><time>2026-04-26T07:46:02.183Z</time></trkpt><trkpt lat="43.4075133" lon="11.1226575"><ele>210.0</ele><time>2026-04-26T07:46:04.183Z</time></trkpt><trkpt lat="43.4074282" lon="11.122622"><ele>210.33333333333331</ele><time>2026-04-26T07:46:06.182Z</time></trkpt><trkpt lat="43.407345" lon="11.1225857"><ele>210.66666666666666</ele><time>2026-04-26T07:46:08.184Z</time></trkpt><trkpt lat="43.4072625" lon="11.1225513"><ele>211.0</ele><time>2026-04-26T07:46:10.181Z</time></trkpt><trkpt lat="43.4071803" lon="11.1225346"><ele>210.99999999999997</ele><time>2026-04-26T07:46:12.183Z</time></trkpt><trkpt lat="43.4071012" lon="11.1224968"><ele>211.0</ele><time>2026-04-26T07:46:14.11Z</time></trkpt><trkpt lat="43.4070131" lon="11.1224605"><ele>211.0</ele><time>2026-04-26T07:46:16.177Z</time></trkpt><trkpt lat="43.4069251" lon="11.1224262"><ele>211.0</ele><time>2026-04-26T07:46:18.174Z</time></trkpt><trkpt lat="43.4068372" lon="11.1223889"><ele>210.99999999999997</ele><time>2026-04-26T07:46:20.174Z</time></trkpt><trkpt lat="43.4067527" lon="11.1223574"><ele>211.0</ele><time>2026-04-26T07:46:22.194Z</time></trkpt><trkpt lat="43.4066625" lon="11.1223264"><ele>210.99999999999997</ele><time>2026-04-26T07:46:24.185Z</time></trkpt><trkpt lat="43.4065797" lon="11.1222919"><ele>211.0</ele><time>2026-04-26T07:46:26.186Z</time></trkpt><trkpt lat="43.4064967" lon="11.1222787"><ele>211.0</ele><time>2026-04-26T07:46:28.173Z</time></trkpt><trkpt lat="43.4064052" lon="11.1222756"><ele>211.0</ele><time>2026-04-26T07:46:31.177Z</time></trkpt><trkpt lat="43.4063603" lon="11.1222126"><ele>210.99999999999997</ele><time>2026-04-26T07:46:32.182Z</time></trkpt><trkpt lat="43.4063138" lon="11.1220713"><ele>211.0</ele><time>2026-04-26T07:46:34.186Z</time></trkpt><trkpt lat="43.4063014" lon="11.1219481"><ele>211.0</ele><time>2026-04-26T07:46:36.188Z</time></trkpt><trkpt lat="43.406308" lon="11.1218284"><ele>211.0</ele><time>2026-04-26T07:46:38.185Z</time></trkpt><trkpt lat="43.4063528" lon="11.121711"><ele>211.0</ele><time>2026-04-26T07:46:40.185Z</time></trkpt><trkpt lat="43.4063235" lon="11.1215895"><ele>211.0</ele><time>2026-04-26T07:46:43.175Z</time></trkpt><trkpt lat="43.4064345" lon="11.1216176"><ele>211.0</ele><time>2026-04-26T07:46:44.185Z</time></trkpt><trkpt lat="43.4065029" lon="11.1215291"><ele>211.16666666666666</ele><time>2026-04-26T07:46:46.183Z</time></trkpt><trkpt lat="43.406524" lon="11.121425"><ele>211.33333333333331</ele><time>2026-04-26T07:46:48.124Z</time></trkpt><trkpt lat="43.4065446" lon="11.1213164"><ele>211.5</ele><time>2026-04-26T07:46:50.182Z</time></trkpt><trkpt lat="43.4065767" lon="11.1212201"><ele>211.66666666666669</ele><time>2026-04-26T07:46:52.189Z</time></trkpt><trkpt lat="43.4066081" lon="11.1211259"><ele>211.83333333333334</ele><time>2026-04-26T07:46:54.185Z</time></trkpt><trkpt lat="43.4066318" lon="11.121026"><ele>212.0</ele><time>2026-04-26T07:46:56.181Z</time></trkpt><trkpt lat="43.4066593" lon="11.1209259"><ele>212.00000000000003</ele><time>2026-04-26T07:46:58.105Z</time></trkpt><trkpt lat="43.4066924" lon="11.1208237"><ele>212.0</ele><time>2026-04-26T07:47:00.006Z</time></trkpt><trkpt lat="43.4067259" lon="11.1207094"><ele>212.0</ele><time>2026-04-26T07:47:02.181Z</time></trkpt><trkpt lat="43.4067584" lon="11.1206054"><ele>212.0</ele><time>2026-04-26T07:47:04.194Z</time></trkpt><trkpt lat="43.4067813" lon="11.1205023"><ele>212.00000000000003</ele><time>2026-04-26T07:47:06.181Z</time></trkpt><trkpt lat="43.4068105" lon="11.120403"><ele>212.0</ele><time>2026-04-26T07:47:08.18Z</time></trkpt><trkpt lat="43.4068311" lon="11.120297"><ele>211.83333333333334</ele><time>2026-04-26T07:47:10.188Z</time></trkpt><trkpt lat="43.4068508" lon="11.1201909"><ele>211.66666666666669</ele><time>2026-04-26T07:47:12.164Z</time></trkpt><trkpt lat="43.406883" lon="11.1200857"><ele>211.5</ele><time>2026-04-26T07:47:14.178Z</time></trkpt><trkpt lat="43.4069231" lon="11.1199861"><ele>211.33333333333331</ele><time>2026-04-26T07:47:16.183Z</time></trkpt><trkpt lat="43.4069555" lon="11.1198822"><ele>211.16666666666666</ele><time>2026-04-26T07:47:18.182Z</time></trkpt><trkpt lat="43.4069917" lon="11.1197805"><ele>211.0</ele><time>2026-04-26T07:47:20.183Z</time></trkpt><trkpt lat="43.4070204" lon="11.1196731"><ele>210.99999999999997</ele><time>2026-04-26T07:47:22.195Z</time></trkpt><trkpt lat="43.4070495" lon="11.1195696"><ele>211.0</ele><time>2026-04-26T07:47:24.184Z</time></trkpt><trkpt lat="43.4070769" lon="11.119465"><ele>211.0</ele><time>2026-04-26T07:47:26.183Z</time></trkpt><trkpt lat="43.4071022" lon="11.1193634"><ele>211.0</ele><time>2026-04-26T07:47:28.15Z</time></trkpt><trkpt lat="43.4071271" lon="11.1192606"><ele>210.99999999999997</ele><time>2026-04-26T07:47:30.121Z</time></trkpt><trkpt lat="43.4071576" lon="11.1191551"><ele>211.0</ele><time>2026-04-26T07:47:32.185Z</time></trkpt><trkpt lat="43.4071853" lon="11.1190523"><ele>211.49999999999997</ele><time>2026-04-26T07:47:34.184Z</time></trkpt><trkpt lat="43.4072185" lon="11.1189564"><ele>212.0</ele><time>2026-04-26T07:47:36.103Z</time></trkpt><trkpt lat="43.4072637" lon="11.1188579"><ele>212.5</ele><time>2026-04-26T07:47:38.198Z</time></trkpt><trkpt lat="43.4073126" lon="11.1187747"><ele>213.0</ele><time>2026-04-26T07:47:40.203Z</time></trkpt><trkpt lat="43.4073584" lon="11.1186912"><ele>213.49999999999997</ele><time>2026-04-26T07:47:42.182Z</time></trkpt><trkpt lat="43.4074014" lon="11.1186052"><ele>214.0</ele><time>2026-04-26T07:47:44.198Z</time></trkpt><trkpt lat="43.4074396" lon="11.1185178"><ele>213.99999999999997</ele><time>2026-04-26T07:47:46.178Z</time></trkpt><trkpt lat="43.4074769" lon="11.1184315"><ele>214.0</ele><time>2026-04-26T07:47:48.184Z</time></trkpt><trkpt lat="43.4075131" lon="11.1183432"><ele>214.0</ele><time>2026-04-26T07:47:50.116Z</time></trkpt><trkpt lat="43.4075537" lon="11.1182466"><ele>214.0</ele><time>2026-04-26T07:47:52.17Z</time></trkpt><trkpt lat="43.4075987" lon="11.1181536"><ele>213.99999999999997</ele><time>2026-04-26T07:47:54.191Z</time></trkpt><trkpt lat="43.4076427" lon="11.1180697"><ele>214.0</ele><time>2026-04-26T07:47:56.194Z</time></trkpt><trkpt lat="43.4076859" lon="11.1179862"><ele>214.00000000000003</ele><time>2026-04-26T07:47:58.196Z</time></trkpt><trkpt lat="43.4077291" lon="11.117902"><ele>214.0</ele><time>2026-04-26T07:48:00.197Z</time></trkpt><trkpt lat="43.4077684" lon="11.1178129"><ele>214.0</ele><time>2026-04-26T07:48:02.193Z</time></trkpt><trkpt lat="43.4078017" lon="11.117728"><ele>214.0</ele><time>2026-04-26T07:48:04.19Z</time></trkpt><trkpt lat="43.407842" lon="11.1176407"><ele>214.0</ele><time>2026-04-26T07:48:06.194Z</time></trkpt><trkpt lat="43.4078782" lon="11.1175553"><ele>214.00000000000003</ele><time>2026-04-26T07:48:08.179Z</time></trkpt><trkpt lat="43.4079202" lon="11.1174749"><ele>214.0</ele><time>2026-04-26T07:48:10.192Z</time></trkpt><trkpt lat="43.4079612" lon="11.117387"><ele>214.83333333333331</ele><time>2026-04-26T07:48:12.188Z</time></trkpt><trkpt lat="43.4080045" lon="11.1172993"><ele>215.66666666666666</ele><time>2026-04-26T07:48:14.188Z</time></trkpt><trkpt lat="43.4080525" lon="11.1172188"><ele>216.5</ele><time>2026-04-26T07:48:16.189Z</time></trkpt><trkpt lat="43.4081038" lon="11.1171406"><ele>217.33333333333331</ele><time>2026-04-26T07:48:18.182Z</time></trkpt><trkpt lat="43.408157" lon="11.1170653"><ele>218.16666666666666</ele><time>2026-04-26T07:48:20.191Z</time></trkpt><trkpt lat="43.408216" lon="11.117001"><ele>219.0</ele><time>2026-04-26T07:48:22.187Z</time></trkpt><trkpt lat="43.4082772" lon="11.116939"><ele>219.0</ele><time>2026-04-26T07:48:24.177Z</time></trkpt><trkpt lat="43.4083411" lon="11.116883"><ele>219.0</ele><time>2026-04-26T07:48:26.214Z</time></trkpt><trkpt lat="43.4084042" lon="11.1168279"><ele>219.0</ele><time>2026-04-26T07:48:28.184Z</time></trkpt><trkpt lat="43.4084807" lon="11.1167612"><ele>219.0</ele><time>2026-04-26T07:48:31.134Z</time></trkpt><trkpt lat="43.4085209" lon="11.1166502"><ele>219.0</ele><time>2026-04-26T07:48:34.188Z</time></trkpt><trkpt lat="43.4085146" lon="11.1165487"><ele>219.0</ele><time>2026-04-26T07:48:36.189Z</time></trkpt><trkpt lat="43.4085044" lon="11.1164339"><ele>219.0</ele><time>2026-04-26T07:48:38.189Z</time></trkpt><trkpt lat="43.4084865" lon="11.116329"><ele>219.0</ele><time>2026-04-26T07:48:40.191Z</time></trkpt><trkpt lat="43.4084782" lon="11.1162312"><ele>219.0</ele><time>2026-04-26T07:48:42.184Z</time></trkpt><trkpt lat="43.4084795" lon="11.1161442"><ele>219.0</ele><time>2026-04-26T07:48:44.186Z</time></trkpt><trkpt lat="43.4084785" lon="11.1160526"><ele>219.0</ele><time>2026-04-26T07:48:46.116Z</time></trkpt><trkpt lat="43.4084653" lon="11.1159566"><ele>219.0</ele><time>2026-04-26T07:48:48.189Z</time></trkpt><trkpt lat="43.4084354" lon="11.1158619"><ele>219.0</ele><time>2026-04-26T07:48:50.107Z</time></trkpt><trkpt lat="43.4083834" lon="11.1157527"><ele>219.39999999999998</ele><time>2026-04-26T07:48:52.186Z</time></trkpt><trkpt lat="43.4083297" lon="11.1156406"><ele>219.79999999999998</ele><time>2026-04-26T07:48:54.192Z</time></trkpt><trkpt lat="43.4082782" lon="11.1155419"><ele>220.20000000000002</ele><time>2026-04-26T07:48:56.187Z</time></trkpt><trkpt lat="43.4082318" lon="11.1154004"><ele>220.60000000000002</ele><time>2026-04-26T07:48:58.189Z</time></trkpt><trkpt lat="43.408192" lon="11.1152867"><ele>221.0</ele><time>2026-04-26T07:49:00.213Z</time></trkpt><trkpt lat="43.4081318" lon="11.1151811"><ele>221.00000000000003</ele><time>2026-04-26T07:49:02.19Z</time></trkpt><trkpt lat="43.4080834" lon="11.1150762"><ele>221.0</ele><time>2026-04-26T07:49:04.191Z</time></trkpt><trkpt lat="43.4080421" lon="11.1149704"><ele>221.0</ele><time>2026-04-26T07:49:06.184Z</time></trkpt><trkpt lat="43.4079982" lon="11.1148831"><ele>221.0</ele><time>2026-04-26T07:49:08.186Z</time></trkpt><trkpt lat="43.4079649" lon="11.1148035"><ele>221.00000000000003</ele><time>2026-04-26T07:49:10.184Z</time></trkpt><trkpt lat="43.407931" lon="11.1146859"><ele>221.0</ele><time>2026-04-26T07:49:13.192Z</time></trkpt><trkpt lat="43.4079" lon="11.1145805"><ele>221.33333333333334</ele><time>2026-04-26T07:49:16.199Z</time></trkpt><trkpt lat="43.4078819" lon="11.1144943"><ele>221.66666666666669</ele><time>2026-04-26T07:49:18.192Z</time></trkpt><trkpt lat="43.407856" lon="11.1144134"><ele>222.0</ele><time>2026-04-26T07:49:20.189Z</time></trkpt><trkpt lat="43.4078138" lon="11.114299"><ele>222.33333333333331</ele><time>2026-04-26T07:49:23.192Z</time></trkpt><trkpt lat="43.4077676" lon="11.1141951"><ele>222.66666666666666</ele><time>2026-04-26T07:49:26.183Z</time></trkpt><trkpt lat="43.4077323" lon="11.1141213"><ele>223.0</ele><time>2026-04-26T07:49:28.192Z</time></trkpt><trkpt lat="43.4076775" lon="11.1140201"><ele>223.66666666666666</ele><time>2026-04-26T07:49:31.183Z</time></trkpt><trkpt lat="43.4076168" lon="11.1139182"><ele>224.33333333333331</ele><time>2026-04-26T07:49:34.182Z</time></trkpt><trkpt lat="43.4075609" lon="11.1138095"><ele>225.0</ele><time>2026-04-26T07:49:37.188Z</time></trkpt><trkpt lat="43.4075223" lon="11.1137337"><ele>225.66666666666669</ele><time>2026-04-26T07:49:39.184Z</time></trkpt><trkpt lat="43.4074845" lon="11.1136579"><ele>226.33333333333334</ele><time>2026-04-26T07:49:41.104Z</time></trkpt><trkpt lat="43.4074402" lon="11.1135744"><ele>227.0</ele><time>2026-04-26T07:49:43.187Z</time></trkpt><trkpt lat="43.4074103" lon="11.1134871"><ele>227.00000000000003</ele><time>2026-04-26T07:49:45.188Z</time></trkpt><trkpt lat="43.4073799" lon="11.1133991"><ele>227.0</ele><time>2026-04-26T07:49:47.187Z</time></trkpt><trkpt lat="43.407339" lon="11.1133054"><ele>227.0</ele><time>2026-04-26T07:49:49.598Z</time></trkpt><trkpt lat="43.4073001" lon="11.113195"><ele>227.0</ele><time>2026-04-26T07:49:52.188Z</time></trkpt><trkpt lat="43.4072693" lon="11.1131046"><ele>227.00000000000003</ele><time>2026-04-26T07:49:54.189Z</time></trkpt><trkpt lat="43.4072341" lon="11.1130121"><ele>227.0</ele><time>2026-04-26T07:49:56.177Z</time></trkpt><trkpt lat="43.407198" lon="11.1129202"><ele>226.71428571428572</ele><time>2026-04-26T07:49:58.191Z</time></trkpt><trkpt lat="43.4071596" lon="11.1128294"><ele>226.42857142857144</ele><time>2026-04-26T07:50:00.188Z</time></trkpt><trkpt lat="43.4071204" lon="11.1127479"><ele>226.14285714285717</ele><time>2026-04-26T07:50:02.188Z</time></trkpt><trkpt lat="43.407087" lon="11.1126692"><ele>225.8571428571429</ele><time>2026-04-26T07:50:04.184Z</time></trkpt><trkpt lat="43.4070375" lon="11.1125565"><ele>225.57142857142858</ele><time>2026-04-26T07:50:07.18Z</time></trkpt><trkpt lat="43.4070093" lon="11.1124696"><ele>225.28571428571433</ele><time>2026-04-26T07:50:09.187Z</time></trkpt><trkpt lat="43.4069856" lon="11.1123795"><ele>225.00000000000003</ele><time>2026-04-26T07:50:11.189Z</time></trkpt><trkpt lat="43.4069692" lon="11.1122861"><ele>225.0</ele><time>2026-04-26T07:50:13.185Z</time></trkpt><trkpt lat="43.406958" lon="11.1121886"><ele>225.0</ele><time>2026-04-26T07:50:15.197Z</time></trkpt><trkpt lat="43.4069356" lon="11.1120816"><ele>225.0</ele><time>2026-04-26T07:50:17.192Z</time></trkpt><trkpt lat="43.4069088" lon="11.1119815"><ele>225.0</ele><time>2026-04-26T07:50:19.084Z</time></trkpt><trkpt lat="43.4068782" lon="11.1118678"><ele>225.0</ele><time>2026-04-26T07:50:21.184Z</time></trkpt><trkpt lat="43.4068465" lon="11.1117643"><ele>225.0</ele><time>2026-04-26T07:50:23.18Z</time></trkpt><trkpt lat="43.4068212" lon="11.1116572"><ele>225.33333333333334</ele><time>2026-04-26T07:50:25.184Z</time></trkpt><trkpt lat="43.4067894" lon="11.1115562"><ele>225.66666666666669</ele><time>2026-04-26T07:50:27.188Z</time></trkpt><trkpt lat="43.4067715" lon="11.1114516"><ele>226.0</ele><time>2026-04-26T07:50:29.184Z</time></trkpt><trkpt lat="43.406744" lon="11.1113462"><ele>226.33333333333334</ele><time>2026-04-26T07:50:31.189Z</time></trkpt><trkpt lat="43.406722" lon="11.1112387"><ele>226.66666666666669</ele><time>2026-04-26T07:50:33.191Z</time></trkpt><trkpt lat="43.4067073" lon="11.1111285"><ele>227.0</ele><time>2026-04-26T07:50:35.187Z</time></trkpt><trkpt lat="43.4066913" lon="11.1110202"><ele>227.00000000000003</ele><time>2026-04-26T07:50:37.182Z</time></trkpt><trkpt lat="43.406678" lon="11.1109114"><ele>227.0</ele><time>2026-04-26T07:50:39.187Z</time></trkpt><trkpt lat="43.406664" lon="11.1108055"><ele>227.0</ele><time>2026-04-26T07:50:41.185Z</time></trkpt><trkpt lat="43.406643" lon="11.1107052"><ele>227.0</ele><time>2026-04-26T07:50:43.186Z</time></trkpt><trkpt lat="43.4066245" lon="11.1106015"><ele>227.00000000000003</ele><time>2026-04-26T07:50:45.18Z</time></trkpt><trkpt lat="43.4066152" lon="11.1104948"><ele>227.0</ele><time>2026-04-26T07:50:47.187Z</time></trkpt><trkpt lat="43.4066" lon="11.1103899"><ele>227.0</ele><time>2026-04-26T07:50:49.181Z</time></trkpt><trkpt lat="43.4065887" lon="11.1102869"><ele>227.00000000000003</ele><time>2026-04-26T07:50:51.192Z</time></trkpt><trkpt lat="43.4065823" lon="11.1101863"><ele>227.0</ele><time>2026-04-26T07:50:53.182Z</time></trkpt><trkpt lat="43.4065812" lon="11.1100833"><ele>227.0</ele><time>2026-04-26T07:50:55.191Z</time></trkpt><trkpt lat="43.406581" lon="11.1099796"><ele>227.00000000000003</ele><time>2026-04-26T07:50:57.192Z</time></trkpt><trkpt lat="43.4065835" lon="11.1098852"><ele>227.0</ele><time>2026-04-26T07:50:59.175Z</time></trkpt><trkpt lat="43.4065849" lon="11.1097953"><ele>227.0</ele><time>2026-04-26T07:51:01.171Z</time></trkpt><trkpt lat="43.4065907" lon="11.1096726"><ele>227.0</ele><time>2026-04-26T07:51:04.186Z</time></trkpt><trkpt lat="43.4065909" lon="11.1095766"><ele>227.00000000000003</ele><time>2026-04-26T07:51:07.174Z</time></trkpt><trkpt lat="43.4066036" lon="11.1094653"><ele>227.0</ele><time>2026-04-26T07:51:11.176Z</time></trkpt><trkpt lat="43.4066082" lon="11.1093428"><ele>227.0</ele><time>2026-04-26T07:51:14.176Z</time></trkpt><trkpt lat="43.4066132" lon="11.1092547"><ele>227.00000000000003</ele><time>2026-04-26T07:51:16.187Z</time></trkpt><trkpt lat="43.406615" lon="11.109161"><ele>227.0</ele><time>2026-04-26T07:51:18.18Z</time></trkpt><trkpt lat="43.4066193" lon="11.1090671"><ele>227.0</ele><time>2026-04-26T07:51:20.181Z</time></trkpt><trkpt lat="43.4066205" lon="11.1089657"><ele>227.0</ele><time>2026-04-26T07:51:22.192Z</time></trkpt><trkpt lat="43.4066257" lon="11.1088663"><ele>227.00000000000003</ele><time>2026-04-26T07:51:24.194Z</time></trkpt><trkpt lat="43.4066336" lon="11.1087729"><ele>227.0</ele><time>2026-04-26T07:51:26.184Z</time></trkpt><trkpt lat="43.4066365" lon="11.1086806"><ele>227.0</ele><time>2026-04-26T07:51:28.184Z</time></trkpt><trkpt lat="43.4066358" lon="11.1085877"><ele>227.00000000000003</ele><time>2026-04-26T07:51:30.185Z</time></trkpt><trkpt lat="43.4066375" lon="11.1084967"><ele>227.0</ele><time>2026-04-26T07:51:32.187Z</time></trkpt><trkpt lat="43.406635" lon="11.1084041"><ele>227.0</ele><time>2026-04-26T07:51:34.188Z</time></trkpt><trkpt lat="43.4066322" lon="11.1083096"><ele>227.14285714285717</ele><time>2026-04-26T07:51:36.179Z</time></trkpt><trkpt lat="43.4066324" lon="11.1082166"><ele>227.2857142857143</ele><time>2026-04-26T07:51:38.185Z</time></trkpt><trkpt lat="43.4066232" lon="11.1080931"><ele>227.42857142857144</ele><time>2026-04-26T07:51:41.182Z</time></trkpt><trkpt lat="43.4066163" lon="11.1080051"><ele>227.57142857142856</ele><time>2026-04-26T07:51:43.19Z</time></trkpt><trkpt lat="43.4066222" lon="11.1078764"><ele>227.7142857142857</ele><time>2026-04-26T07:51:46.177Z</time></trkpt><trkpt lat="43.4066307" lon="11.1077885"><ele>227.85714285714283</ele><time>2026-04-26T07:51:48.192Z</time></trkpt><trkpt lat="43.4066409" lon="11.1076949"><ele>228.0</ele><time>2026-04-26T07:51:50.187Z</time></trkpt><trkpt lat="43.4066543" lon="11.107604"><ele>228.0</ele><time>2026-04-26T07:51:52.188Z</time></trkpt><trkpt lat="43.4066683" lon="11.1075123"><ele>227.99999999999997</ele><time>2026-04-26T07:51:54.185Z</time></trkpt><trkpt lat="43.4066798" lon="11.1074176"><ele>228.0</ele><time>2026-04-26T07:51:56.188Z</time></trkpt><trkpt lat="43.4066916" lon="11.1073196"><ele>228.0</ele><time>2026-04-26T07:51:58.185Z</time></trkpt><trkpt lat="43.4067002" lon="11.1072194"><ele>227.99999999999997</ele><time>2026-04-26T07:52:00.189Z</time></trkpt><trkpt lat="43.4067159" lon="11.1071185"><ele>228.0</ele><time>2026-04-26T07:52:02.236Z</time></trkpt><trkpt lat="43.4067317" lon="11.1070294"><ele>228.0</ele><time>2026-04-26T07:52:04.194Z</time></trkpt><trkpt lat="43.4067459" lon="11.1069319"><ele>228.16666666666666</ele><time>2026-04-26T07:52:06.187Z</time></trkpt><trkpt lat="43.4067667" lon="11.1068293"><ele>228.33333333333331</ele><time>2026-04-26T07:52:08.194Z</time></trkpt><trkpt lat="43.4067929" lon="11.1067276"><ele>228.5</ele><time>2026-04-26T07:52:10.221Z</time></trkpt><trkpt lat="43.4068152" lon="11.1066234"><ele>228.66666666666666</ele><time>2026-04-26T07:52:12.184Z</time></trkpt><trkpt lat="43.4068402" lon="11.1065223"><ele>228.83333333333331</ele><time>2026-04-26T07:52:14.193Z</time></trkpt><trkpt lat="43.4068672" lon="11.1064207"><ele>229.0</ele><time>2026-04-26T07:52:16.198Z</time></trkpt><trkpt lat="43.4068949" lon="11.1063179"><ele>229.33333333333331</ele><time>2026-04-26T07:52:18.186Z</time></trkpt><trkpt lat="43.4069382" lon="11.1062238"><ele>229.66666666666666</ele><time>2026-04-26T07:52:20.186Z</time></trkpt><trkpt lat="43.4069947" lon="11.1061436"><ele>230.0</ele><time>2026-04-26T07:52:22.22Z</time></trkpt><trkpt lat="43.4070556" lon="11.106068"><ele>230.33333333333331</ele><time>2026-04-26T07:52:24.188Z</time></trkpt><trkpt lat="43.4071152" lon="11.1059904"><ele>230.66666666666666</ele><time>2026-04-26T07:52:26.194Z</time></trkpt><trkpt lat="43.4071759" lon="11.1059107"><ele>231.0</ele><time>2026-04-26T07:52:28.186Z</time></trkpt><trkpt lat="43.4072382" lon="11.1058325"><ele>231.0</ele><time>2026-04-26T07:52:30.189Z</time></trkpt><trkpt lat="43.4073" lon="11.1057509"><ele>231.0</ele><time>2026-04-26T07:52:32.181Z</time></trkpt><trkpt lat="43.4073628" lon="11.1056725"><ele>231.0</ele><time>2026-04-26T07:52:34.188Z</time></trkpt><trkpt lat="43.407425" lon="11.10559"><ele>231.0</ele><time>2026-04-26T07:52:36.198Z</time></trkpt><trkpt lat="43.4074867" lon="11.1055111"><ele>231.0</ele><time>2026-04-26T07:52:38.19Z</time></trkpt><trkpt lat="43.4075498" lon="11.1054335"><ele>231.0</ele><time>2026-04-26T07:52:40.183Z</time></trkpt><trkpt lat="43.4076118" lon="11.1053563"><ele>231.0</ele><time>2026-04-26T07:52:42.189Z</time></trkpt><trkpt lat="43.4076717" lon="11.1052806"><ele>231.0</ele><time>2026-04-26T07:52:44.192Z</time></trkpt><trkpt lat="43.4077337" lon="11.1052043"><ele>231.0</ele><time>2026-04-26T07:52:46.186Z</time></trkpt><trkpt lat="43.4077943" lon="11.1051269"><ele>231.0</ele><time>2026-04-26T07:52:48.191Z</time></trkpt><trkpt lat="43.4078545" lon="11.1050527"><ele>231.0</ele><time>2026-04-26T07:52:50.188Z</time></trkpt><trkpt lat="43.4079103" lon="11.1049714"><ele>231.0</ele><time>2026-04-26T07:52:52.182Z</time></trkpt><trkpt lat="43.4079638" lon="11.1048852"><ele>231.16666666666666</ele><time>2026-04-26T07:52:54.19Z</time></trkpt><trkpt lat="43.4080185" lon="11.1047997"><ele>231.33333333333331</ele><time>2026-04-26T07:52:56.184Z</time></trkpt><trkpt lat="43.4080642" lon="11.1046992"><ele>231.5</ele><time>2026-04-26T07:52:58.193Z</time></trkpt><trkpt lat="43.4081029" lon="11.1045933"><ele>231.66666666666666</ele><time>2026-04-26T07:53:00.203Z</time></trkpt><trkpt lat="43.4081389" lon="11.1044856"><ele>231.83333333333331</ele><time>2026-04-26T07:53:02.184Z</time></trkpt><trkpt lat="43.4081724" lon="11.1043795"><ele>232.0</ele><time>2026-04-26T07:53:04.191Z</time></trkpt><trkpt lat="43.4082077" lon="11.1042766"><ele>231.99999999999997</ele><time>2026-04-26T07:53:06.227Z</time></trkpt><trkpt lat="43.4082388" lon="11.1041753"><ele>232.0</ele><time>2026-04-26T07:53:08.184Z</time></trkpt><trkpt lat="43.4082673" lon="11.1040643"><ele>232.0</ele><time>2026-04-26T07:53:10.191Z</time></trkpt><trkpt lat="43.4082816" lon="11.1039466"><ele>232.0</ele><time>2026-04-26T07:53:12.186Z</time></trkpt><trkpt lat="43.4083021" lon="11.1038363"><ele>231.99999999999997</ele><time>2026-04-26T07:53:14.188Z</time></trkpt><trkpt lat="43.408334" lon="11.1037226"><ele>232.0</ele><time>2026-04-26T07:53:16.191Z</time></trkpt><trkpt lat="43.4083528" lon="11.103614"><ele>231.99999999999997</ele><time>2026-04-26T07:53:18.189Z</time></trkpt><trkpt lat="43.4083756" lon="11.1034985"><ele>232.0</ele><time>2026-04-26T07:53:20.189Z</time></trkpt><trkpt lat="43.4083943" lon="11.1033768"><ele>232.0</ele><time>2026-04-26T07:53:22.185Z</time></trkpt><trkpt lat="43.4084233" lon="11.1032575"><ele>232.0</ele><time>2026-04-26T07:53:24.196Z</time></trkpt><trkpt lat="43.4084567" lon="11.1031426"><ele>231.99999999999997</ele><time>2026-04-26T07:53:26.238Z</time></trkpt><trkpt lat="43.40848" lon="11.1030241"><ele>232.0</ele><time>2026-04-26T07:53:28.192Z</time></trkpt><trkpt lat="43.408506" lon="11.1029148"><ele>231.99999999999997</ele><time>2026-04-26T07:53:30.189Z</time></trkpt><trkpt lat="43.4085297" lon="11.1028051"><ele>232.0</ele><time>2026-04-26T07:53:32.183Z</time></trkpt><trkpt lat="43.4085443" lon="11.1027038"><ele>232.0</ele><time>2026-04-26T07:53:34.178Z</time></trkpt><trkpt lat="43.4085578" lon="11.1025995"><ele>232.0</ele><time>2026-04-26T07:53:36.221Z</time></trkpt><trkpt lat="43.4085794" lon="11.1024937"><ele>231.99999999999997</ele><time>2026-04-26T07:53:38.19Z</time></trkpt><trkpt lat="43.4086033" lon="11.1023878"><ele>232.0</ele><time>2026-04-26T07:53:40.19Z</time></trkpt><trkpt lat="43.4086242" lon="11.1022788"><ele>231.99999999999997</ele><time>2026-04-26T07:53:42.185Z</time></trkpt><trkpt lat="43.4086443" lon="11.102171"><ele>232.0</ele><time>2026-04-26T07:53:44.178Z</time></trkpt><trkpt lat="43.4086565" lon="11.1020601"><ele>232.0</ele><time>2026-04-26T07:53:46.185Z</time></trkpt><trkpt lat="43.4086646" lon="11.1019452"><ele>232.0</ele><time>2026-04-26T07:53:48.187Z</time></trkpt><trkpt lat="43.4086712" lon="11.1018173"><ele>231.99999999999997</ele><time>2026-04-26T07:53:50.225Z</time></trkpt><trkpt lat="43.4086724" lon="11.1017056"><ele>232.0</ele><time>2026-04-26T07:53:52.22Z</time></trkpt><trkpt lat="43.4086684" lon="11.1015858"><ele>232.2</ele><time>2026-04-26T07:53:54.202Z</time></trkpt><trkpt lat="43.4086784" lon="11.1014519"><ele>232.39999999999998</ele><time>2026-04-26T07:53:56.195Z</time></trkpt><trkpt lat="43.4086871" lon="11.1013155"><ele>232.60000000000002</ele><time>2026-04-26T07:53:58.23Z</time></trkpt><trkpt lat="43.4086974" lon="11.1011786"><ele>232.8</ele><time>2026-04-26T07:54:00.231Z</time></trkpt><trkpt lat="43.4087098" lon="11.1010481"><ele>233.0</ele><time>2026-04-26T07:54:02.193Z</time></trkpt><trkpt lat="43.4087214" lon="11.1009197"><ele>233.00000000000003</ele><time>2026-04-26T07:54:04.193Z</time></trkpt><trkpt lat="43.4087356" lon="11.1007964"><ele>233.0</ele><time>2026-04-26T07:54:06.222Z</time></trkpt><trkpt lat="43.4087698" lon="11.1006887"><ele>233.0</ele><time>2026-04-26T07:54:08.186Z</time></trkpt><trkpt lat="43.4087983" lon="11.1005862"><ele>233.0</ele><time>2026-04-26T07:54:10.196Z</time></trkpt><trkpt lat="43.4088296" lon="11.1004889"><ele>233.00000000000003</ele><time>2026-04-26T07:54:12.189Z</time></trkpt><trkpt lat="43.4088562" lon="11.100406"><ele>233.0</ele><time>2026-04-26T07:54:14.185Z</time></trkpt><trkpt lat="43.4088658" lon="11.1002966"><ele>233.16666666666669</ele><time>2026-04-26T07:54:16.181Z</time></trkpt><trkpt lat="43.408887" lon="11.1001722"><ele>233.33333333333334</ele><time>2026-04-26T07:54:18.192Z</time></trkpt><trkpt lat="43.4089022" lon="11.1000746"><ele>233.5</ele><time>2026-04-26T07:54:20.139Z</time></trkpt><trkpt lat="43.4089226" lon="11.0999596"><ele>233.66666666666669</ele><time>2026-04-26T07:54:22.191Z</time></trkpt><trkpt lat="43.4089266" lon="11.0998474"><ele>233.83333333333334</ele><time>2026-04-26T07:54:24.19Z</time></trkpt><trkpt lat="43.4089334" lon="11.099699"><ele>234.0</ele><time>2026-04-26T07:54:27.183Z</time></trkpt><trkpt lat="43.4089523" lon="11.0996041"><ele>234.2</ele><time>2026-04-26T07:54:29.192Z</time></trkpt><trkpt lat="43.4090137" lon="11.0995548"><ele>234.39999999999998</ele><time>2026-04-26T07:54:31.185Z</time></trkpt><trkpt lat="43.409097" lon="11.0995816"><ele>234.6</ele><time>2026-04-26T07:54:33.18Z</time></trkpt><trkpt lat="43.4091831" lon="11.0996156"><ele>234.8</ele><time>2026-04-26T07:54:35.185Z</time></trkpt><trkpt lat="43.4092868" lon="11.0996127"><ele>235.0</ele><time>2026-04-26T07:54:37.196Z</time></trkpt><trkpt lat="43.4093886" lon="11.0996167"><ele>235.0</ele><time>2026-04-26T07:54:39.186Z</time></trkpt><trkpt lat="43.4094928" lon="11.099628"><ele>235.0</ele><time>2026-04-26T07:54:41.198Z</time></trkpt><trkpt lat="43.4095978" lon="11.0996344"><ele>235.0</ele><time>2026-04-26T07:54:43.192Z</time></trkpt><trkpt lat="43.4097004" lon="11.099643"><ele>235.0</ele><time>2026-04-26T07:54:45.193Z</time></trkpt><trkpt lat="43.4098061" lon="11.0996492"><ele>235.0</ele><time>2026-04-26T07:54:47.24Z</time></trkpt><trkpt lat="43.4098744" lon="11.0995437"><ele>234.4</ele><time>2026-04-26T07:54:49.195Z</time></trkpt><trkpt lat="43.4098787" lon="11.0993872"><ele>233.8</ele><time>2026-04-26T07:54:51.187Z</time></trkpt><trkpt lat="43.4098606" lon="11.0992398"><ele>233.2</ele><time>2026-04-26T07:54:53.178Z</time></trkpt><trkpt lat="43.4098627" lon="11.099082"><ele>232.6</ele><time>2026-04-26T07:54:55.22Z</time></trkpt><trkpt lat="43.4098758" lon="11.0989384"><ele>232.0</ele><time>2026-04-26T07:54:57.192Z</time></trkpt><trkpt lat="43.409901" lon="11.0987965"><ele>232.0</ele><time>2026-04-26T07:54:59.185Z</time></trkpt><trkpt lat="43.4099351" lon="11.0986546"><ele>232.0</ele><time>2026-04-26T07:55:01.196Z</time></trkpt><trkpt lat="43.4099721" lon="11.0985283"><ele>232.0</ele><time>2026-04-26T07:55:03.196Z</time></trkpt><trkpt lat="43.4100099" lon="11.0984085"><ele>232.0</ele><time>2026-04-26T07:55:05.19Z</time></trkpt><trkpt lat="43.4100445" lon="11.0982998"><ele>232.0</ele><time>2026-04-26T07:55:07.181Z</time></trkpt><trkpt lat="43.4100875" lon="11.0981922"><ele>232.66666666666666</ele><time>2026-04-26T07:55:09.194Z</time></trkpt><trkpt lat="43.4101248" lon="11.0980887"><ele>233.33333333333331</ele><time>2026-04-26T07:55:11.193Z</time></trkpt><trkpt lat="43.4101525" lon="11.0979934"><ele>234.0</ele><time>2026-04-26T07:55:13.179Z</time></trkpt><trkpt lat="43.4101808" lon="11.0978964"><ele>234.66666666666669</ele><time>2026-04-26T07:55:15.194Z</time></trkpt><trkpt lat="43.4101919" lon="11.097786"><ele>235.33333333333334</ele><time>2026-04-26T07:55:17.181Z</time></trkpt><trkpt lat="43.410231" lon="11.0976865"><ele>236.0</ele><time>2026-04-26T07:55:19.19Z</time></trkpt><trkpt lat="43.4102782" lon="11.0975934"><ele>236.00000000000003</ele><time>2026-04-26T07:55:21.191Z</time></trkpt><trkpt lat="43.4103256" lon="11.0974916"><ele>236.0</ele><time>2026-04-26T07:55:23.222Z</time></trkpt><trkpt lat="43.4103639" lon="11.0973759"><ele>236.0</ele><time>2026-04-26T07:55:25.19Z</time></trkpt><trkpt lat="43.4103878" lon="11.0972509"><ele>236.0</ele><time>2026-04-26T07:55:27.185Z</time></trkpt><trkpt lat="43.4104183" lon="11.0971362"><ele>236.00000000000003</ele><time>2026-04-26T07:55:29.196Z</time></trkpt><trkpt lat="43.4104308" lon="11.097022"><ele>236.0</ele><time>2026-04-26T07:55:31.192Z</time></trkpt><trkpt lat="43.4104443" lon="11.0969201"><ele>236.16666666666669</ele><time>2026-04-26T07:55:33.211Z</time></trkpt><trkpt lat="43.4104494" lon="11.096823"><ele>236.33333333333334</ele><time>2026-04-26T07:55:35.193Z</time></trkpt><trkpt lat="43.4104359" lon="11.0967167"><ele>236.5</ele><time>2026-04-26T07:55:37.176Z</time></trkpt><trkpt lat="43.4104213" lon="11.0966134"><ele>236.66666666666669</ele><time>2026-04-26T07:55:39.175Z</time></trkpt><trkpt lat="43.4104053" lon="11.0964998"><ele>236.83333333333334</ele><time>2026-04-26T07:55:41.182Z</time></trkpt><trkpt lat="43.410384" lon="11.0963896"><ele>237.0</ele><time>2026-04-26T07:55:43.175Z</time></trkpt><trkpt lat="43.4103658" lon="11.0963004"><ele>237.16666666666666</ele><time>2026-04-26T07:55:45.105Z</time></trkpt><trkpt lat="43.4103439" lon="11.0961895"><ele>237.33333333333331</ele><time>2026-04-26T07:55:48.177Z</time></trkpt><trkpt lat="43.4103307" lon="11.0960657"><ele>237.5</ele><time>2026-04-26T07:55:51.181Z</time></trkpt><trkpt lat="43.4103272" lon="11.0959696"><ele>237.66666666666666</ele><time>2026-04-26T07:55:53.166Z</time></trkpt><trkpt lat="43.4103273" lon="11.0958595"><ele>237.83333333333331</ele><time>2026-04-26T07:55:55.19Z</time></trkpt><trkpt lat="43.4103094" lon="11.0957565"><ele>238.0</ele><time>2026-04-26T07:55:56.236Z</time></trkpt><trkpt lat="43.4103077" lon="11.0956171"><ele>237.4</ele><time>2026-04-26T07:55:58.199Z</time></trkpt><trkpt lat="43.4103069" lon="11.0955156"><ele>236.8</ele><time>2026-04-26T07:55:59.191Z</time></trkpt><trkpt lat="43.4103215" lon="11.0953437"><ele>236.2</ele><time>2026-04-26T07:56:01.198Z</time></trkpt><trkpt lat="43.4103686" lon="11.0951982"><ele>235.6</ele><time>2026-04-26T07:56:03.199Z</time></trkpt><trkpt lat="43.4104123" lon="11.0950592"><ele>235.0</ele><time>2026-04-26T07:56:05.181Z</time></trkpt><trkpt lat="43.4104514" lon="11.0949365"><ele>235.16666666666666</ele><time>2026-04-26T07:56:07.23Z</time></trkpt><trkpt lat="43.4104884" lon="11.0948236"><ele>235.33333333333331</ele><time>2026-04-26T07:56:09.191Z</time></trkpt><trkpt lat="43.4105397" lon="11.0947386"><ele>235.5</ele><time>2026-04-26T07:56:11.172Z</time></trkpt><trkpt lat="43.4105919" lon="11.0946536"><ele>235.66666666666669</ele><time>2026-04-26T07:56:13.192Z</time></trkpt><trkpt lat="43.4106393" lon="11.0945693"><ele>235.83333333333334</ele><time>2026-04-26T07:56:15.188Z</time></trkpt><trkpt lat="43.4106849" lon="11.0944734"><ele>236.0</ele><time>2026-04-26T07:56:17.192Z</time></trkpt><trkpt lat="43.4107345" lon="11.0943823"><ele>236.00000000000003</ele><time>2026-04-26T07:56:19.193Z</time></trkpt><trkpt lat="43.4107887" lon="11.0942976"><ele>236.0</ele><time>2026-04-26T07:56:21.24Z</time></trkpt><trkpt lat="43.4108325" lon="11.0942068"><ele>236.0</ele><time>2026-04-26T07:56:23.194Z</time></trkpt><trkpt lat="43.4108628" lon="11.0941246"><ele>236.0</ele><time>2026-04-26T07:56:25.192Z</time></trkpt><trkpt lat="43.4109142" lon="11.0940154"><ele>236.00000000000003</ele><time>2026-04-26T07:56:28.181Z</time></trkpt><trkpt lat="43.4109477" lon="11.0939252"><ele>236.0</ele><time>2026-04-26T07:56:30.176Z</time></trkpt><trkpt lat="43.410977" lon="11.09382"><ele>235.66666666666669</ele><time>2026-04-26T07:56:32.185Z</time></trkpt><trkpt lat="43.4110168" lon="11.0937201"><ele>235.33333333333334</ele><time>2026-04-26T07:56:34.185Z</time></trkpt><trkpt lat="43.4110507" lon="11.0936118"><ele>235.0</ele><time>2026-04-26T07:56:36.184Z</time></trkpt><trkpt lat="43.4110824" lon="11.0934967"><ele>234.66666666666669</ele><time>2026-04-26T07:56:38.184Z</time></trkpt><trkpt lat="43.41112" lon="11.0933847"><ele>234.33333333333334</ele><time>2026-04-26T07:56:40.204Z</time></trkpt><trkpt lat="43.4111575" lon="11.0932742"><ele>234.0</ele><time>2026-04-26T07:56:42.232Z</time></trkpt><trkpt lat="43.4111954" lon="11.0931581"><ele>234.0</ele><time>2026-04-26T07:56:44.195Z</time></trkpt><trkpt lat="43.411231" lon="11.093041"><ele>234.0</ele><time>2026-04-26T07:56:46.184Z</time></trkpt><trkpt lat="43.4112659" lon="11.0929298"><ele>234.0</ele><time>2026-04-26T07:56:48.184Z</time></trkpt><trkpt lat="43.4113008" lon="11.092827"><ele>234.0</ele><time>2026-04-26T07:56:50.188Z</time></trkpt><trkpt lat="43.4113371" lon="11.0927341"><ele>234.0</ele><time>2026-04-26T07:56:52.19Z</time></trkpt><trkpt lat="43.4113818" lon="11.0926457"><ele>234.0</ele><time>2026-04-26T07:56:55.163Z</time></trkpt><trkpt lat="43.4114567" lon="11.0926704"><ele>234.66666666666666</ele><time>2026-04-26T07:56:57.037Z</time></trkpt><trkpt lat="43.4115115" lon="11.0927596"><ele>235.33333333333331</ele><time>2026-04-26T07:56:59.19Z</time></trkpt><trkpt lat="43.4115722" lon="11.0928338"><ele>236.0</ele><time>2026-04-26T07:57:01.188Z</time></trkpt><trkpt lat="43.4116458" lon="11.0928984"><ele>236.66666666666666</ele><time>2026-04-26T07:57:03.157Z</time></trkpt><trkpt lat="43.4117258" lon="11.0929536"><ele>237.33333333333331</ele><time>2026-04-26T07:57:05.19Z</time></trkpt><trkpt lat="43.4117999" lon="11.0930146"><ele>238.0</ele><time>2026-04-26T07:57:07.19Z</time></trkpt><trkpt lat="43.4118792" lon="11.0930705"><ele>237.99999999999997</ele><time>2026-04-26T07:57:09.195Z</time></trkpt><trkpt lat="43.4119566" lon="11.0931274"><ele>238.0</ele><time>2026-04-26T07:57:11.185Z</time></trkpt><trkpt lat="43.4120318" lon="11.093179"><ele>238.0</ele><time>2026-04-26T07:57:13.176Z</time></trkpt><trkpt lat="43.4121033" lon="11.0932266"><ele>238.0</ele><time>2026-04-26T07:57:15.182Z</time></trkpt><trkpt lat="43.4121734" lon="11.0932893"><ele>237.99999999999997</ele><time>2026-04-26T07:57:17.191Z</time></trkpt><trkpt lat="43.4122524" lon="11.0933561"><ele>238.0</ele><time>2026-04-26T07:57:19.193Z</time></trkpt><trkpt lat="43.4123386" lon="11.0934065"><ele>237.49999999999997</ele><time>2026-04-26T07:57:21.191Z</time></trkpt><trkpt lat="43.4124233" lon="11.0934603"><ele>237.0</ele><time>2026-04-26T07:57:23.191Z</time></trkpt><trkpt lat="43.4124832" lon="11.0935118"><ele>236.5</ele><time>2026-04-26T07:57:24.745Z</time></trkpt><trkpt lat="43.4125444" lon="11.0935516"><ele>236.0</ele><time>2026-04-26T07:57:26.206Z</time></trkpt><trkpt lat="43.4126275" lon="11.0936102"><ele>235.49999999999997</ele><time>2026-04-26T07:57:28.231Z</time></trkpt><trkpt lat="43.4127135" lon="11.0936609"><ele>235.0</ele><time>2026-04-26T07:57:30.196Z</time></trkpt><trkpt lat="43.4127947" lon="11.0937285"><ele>235.0</ele><time>2026-04-26T07:57:32.188Z</time></trkpt><trkpt lat="43.41288" lon="11.0937924"><ele>235.0</ele><time>2026-04-26T07:57:34.19Z</time></trkpt><trkpt lat="43.4129688" lon="11.0938567"><ele>235.0</ele><time>2026-04-26T07:57:36.191Z</time></trkpt><trkpt lat="43.4130563" lon="11.0939257"><ele>235.0</ele><time>2026-04-26T07:57:38.199Z</time></trkpt><trkpt lat="43.4131471" lon="11.0939822"><ele>235.0</ele><time>2026-04-26T07:57:40.194Z</time></trkpt><trkpt lat="43.4132358" lon="11.094039"><ele>235.0</ele><time>2026-04-26T07:57:42.234Z</time></trkpt><trkpt lat="43.4133179" lon="11.0941069"><ele>235.0</ele><time>2026-04-26T07:57:44.194Z</time></trkpt><trkpt lat="43.4134045" lon="11.0941656"><ele>235.0</ele><time>2026-04-26T07:57:46.188Z</time></trkpt><trkpt lat="43.4134905" lon="11.0942371"><ele>235.0</ele><time>2026-04-26T07:57:48.208Z</time></trkpt><trkpt lat="43.4135829" lon="11.0943059"><ele>235.0</ele><time>2026-04-26T07:57:50.199Z</time></trkpt><trkpt lat="43.41368" lon="11.0943787"><ele>235.0</ele><time>2026-04-26T07:57:52.194Z</time></trkpt><trkpt lat="43.4137819" lon="11.0944509"><ele>235.0</ele><time>2026-04-26T07:57:54.197Z</time></trkpt><trkpt lat="43.4138936" lon="11.0945265"><ele>235.0</ele><time>2026-04-26T07:57:56.21Z</time></trkpt><trkpt lat="43.4140072" lon="11.0946113"><ele>235.0</ele><time>2026-04-26T07:57:58.206Z</time></trkpt><trkpt lat="43.4140668" lon="11.0946575"><ele>235.0</ele><time>2026-04-26T07:57:59.199Z</time></trkpt><trkpt lat="43.4141266" lon="11.094707"><ele>234.42857142857142</ele><time>2026-04-26T07:58:00.195Z</time></trkpt><trkpt lat="43.4141893" lon="11.0947509"><ele>233.85714285714283</ele><time>2026-04-26T07:58:01.193Z</time></trkpt><trkpt lat="43.414257" lon="11.0947945"><ele>233.28571428571428</ele><time>2026-04-26T07:58:02.237Z</time></trkpt><trkpt lat="43.4143219" lon="11.094837"><ele>232.71428571428572</ele><time>2026-04-26T07:58:03.229Z</time></trkpt><trkpt lat="43.4143845" lon="11.0948886"><ele>232.14285714285714</ele><time>2026-04-26T07:58:04.195Z</time></trkpt><trkpt lat="43.4144496" lon="11.0949411"><ele>231.57142857142856</ele><time>2026-04-26T07:58:05.196Z</time></trkpt><trkpt lat="43.4145158" lon="11.0949867"><ele>231.0</ele><time>2026-04-26T07:58:06.196Z</time></trkpt><trkpt lat="43.4145835" lon="11.0950318"><ele>230.85714285714286</ele><time>2026-04-26T07:58:07.195Z</time></trkpt><trkpt lat="43.4146508" lon="11.0950757"><ele>230.71428571428572</ele><time>2026-04-26T07:58:08.183Z</time></trkpt><trkpt lat="43.4147142" lon="11.0951228"><ele>230.57142857142856</ele><time>2026-04-26T07:58:09.193Z</time></trkpt><trkpt lat="43.4147771" lon="11.0951641"><ele>230.42857142857142</ele><time>2026-04-26T07:58:10.197Z</time></trkpt><trkpt lat="43.4148373" lon="11.0952031"><ele>230.28571428571428</ele><time>2026-04-26T07:58:11.192Z</time></trkpt><trkpt lat="43.4148945" lon="11.0952439"><ele>230.1428571428571</ele><time>2026-04-26T07:58:12.194Z</time></trkpt><trkpt lat="43.4149509" lon="11.0952875"><ele>229.99999999999997</ele><time>2026-04-26T07:58:13.197Z</time></trkpt><trkpt lat="43.4150606" lon="11.0953661"><ele>230.0</ele><time>2026-04-26T07:58:15.179Z</time></trkpt><trkpt lat="43.4151654" lon="11.0954514"><ele>230.0</ele><time>2026-04-26T07:58:17.195Z</time></trkpt><trkpt lat="43.4152612" lon="11.0955311"><ele>230.0</ele><time>2026-04-26T07:58:19.194Z</time></trkpt><trkpt lat="43.4153544" lon="11.095601"><ele>230.0</ele><time>2026-04-26T07:58:21.201Z</time></trkpt><trkpt lat="43.4154464" lon="11.0956672"><ele>230.0</ele><time>2026-04-26T07:58:23.236Z</time></trkpt><trkpt lat="43.4155325" lon="11.0957246"><ele>231.33333333333334</ele><time>2026-04-26T07:58:25.197Z</time></trkpt><trkpt lat="43.4156141" lon="11.0957808"><ele>232.66666666666669</ele><time>2026-04-26T07:58:27.186Z</time></trkpt><trkpt lat="43.4156998" lon="11.0958257"><ele>234.0</ele><time>2026-04-26T07:58:29.192Z</time></trkpt><trkpt lat="43.4157689" lon="11.095874"><ele>235.33333333333331</ele><time>2026-04-26T07:58:31.204Z</time></trkpt><trkpt lat="43.4158354" lon="11.0959089"><ele>236.66666666666666</ele><time>2026-04-26T07:58:33.191Z</time></trkpt><trkpt lat="43.4159489" lon="11.0959434"><ele>238.0</ele><time>2026-04-26T07:58:36.19Z</time></trkpt><trkpt lat="43.4160157" lon="11.0959637"><ele>238.0</ele><time>2026-04-26T07:58:38.239Z</time></trkpt><trkpt lat="43.4161168" lon="11.0960176"><ele>238.0</ele><time>2026-04-26T07:58:40.19Z</time></trkpt><trkpt lat="43.4162019" lon="11.0960618"><ele>238.0</ele><time>2026-04-26T07:58:42.115Z</time></trkpt><trkpt lat="43.4162925" lon="11.0961158"><ele>238.0</ele><time>2026-04-26T07:58:44.173Z</time></trkpt><trkpt lat="43.4163771" lon="11.0961412"><ele>238.0</ele><time>2026-04-26T07:58:46.183Z</time></trkpt><trkpt lat="43.4164469" lon="11.0961655"><ele>238.42857142857144</ele><time>2026-04-26T07:58:48.19Z</time></trkpt><trkpt lat="43.4165251" lon="11.0961959"><ele>238.85714285714286</ele><time>2026-04-26T07:58:50.191Z</time></trkpt><trkpt lat="43.416595" lon="11.096223"><ele>239.28571428571428</ele><time>2026-04-26T07:58:52.19Z</time></trkpt><trkpt lat="43.4166626" lon="11.0962488"><ele>239.71428571428572</ele><time>2026-04-26T07:58:54.187Z</time></trkpt><trkpt lat="43.4167334" lon="11.0962747"><ele>240.14285714285717</ele><time>2026-04-26T07:58:56.191Z</time></trkpt><trkpt lat="43.4168046" lon="11.0963002"><ele>240.57142857142858</ele><time>2026-04-26T07:58:58.236Z</time></trkpt><trkpt lat="43.4168712" lon="11.0963266"><ele>241.0</ele><time>2026-04-26T07:59:00.195Z</time></trkpt><trkpt lat="43.4169431" lon="11.0963539"><ele>240.99999999999997</ele><time>2026-04-26T07:59:02.193Z</time></trkpt><trkpt lat="43.4170172" lon="11.096381"><ele>241.0</ele><time>2026-04-26T07:59:04.191Z</time></trkpt><trkpt lat="43.4170919" lon="11.0964059"><ele>241.0</ele><time>2026-04-26T07:59:06.185Z</time></trkpt><trkpt lat="43.4171662" lon="11.0964305"><ele>241.0</ele><time>2026-04-26T07:59:08.247Z</time></trkpt><trkpt lat="43.4172408" lon="11.0964608"><ele>240.99999999999997</ele><time>2026-04-26T07:59:10.195Z</time></trkpt><trkpt lat="43.4173168" lon="11.0964856"><ele>241.0</ele><time>2026-04-26T07:59:12.2Z</time></trkpt><trkpt lat="43.4173869" lon="11.0965298"><ele>241.16666666666666</ele><time>2026-04-26T07:59:14.189Z</time></trkpt><trkpt lat="43.4174546" lon="11.0965807"><ele>241.33333333333331</ele><time>2026-04-26T07:59:16.205Z</time></trkpt><trkpt lat="43.4175208" lon="11.0966378"><ele>241.5</ele><time>2026-04-26T07:59:18.196Z</time></trkpt><trkpt lat="43.417583" lon="11.0967014"><ele>241.66666666666669</ele><time>2026-04-26T07:59:20.195Z</time></trkpt><trkpt lat="43.4176455" lon="11.0967689"><ele>241.83333333333334</ele><time>2026-04-26T07:59:22.192Z</time></trkpt><trkpt lat="43.4177073" lon="11.09684"><ele>242.0</ele><time>2026-04-26T07:59:24.191Z</time></trkpt><trkpt lat="43.4177711" lon="11.0969169"><ele>242.00000000000003</ele><time>2026-04-26T07:59:26.186Z</time></trkpt><trkpt lat="43.4178351" lon="11.0969961"><ele>242.0</ele><time>2026-04-26T07:59:28.184Z</time></trkpt><trkpt lat="43.4179025" lon="11.0970727"><ele>242.0</ele><time>2026-04-26T07:59:30.188Z</time></trkpt><trkpt lat="43.4179741" lon="11.097151"><ele>242.0</ele><time>2026-04-26T07:59:32.201Z</time></trkpt><trkpt lat="43.4180402" lon="11.0972322"><ele>242.00000000000003</ele><time>2026-04-26T07:59:34.193Z</time></trkpt><trkpt lat="43.4181076" lon="11.0973149"><ele>242.0</ele><time>2026-04-26T07:59:36.199Z</time></trkpt><trkpt lat="43.4181777" lon="11.0973923"><ele>242.2</ele><time>2026-04-26T07:59:38.198Z</time></trkpt><trkpt lat="43.4182483" lon="11.0974716"><ele>242.39999999999998</ele><time>2026-04-26T07:59:40.193Z</time></trkpt><trkpt lat="43.4183221" lon="11.0975471"><ele>242.60000000000002</ele><time>2026-04-26T07:59:42.192Z</time></trkpt><trkpt lat="43.4183846" lon="11.0976332"><ele>242.8</ele><time>2026-04-26T07:59:44.194Z</time></trkpt><trkpt lat="43.4184532" lon="11.0977186"><ele>243.0</ele><time>2026-04-26T07:59:46.186Z</time></trkpt><trkpt lat="43.4185326" lon="11.0978026"><ele>243.0</ele><time>2026-04-26T07:59:48.205Z</time></trkpt><trkpt lat="43.4186052" lon="11.0978884"><ele>243.0</ele><time>2026-04-26T07:59:50.195Z</time></trkpt><trkpt lat="43.4186762" lon="11.0979772"><ele>243.0</ele><time>2026-04-26T07:59:52.211Z</time></trkpt><trkpt lat="43.4187539" lon="11.0980592"><ele>243.0</ele><time>2026-04-26T07:59:54.195Z</time></trkpt><trkpt lat="43.4188288" lon="11.0981434"><ele>243.0</ele><time>2026-04-26T07:59:56.229Z</time></trkpt><trkpt lat="43.4189039" lon="11.0982322"><ele>243.2</ele><time>2026-04-26T07:59:58.194Z</time></trkpt><trkpt lat="43.418976" lon="11.0983186"><ele>243.4</ele><time>2026-04-26T08:00:00.193Z</time></trkpt><trkpt lat="43.4190491" lon="11.0984015"><ele>243.59999999999997</ele><time>2026-04-26T08:00:02.2Z</time></trkpt><trkpt lat="43.4191234" lon="11.0984858"><ele>243.79999999999998</ele><time>2026-04-26T08:00:04.195Z</time></trkpt><trkpt lat="43.4191944" lon="11.0985722"><ele>244.0</ele><time>2026-04-26T08:00:06.194Z</time></trkpt><trkpt lat="43.4192665" lon="11.0986548"><ele>244.0</ele><time>2026-04-26T08:00:08.231Z</time></trkpt><trkpt lat="43.4193337" lon="11.0987412"><ele>243.99999999999997</ele><time>2026-04-26T08:00:10.195Z</time></trkpt><trkpt lat="43.4193955" lon="11.0988335"><ele>243.99999999999997</ele><time>2026-04-26T08:00:12.184Z</time></trkpt><trkpt lat="43.4194534" lon="11.0989347"><ele>244.0</ele><time>2026-04-26T08:00:14.185Z</time></trkpt><trkpt lat="43.4195055" lon="11.0990377"><ele>244.0</ele><time>2026-04-26T08:00:16.189Z</time></trkpt><trkpt lat="43.419556" lon="11.0991529"><ele>244.0</ele><time>2026-04-26T08:00:18.238Z</time></trkpt><trkpt lat="43.4196004" lon="11.0992714"><ele>243.99999999999997</ele><time>2026-04-26T08:00:20.2Z</time></trkpt><trkpt lat="43.4196439" lon="11.0993948"><ele>243.99999999999997</ele><time>2026-04-26T08:00:22.202Z</time></trkpt><trkpt lat="43.4196814" lon="11.0995196"><ele>244.0</ele><time>2026-04-26T08:00:24.18Z</time></trkpt><trkpt lat="43.4197214" lon="11.0996513"><ele>244.0</ele><time>2026-04-26T08:00:26.209Z</time></trkpt><trkpt lat="43.4197492" lon="11.099782"><ele>243.79999999999998</ele><time>2026-04-26T08:00:28.241Z</time></trkpt><trkpt lat="43.4197845" lon="11.0999064"><ele>243.59999999999997</ele><time>2026-04-26T08:00:30.204Z</time></trkpt><trkpt lat="43.4198256" lon="11.1000242"><ele>243.4</ele><time>2026-04-26T08:00:32.202Z</time></trkpt><trkpt lat="43.4198574" lon="11.1001603"><ele>243.2</ele><time>2026-04-26T08:00:34.197Z</time></trkpt><trkpt lat="43.4199053" lon="11.1002854"><ele>243.0</ele><time>2026-04-26T08:00:36.215Z</time></trkpt><trkpt lat="43.4199366" lon="11.1004218"><ele>243.0</ele><time>2026-04-26T08:00:38.201Z</time></trkpt><trkpt lat="43.4199761" lon="11.1005608"><ele>243.0</ele><time>2026-04-26T08:00:40.199Z</time></trkpt><trkpt lat="43.4200152" lon="11.1006973"><ele>243.0</ele><time>2026-04-26T08:00:42.237Z</time></trkpt><trkpt lat="43.4200576" lon="11.1008426"><ele>243.0</ele><time>2026-04-26T08:00:44.191Z</time></trkpt><trkpt lat="43.4200962" lon="11.1009808"><ele>243.0</ele><time>2026-04-26T08:00:46.236Z</time></trkpt><trkpt lat="43.4201387" lon="11.1011213"><ele>243.0</ele><time>2026-04-26T08:00:48.213Z</time></trkpt><trkpt lat="43.4201776" lon="11.1012586"><ele>243.0</ele><time>2026-04-26T08:00:50.193Z</time></trkpt><trkpt lat="43.4202193" lon="11.1013959"><ele>243.0</ele><time>2026-04-26T08:00:52.24Z</time></trkpt><trkpt lat="43.4202608" lon="11.101532"><ele>243.0</ele><time>2026-04-26T08:00:54.181Z</time></trkpt><trkpt lat="43.4202904" lon="11.1016763"><ele>243.0</ele><time>2026-04-26T08:00:56.197Z</time></trkpt><trkpt lat="43.4202665" lon="11.1018188"><ele>243.0</ele><time>2026-04-26T08:00:58.188Z</time></trkpt><trkpt lat="43.4202795" lon="11.1019623"><ele>243.0</ele><time>2026-04-26T08:01:00.196Z</time></trkpt><trkpt lat="43.4203467" lon="11.1020769"><ele>243.0</ele><time>2026-04-26T08:01:02.242Z</time></trkpt><trkpt lat="43.4204229" lon="11.102188"><ele>243.0</ele><time>2026-04-26T08:01:04.196Z</time></trkpt><trkpt lat="43.4204682" lon="11.1023245"><ele>243.0</ele><time>2026-04-26T08:01:06.227Z</time></trkpt><trkpt lat="43.4205326" lon="11.1025489"><ele>241.75</ele><time>2026-04-26T08:01:09.187Z</time></trkpt><trkpt lat="43.4205774" lon="11.1027052"><ele>240.5</ele><time>2026-04-26T08:01:11.229Z</time></trkpt><trkpt lat="43.42062" lon="11.1028604"><ele>239.25</ele><time>2026-04-26T08:01:13.25Z</time></trkpt><trkpt lat="43.4206611" lon="11.1030163"><ele>238.0</ele><time>2026-04-26T08:01:15.239Z</time></trkpt><trkpt lat="43.4207021" lon="11.1031666"><ele>238.2</ele><time>2026-04-26T08:01:17.226Z</time></trkpt><trkpt lat="43.4207409" lon="11.1033183"><ele>238.4</ele><time>2026-04-26T08:01:19.191Z</time></trkpt><trkpt lat="43.4207649" lon="11.1033988"><ele>238.59999999999997</ele><time>2026-04-26T08:01:20.197Z</time></trkpt><trkpt lat="43.4208037" lon="11.1035548"><ele>238.79999999999998</ele><time>2026-04-26T08:01:22.241Z</time></trkpt><trkpt lat="43.4208505" lon="11.103709"><ele>239.0</ele><time>2026-04-26T08:01:24.185Z</time></trkpt><trkpt lat="43.4208995" lon="11.103856"><ele>239.0</ele><time>2026-04-26T08:01:26.173Z</time></trkpt><trkpt lat="43.4209332" lon="11.1040021"><ele>238.99999999999997</ele><time>2026-04-26T08:01:28.18Z</time></trkpt><trkpt lat="43.4209677" lon="11.1041429"><ele>238.99999999999997</ele><time>2026-04-26T08:01:30.177Z</time></trkpt><trkpt lat="43.4210069" lon="11.1042852"><ele>239.0</ele><time>2026-04-26T08:01:32.182Z</time></trkpt><trkpt lat="43.4210422" lon="11.1044308"><ele>239.0</ele><time>2026-04-26T08:01:34.186Z</time></trkpt><trkpt lat="43.4210838" lon="11.1045716"><ele>239.0</ele><time>2026-04-26T08:01:36.188Z</time></trkpt><trkpt lat="43.4211168" lon="11.1047084"><ele>238.99999999999997</ele><time>2026-04-26T08:01:38.185Z</time></trkpt><trkpt lat="43.4211605" lon="11.1048458"><ele>238.99999999999997</ele><time>2026-04-26T08:01:40.19Z</time></trkpt><trkpt lat="43.4211995" lon="11.1049721"><ele>239.0</ele><time>2026-04-26T08:01:42.189Z</time></trkpt><trkpt lat="43.4212361" lon="11.1051038"><ele>239.0</ele><time>2026-04-26T08:01:44.192Z</time></trkpt><trkpt lat="43.4212722" lon="11.105235"><ele>238.79999999999998</ele><time>2026-04-26T08:01:46.189Z</time></trkpt><trkpt lat="43.4213065" lon="11.105363"><ele>238.59999999999997</ele><time>2026-04-26T08:01:48.19Z</time></trkpt><trkpt lat="43.4213429" lon="11.1054936"><ele>238.4</ele><time>2026-04-26T08:01:50.187Z</time></trkpt><trkpt lat="43.4213763" lon="11.105624"><ele>238.2</ele><time>2026-04-26T08:01:52.189Z</time></trkpt><trkpt lat="43.4214229" lon="11.1057448"><ele>238.0</ele><time>2026-04-26T08:01:54.184Z</time></trkpt><trkpt lat="43.4214578" lon="11.1058665"><ele>238.0</ele><time>2026-04-26T08:01:56.18Z</time></trkpt><trkpt lat="43.4214851" lon="11.1059921"><ele>238.0</ele><time>2026-04-26T08:01:58.182Z</time></trkpt><trkpt lat="43.4215258" lon="11.1061177"><ele>238.0</ele><time>2026-04-26T08:02:00.181Z</time></trkpt><trkpt lat="43.4215564" lon="11.1062489"><ele>238.0</ele><time>2026-04-26T08:02:02.189Z</time></trkpt><trkpt lat="43.4215908" lon="11.1063834"><ele>238.0</ele><time>2026-04-26T08:02:04.177Z</time></trkpt><trkpt lat="43.4216283" lon="11.1065175"><ele>238.0</ele><time>2026-04-26T08:02:06.19Z</time></trkpt><trkpt lat="43.4216669" lon="11.1066568"><ele>238.0</ele><time>2026-04-26T08:02:08.18Z</time></trkpt><trkpt lat="43.4217059" lon="11.1068019"><ele>238.0</ele><time>2026-04-26T08:02:10.2Z</time></trkpt><trkpt lat="43.4217421" lon="11.106949"><ele>238.0</ele><time>2026-04-26T08:02:12.185Z</time></trkpt><trkpt lat="43.4217755" lon="11.1071021"><ele>238.0</ele><time>2026-04-26T08:02:14.191Z</time></trkpt><trkpt lat="43.4218019" lon="11.1072585"><ele>238.0</ele><time>2026-04-26T08:02:16.238Z</time></trkpt><trkpt lat="43.421805" lon="11.1074232"><ele>238.0</ele><time>2026-04-26T08:02:18.236Z</time></trkpt><trkpt lat="43.4217952" lon="11.10759"><ele>238.0</ele><time>2026-04-26T08:02:20.208Z</time></trkpt><trkpt lat="43.4217807" lon="11.1077547"><ele>237.4</ele><time>2026-04-26T08:02:22.224Z</time></trkpt><trkpt lat="43.421774" lon="11.1078409"><ele>236.8</ele><time>2026-04-26T08:02:23.222Z</time></trkpt><trkpt lat="43.4217615" lon="11.1080138"><ele>236.2</ele><time>2026-04-26T08:02:25.203Z</time></trkpt><trkpt lat="43.4217436" lon="11.1081842"><ele>235.6</ele><time>2026-04-26T08:02:27.228Z</time></trkpt><trkpt lat="43.4217308" lon="11.1083481"><ele>235.0</ele><time>2026-04-26T08:02:29.183Z</time></trkpt><trkpt lat="43.4217167" lon="11.1085137"><ele>234.0</ele><time>2026-04-26T08:02:31.194Z</time></trkpt><trkpt lat="43.4217072" lon="11.108677"><ele>233.0</ele><time>2026-04-26T08:02:33.231Z</time></trkpt><trkpt lat="43.4216945" lon="11.1088322"><ele>232.0</ele><time>2026-04-26T08:02:35.196Z</time></trkpt><trkpt lat="43.4216854" lon="11.1089862"><ele>231.0</ele><time>2026-04-26T08:02:37.196Z</time></trkpt><trkpt lat="43.4216767" lon="11.1091311"><ele>231.0</ele><time>2026-04-26T08:02:39.193Z</time></trkpt><trkpt lat="43.4216652" lon="11.1092794"><ele>231.00000000000003</ele><time>2026-04-26T08:02:41.195Z</time></trkpt><trkpt lat="43.4216492" lon="11.1094331"><ele>231.00000000000003</ele><time>2026-04-26T08:02:43.229Z</time></trkpt><trkpt lat="43.4216355" lon="11.1095861"><ele>231.0</ele><time>2026-04-26T08:02:45.198Z</time></trkpt><trkpt lat="43.4216214" lon="11.1097332"><ele>231.0</ele><time>2026-04-26T08:02:47.22Z</time></trkpt><trkpt lat="43.4216061" lon="11.1098838"><ele>231.20000000000002</ele><time>2026-04-26T08:02:49.182Z</time></trkpt><trkpt lat="43.4215947" lon="11.1100325"><ele>231.40000000000003</ele><time>2026-04-26T08:02:51.183Z</time></trkpt><trkpt lat="43.4215875" lon="11.1101796"><ele>231.6</ele><time>2026-04-26T08:02:53.232Z</time></trkpt><trkpt lat="43.4215785" lon="11.110322"><ele>231.8</ele><time>2026-04-26T08:02:55.189Z</time></trkpt><trkpt lat="43.4215702" lon="11.110464"><ele>232.0</ele><time>2026-04-26T08:02:57.189Z</time></trkpt><trkpt lat="43.4215581" lon="11.1106111"><ele>232.0</ele><time>2026-04-26T08:02:59.192Z</time></trkpt><trkpt lat="43.4215457" lon="11.1107555"><ele>232.0</ele><time>2026-04-26T08:03:01.181Z</time></trkpt><trkpt lat="43.4215369" lon="11.1108919"><ele>232.0</ele><time>2026-04-26T08:03:03.197Z</time></trkpt><trkpt lat="43.4215268" lon="11.1110322"><ele>232.0</ele><time>2026-04-26T08:03:05.192Z</time></trkpt><trkpt lat="43.4215192" lon="11.1111694"><ele>232.0</ele><time>2026-04-26T08:03:07.232Z</time></trkpt><trkpt lat="43.4215076" lon="11.1112997"><ele>231.99999999999997</ele><time>2026-04-26T08:03:09.189Z</time></trkpt><trkpt lat="43.4214968" lon="11.1114261"><ele>232.0</ele><time>2026-04-26T08:03:11.196Z</time></trkpt><trkpt lat="43.4215054" lon="11.1115423"><ele>232.0</ele><time>2026-04-26T08:03:13.182Z</time></trkpt><trkpt lat="43.4215332" lon="11.1116511"><ele>232.0</ele><time>2026-04-26T08:03:15.197Z</time></trkpt><trkpt lat="43.4215778" lon="11.1117505"><ele>231.99999999999997</ele><time>2026-04-26T08:03:17.188Z</time></trkpt><trkpt lat="43.4216485" lon="11.1118372"><ele>232.0</ele><time>2026-04-26T08:03:19.178Z</time></trkpt><trkpt lat="43.4217287" lon="11.1119272"><ele>232.0</ele><time>2026-04-26T08:03:21.188Z</time></trkpt><trkpt lat="43.4218142" lon="11.1120165"><ele>232.0</ele><time>2026-04-26T08:03:23.228Z</time></trkpt><trkpt lat="43.4218937" lon="11.1121145"><ele>232.0</ele><time>2026-04-26T08:03:25.204Z</time></trkpt><trkpt lat="43.4219762" lon="11.1122065"><ele>232.0</ele><time>2026-04-26T08:03:27.197Z</time></trkpt><trkpt lat="43.4220645" lon="11.1123024"><ele>232.0</ele><time>2026-04-26T08:03:29.191Z</time></trkpt><trkpt lat="43.4221517" lon="11.1123959"><ele>231.2</ele><time>2026-04-26T08:03:31.232Z</time></trkpt><trkpt lat="43.4222392" lon="11.1124868"><ele>230.39999999999998</ele><time>2026-04-26T08:03:33.195Z</time></trkpt><trkpt lat="43.422318" lon="11.112576"><ele>229.60000000000002</ele><time>2026-04-26T08:03:35.193Z</time></trkpt><trkpt lat="43.4223797" lon="11.1126507"><ele>228.8</ele><time>2026-04-26T08:03:37.188Z</time></trkpt><trkpt lat="43.4224275" lon="11.1127185"><ele>228.0</ele><time>2026-04-26T08:03:39.186Z</time></trkpt><trkpt lat="43.4224332" lon="11.1128426"><ele>228.0</ele><time>2026-04-26T08:03:42.201Z</time></trkpt><trkpt lat="43.4223806" lon="11.1129088"><ele>227.99999999999997</ele><time>2026-04-26T08:03:44.191Z</time></trkpt><trkpt lat="43.422328" lon="11.1129728"><ele>228.0</ele><time>2026-04-26T08:03:46.19Z</time></trkpt><trkpt lat="43.4222635" lon="11.1130151"><ele>228.0</ele><time>2026-04-26T08:03:48.195Z</time></trkpt><trkpt lat="43.4221948" lon="11.113069"><ele>227.99999999999997</ele><time>2026-04-26T08:03:51.189Z</time></trkpt><trkpt lat="43.4221407" lon="11.1131192"><ele>228.0</ele><time>2026-04-26T08:03:53.185Z</time></trkpt><trkpt lat="43.4220791" lon="11.1131651"><ele>228.0</ele><time>2026-04-26T08:03:55.189Z</time></trkpt><trkpt lat="43.4220216" lon="11.1132142"><ele>227.66666666666666</ele><time>2026-04-26T08:03:57.218Z</time></trkpt><trkpt lat="43.4219521" lon="11.1132558"><ele>227.33333333333331</ele><time>2026-04-26T08:03:59.191Z</time></trkpt><trkpt lat="43.4218827" lon="11.113301"><ele>227.0</ele><time>2026-04-26T08:04:01.225Z</time></trkpt><trkpt lat="43.4218085" lon="11.1133168"><ele>226.66666666666666</ele><time>2026-04-26T08:04:03.202Z</time></trkpt><trkpt lat="43.42173" lon="11.1133681"><ele>226.33333333333331</ele><time>2026-04-26T08:04:06.204Z</time></trkpt><trkpt lat="43.421688" lon="11.1134636"><ele>226.0</ele><time>2026-04-26T08:04:09.195Z</time></trkpt><trkpt lat="43.4216519" lon="11.1135567"><ele>226.0</ele><time>2026-04-26T08:04:12.233Z</time></trkpt><trkpt lat="43.4216031" lon="11.1136371"><ele>226.0</ele><time>2026-04-26T08:04:15.198Z</time></trkpt><trkpt lat="43.4215473" lon="11.113701"><ele>226.0</ele><time>2026-04-26T08:04:18.239Z</time></trkpt><trkpt lat="43.4214911" lon="11.1137655"><ele>226.0</ele><time>2026-04-26T08:04:21.202Z</time></trkpt><trkpt lat="43.4214211" lon="11.1138387"><ele>226.0</ele><time>2026-04-26T08:04:24.193Z</time></trkpt><trkpt lat="43.4213711" lon="11.1138999"><ele>226.0</ele><time>2026-04-26T08:04:26.184Z</time></trkpt><trkpt lat="43.4213202" lon="11.1139548"><ele>226.0</ele><time>2026-04-26T08:04:28.212Z</time></trkpt><trkpt lat="43.4212544" lon="11.1139892"><ele>225.16666666666666</ele><time>2026-04-26T08:04:31.165Z</time></trkpt><trkpt lat="43.4211777" lon="11.1140426"><ele>224.33333333333331</ele><time>2026-04-26T08:04:35.194Z</time></trkpt><trkpt lat="43.4211232" lon="11.1141017"><ele>223.5</ele><time>2026-04-26T08:04:38.193Z</time></trkpt><trkpt lat="43.4210846" lon="11.1141824"><ele>222.66666666666669</ele><time>2026-04-26T08:04:45.189Z</time></trkpt><trkpt lat="43.4210424" lon="11.1142757"><ele>221.83333333333334</ele><time>2026-04-26T08:04:49.19Z</time></trkpt><trkpt lat="43.4209934" lon="11.1143531"><ele>221.0</ele><time>2026-04-26T08:04:53.194Z</time></trkpt><trkpt lat="43.4209348" lon="11.1144222"><ele>220.85714285714286</ele><time>2026-04-26T08:04:57.193Z</time></trkpt><trkpt lat="43.4208888" lon="11.1145019"><ele>220.71428571428572</ele><time>2026-04-26T08:05:00.194Z</time></trkpt><trkpt lat="43.4208605" lon="11.1145861"><ele>220.57142857142856</ele><time>2026-04-26T08:05:03.193Z</time></trkpt><trkpt lat="43.4208297" lon="11.1146831"><ele>220.42857142857144</ele><time>2026-04-26T08:05:06.194Z</time></trkpt><trkpt lat="43.4208031" lon="11.1147842"><ele>220.28571428571428</ele><time>2026-04-26T08:05:09.196Z</time></trkpt><trkpt lat="43.4207732" lon="11.1148904"><ele>220.14285714285714</ele><time>2026-04-26T08:05:12.194Z</time></trkpt><trkpt lat="43.4207621" lon="11.1149846"><ele>220.0</ele><time>2026-04-26T08:05:15.195Z</time></trkpt><trkpt lat="43.4207612" lon="11.1150932"><ele>218.99999999999997</ele><time>2026-04-26T08:05:18.197Z</time></trkpt><trkpt lat="43.4207727" lon="11.1152242"><ele>218.0</ele><time>2026-04-26T08:05:21.191Z</time></trkpt><trkpt lat="43.4207784" lon="11.115313"><ele>217.0</ele><time>2026-04-26T08:05:23.181Z</time></trkpt><trkpt lat="43.4208" lon="11.1154339"><ele>216.0</ele><time>2026-04-26T08:05:26.194Z</time></trkpt><trkpt lat="43.4208259" lon="11.115517"><ele>214.99999999999997</ele><time>2026-04-26T08:05:28.2Z</time></trkpt><trkpt lat="43.4208406" lon="11.1156061"><ele>214.0</ele><time>2026-04-26T08:05:30.195Z</time></trkpt><trkpt lat="43.4208522" lon="11.1157013"><ele>214.0</ele><time>2026-04-26T08:05:32.2Z</time></trkpt><trkpt lat="43.4208656" lon="11.1157873"><ele>206.0</ele><time>2026-04-26T08:05:34.088Z</time></trkpt></trkseg><trkseg><trkpt lat="43.4279541" lon="11.1260052"><ele>140.14285714285714</ele><time>2026-04-26T08:31:29.184Z</time></trkpt><trkpt lat="43.428015" lon="11.1260318"><ele>140.28571428571428</ele><time>2026-04-26T08:31:33.181Z</time></trkpt><trkpt lat="43.4280838" lon="11.1260423"><ele>140.42857142857144</ele><time>2026-04-26T08:31:36.201Z</time></trkpt><trkpt lat="43.4281562" lon="11.1260337"><ele>140.57142857142856</ele><time>2026-04-26T08:31:39.191Z</time></trkpt><trkpt lat="43.4282256" lon="11.1260724"><ele>140.71428571428572</ele><time>2026-04-26T08:31:41.183Z</time></trkpt><trkpt lat="43.4282909" lon="11.1260824"><ele>140.85714285714286</ele><time>2026-04-26T08:31:43.184Z</time></trkpt><trkpt lat="43.4283732" lon="11.1261031"><ele>141.0</ele><time>2026-04-26T08:31:46.191Z</time></trkpt><trkpt lat="43.4284598" lon="11.1261169"><ele>141.0</ele><time>2026-04-26T08:31:49.197Z</time></trkpt><trkpt lat="43.4285291" lon="11.1261341"><ele>141.0</ele><time>2026-04-26T08:31:51.203Z</time></trkpt><trkpt lat="43.428603" lon="11.1261568"><ele>141.0</ele><time>2026-04-26T08:31:53.217Z</time></trkpt><trkpt lat="43.4286792" lon="11.1261904"><ele>141.0</ele><time>2026-04-26T08:31:55.19Z</time></trkpt><trkpt lat="43.4287491" lon="11.126223"><ele>141.0</ele><time>2026-04-26T08:31:57.092Z</time></trkpt><trkpt lat="43.4288212" lon="11.1262555"><ele>141.0</ele><time>2026-04-26T08:31:59.191Z</time></trkpt><trkpt lat="43.4288907" lon="11.1262832"><ele>141.0</ele><time>2026-04-26T08:32:01.115Z</time></trkpt><trkpt lat="43.4289694" lon="11.1263223"><ele>141.0</ele><time>2026-04-26T08:32:03.197Z</time></trkpt><trkpt lat="43.4290445" lon="11.1263631"><ele>141.0</ele><time>2026-04-26T08:32:05.2Z</time></trkpt><trkpt lat="43.4291206" lon="11.1264125"><ele>141.0</ele><time>2026-04-26T08:32:07.198Z</time></trkpt><trkpt lat="43.4292014" lon="11.1264698"><ele>141.0</ele><time>2026-04-26T08:32:09.202Z</time></trkpt><trkpt lat="43.4292849" lon="11.1265118"><ele>141.0</ele><time>2026-04-26T08:32:11.215Z</time></trkpt><trkpt lat="43.4293699" lon="11.126578"><ele>141.0</ele><time>2026-04-26T08:32:13.207Z</time></trkpt><trkpt lat="43.4294578" lon="11.1266401"><ele>139.8</ele><time>2026-04-26T08:32:15.199Z</time></trkpt><trkpt lat="43.4295505" lon="11.1266939"><ele>138.6</ele><time>2026-04-26T08:32:17.21Z</time></trkpt><trkpt lat="43.4296514" lon="11.1267236"><ele>137.4</ele><time>2026-04-26T08:32:19.202Z</time></trkpt><trkpt lat="43.4297511" lon="11.1267576"><ele>136.2</ele><time>2026-04-26T08:32:21.196Z</time></trkpt><trkpt lat="43.4298102" lon="11.1268755"><ele>135.0</ele><time>2026-04-26T08:32:23.198Z</time></trkpt><trkpt lat="43.4298753" lon="11.1269982"><ele>134.75</ele><time>2026-04-26T08:32:25.203Z</time></trkpt><trkpt lat="43.429934" lon="11.1271329"><ele>134.5</ele><time>2026-04-26T08:32:27.194Z</time></trkpt><trkpt lat="43.4300007" lon="11.1272604"><ele>134.25</ele><time>2026-04-26T08:32:29.199Z</time></trkpt><trkpt lat="43.4300727" lon="11.1273761"><ele>134.0</ele><time>2026-04-26T08:32:31.19Z</time></trkpt><trkpt lat="43.4301479" lon="11.1274957"><ele>133.83333333333331</ele><time>2026-04-26T08:32:33.187Z</time></trkpt><trkpt lat="43.4302244" lon="11.1276104"><ele>133.66666666666666</ele><time>2026-04-26T08:32:35.197Z</time></trkpt><trkpt lat="43.4302695" lon="11.1277179"><ele>133.5</ele><time>2026-04-26T08:32:37.204Z</time></trkpt><trkpt lat="43.4302797" lon="11.1278115"><ele>133.33333333333334</ele><time>2026-04-26T08:32:39.195Z</time></trkpt><trkpt lat="43.4302992" lon="11.1279056"><ele>133.16666666666669</ele><time>2026-04-26T08:32:42.213Z</time></trkpt><trkpt lat="43.4303491" lon="11.1280099"><ele>133.0</ele><time>2026-04-26T08:32:45.195Z</time></trkpt><trkpt lat="43.4303957" lon="11.128089"><ele>133.0</ele><time>2026-04-26T08:32:47.195Z</time></trkpt><trkpt lat="43.430444" lon="11.12818"><ele>133.0</ele><time>2026-04-26T08:32:49.197Z</time></trkpt><trkpt lat="43.4304929" lon="11.1282808"><ele>133.0</ele><time>2026-04-26T08:32:51.2Z</time></trkpt><trkpt lat="43.4305464" lon="11.1283839"><ele>133.0</ele><time>2026-04-26T08:32:53.198Z</time></trkpt><trkpt lat="43.4306032" lon="11.1284809"><ele>133.0</ele><time>2026-04-26T08:32:55.202Z</time></trkpt><trkpt lat="43.4306607" lon="11.1285934"><ele>133.0</ele><time>2026-04-26T08:32:57.202Z</time></trkpt><trkpt lat="43.4307166" lon="11.1287073"><ele>133.0</ele><time>2026-04-26T08:32:59.2Z</time></trkpt><trkpt lat="43.4307701" lon="11.1288213"><ele>133.0</ele><time>2026-04-26T08:33:01.204Z</time></trkpt><trkpt lat="43.4308241" lon="11.1289357"><ele>133.0</ele><time>2026-04-26T08:33:03.198Z</time></trkpt><trkpt lat="43.4308662" lon="11.1290662"><ele>133.0</ele><time>2026-04-26T08:33:05.183Z</time></trkpt><trkpt lat="43.4309048" lon="11.1292016"><ele>132.8</ele><time>2026-04-26T08:33:07.195Z</time></trkpt><trkpt lat="43.4309413" lon="11.1293396"><ele>132.60000000000002</ele><time>2026-04-26T08:33:09.195Z</time></trkpt><trkpt lat="43.4309758" lon="11.1294847"><ele>132.39999999999998</ele><time>2026-04-26T08:33:11.201Z</time></trkpt><trkpt lat="43.4310117" lon="11.1296245"><ele>132.2</ele><time>2026-04-26T08:33:13.241Z</time></trkpt><trkpt lat="43.4310442" lon="11.1297554"><ele>132.0</ele><time>2026-04-26T08:33:15.191Z</time></trkpt><trkpt lat="43.431083" lon="11.1298664"><ele>130.83333333333334</ele><time>2026-04-26T08:33:17.22Z</time></trkpt><trkpt lat="43.4311044" lon="11.1299544"><ele>129.66666666666666</ele><time>2026-04-26T08:33:19.191Z</time></trkpt><trkpt lat="43.4311376" lon="11.1300582"><ele>128.5</ele><time>2026-04-26T08:33:21.198Z</time></trkpt><trkpt lat="43.4311763" lon="11.1301648"><ele>127.33333333333333</ele><time>2026-04-26T08:33:23.195Z</time></trkpt><trkpt lat="43.4311832" lon="11.1302639"><ele>126.16666666666666</ele><time>2026-04-26T08:33:25.114Z</time></trkpt><trkpt lat="43.4312258" lon="11.1303515"><ele>125.0</ele><time>2026-04-26T08:33:26.196Z</time></trkpt><trkpt lat="43.4312731" lon="11.1304733"><ele>129.2</ele><time>2026-04-26T08:33:28.244Z</time></trkpt><trkpt lat="43.4313228" lon="11.1306038"><ele>133.4</ele><time>2026-04-26T08:33:30.196Z</time></trkpt><trkpt lat="43.4313666" lon="11.1307371"><ele>137.6</ele><time>2026-04-26T08:33:32.182Z</time></trkpt><trkpt lat="43.4314112" lon="11.1308681"><ele>141.8</ele><time>2026-04-26T08:33:34.193Z</time></trkpt><trkpt lat="43.4314494" lon="11.1310056"><ele>146.0</ele><time>2026-04-26T08:33:36.189Z</time></trkpt><trkpt lat="43.4314727" lon="11.1311447"><ele>146.0</ele><time>2026-04-26T08:33:38.2Z</time></trkpt><trkpt lat="43.4314794" lon="11.1312744"><ele>146.0</ele><time>2026-04-26T08:33:40.202Z</time></trkpt><trkpt lat="43.4314841" lon="11.1313985"><ele>146.0</ele><time>2026-04-26T08:33:42.196Z</time></trkpt><trkpt lat="43.4314884" lon="11.1315306"><ele>146.0</ele><time>2026-04-26T08:33:44.209Z</time></trkpt><trkpt lat="43.4314789" lon="11.1316609"><ele>146.0</ele><time>2026-04-26T08:33:46.215Z</time></trkpt><trkpt lat="43.431485" lon="11.1317809"><ele>145.0</ele><time>2026-04-26T08:33:48.259Z</time></trkpt><trkpt lat="43.4314681" lon="11.1319382"><ele>144.0</ele><time>2026-04-26T08:33:50.205Z</time></trkpt><trkpt lat="43.4314551" lon="11.1320815"><ele>143.0</ele><time>2026-04-26T08:33:52.207Z</time></trkpt><trkpt lat="43.4314516" lon="11.1321709"><ele>142.0</ele><time>2026-04-26T08:33:53.204Z</time></trkpt><trkpt lat="43.4314544" lon="11.1323143"><ele>141.0</ele><time>2026-04-26T08:33:55.206Z</time></trkpt><trkpt lat="43.4314674" lon="11.1324682"><ele>140.8</ele><time>2026-04-26T08:33:57.203Z</time></trkpt><trkpt lat="43.4314869" lon="11.1326287"><ele>140.6</ele><time>2026-04-26T08:33:59.201Z</time></trkpt><trkpt lat="43.4315181" lon="11.1327813"><ele>140.4</ele><time>2026-04-26T08:34:01.219Z</time></trkpt><trkpt lat="43.4315608" lon="11.1329216"><ele>140.2</ele><time>2026-04-26T08:34:03.202Z</time></trkpt><trkpt lat="43.4316001" lon="11.1330378"><ele>140.0</ele><time>2026-04-26T08:34:05.206Z</time></trkpt><trkpt lat="43.4316607" lon="11.1331856"><ele>137.8</ele><time>2026-04-26T08:34:07.21Z</time></trkpt><trkpt lat="43.4316897" lon="11.1332661"><ele>135.6</ele><time>2026-04-26T08:34:08.222Z</time></trkpt><trkpt lat="43.4317505" lon="11.1334167"><ele>133.4</ele><time>2026-04-26T08:34:10.208Z</time></trkpt><trkpt lat="43.4318185" lon="11.1335511"><ele>131.2</ele><time>2026-04-26T08:34:12.223Z</time></trkpt><trkpt lat="43.4318572" lon="11.1336203"><ele>129.0</ele><time>2026-04-26T08:34:13.255Z</time></trkpt><trkpt lat="43.4319238" lon="11.1337591"><ele>129.0</ele><time>2026-04-26T08:34:15.201Z</time></trkpt><trkpt lat="43.4319854" lon="11.1339008"><ele>129.0</ele><time>2026-04-26T08:34:17.207Z</time></trkpt><trkpt lat="43.43204" lon="11.1340487"><ele>129.0</ele><time>2026-04-26T08:34:19.202Z</time></trkpt><trkpt lat="43.4320657" lon="11.134128"><ele>129.0</ele><time>2026-04-26T08:34:20.205Z</time></trkpt><trkpt lat="43.4321095" lon="11.1342811"><ele>129.0</ele><time>2026-04-26T08:34:22.257Z</time></trkpt><trkpt lat="43.4321488" lon="11.1344365"><ele>129.0</ele><time>2026-04-26T08:34:24.206Z</time></trkpt><trkpt lat="43.432172" lon="11.1345844"><ele>129.0</ele><time>2026-04-26T08:34:26.213Z</time></trkpt><trkpt lat="43.4321986" lon="11.134738"><ele>129.0</ele><time>2026-04-26T08:34:28.231Z</time></trkpt><trkpt lat="43.4322153" lon="11.1349006"><ele>129.0</ele><time>2026-04-26T08:34:30.204Z</time></trkpt><trkpt lat="43.4322289" lon="11.1350588"><ele>127.5</ele><time>2026-04-26T08:34:32.199Z</time></trkpt><trkpt lat="43.4322316" lon="11.1352189"><ele>126.0</ele><time>2026-04-26T08:34:34.201Z</time></trkpt><trkpt lat="43.4322312" lon="11.1353795"><ele>124.5</ele><time>2026-04-26T08:34:36.245Z</time></trkpt><trkpt lat="43.4322231" lon="11.1355393"><ele>123.0</ele><time>2026-04-26T08:34:38.221Z</time></trkpt><trkpt lat="43.4322069" lon="11.1357009"><ele>122.25</ele><time>2026-04-26T08:34:40.208Z</time></trkpt><trkpt lat="43.432184" lon="11.135855"><ele>121.5</ele><time>2026-04-26T08:34:42.262Z</time></trkpt><trkpt lat="43.4321555" lon="11.1360048"><ele>120.75</ele><time>2026-04-26T08:34:44.198Z</time></trkpt><trkpt lat="43.4321205" lon="11.1361527"><ele>120.0</ele><time>2026-04-26T08:34:46.259Z</time></trkpt><trkpt lat="43.4320875" lon="11.1362992"><ele>120.0</ele><time>2026-04-26T08:34:48.196Z</time></trkpt><trkpt lat="43.4320593" lon="11.1364309"><ele>120.0</ele><time>2026-04-26T08:34:50.198Z</time></trkpt><trkpt lat="43.4320137" lon="11.1365778"><ele>120.0</ele><time>2026-04-26T08:34:52.212Z</time></trkpt><trkpt lat="43.431977" lon="11.13672"><ele>120.0</ele><time>2026-04-26T08:34:54.207Z</time></trkpt><trkpt lat="43.4319417" lon="11.1368642"><ele>120.0</ele><time>2026-04-26T08:34:56.258Z</time></trkpt><trkpt lat="43.4319133" lon="11.1370065"><ele>120.2</ele><time>2026-04-26T08:34:58.195Z</time></trkpt><trkpt lat="43.431891" lon="11.1371493"><ele>120.4</ele><time>2026-04-26T08:35:00.2Z</time></trkpt><trkpt lat="43.4318841" lon="11.1372946"><ele>120.6</ele><time>2026-04-26T08:35:02.251Z</time></trkpt><trkpt lat="43.4318826" lon="11.137429"><ele>120.8</ele><time>2026-04-26T08:35:04.206Z</time></trkpt><trkpt lat="43.4318857" lon="11.1375622"><ele>121.0</ele><time>2026-04-26T08:35:06.244Z</time></trkpt><trkpt lat="43.4318973" lon="11.1376808"><ele>121.4</ele><time>2026-04-26T08:35:08.248Z</time></trkpt><trkpt lat="43.4319073" lon="11.1378146"><ele>121.8</ele><time>2026-04-26T08:35:10.214Z</time></trkpt><trkpt lat="43.4319304" lon="11.1379369"><ele>122.20000000000002</ele><time>2026-04-26T08:35:12.212Z</time></trkpt><trkpt lat="43.4319652" lon="11.138056"><ele>122.60000000000001</ele><time>2026-04-26T08:35:14.197Z</time></trkpt><trkpt lat="43.4320044" lon="11.138188"><ele>123.0</ele><time>2026-04-26T08:35:16.204Z</time></trkpt><trkpt lat="43.4320481" lon="11.138317"><ele>123.0</ele><time>2026-04-26T08:35:18.257Z</time></trkpt><trkpt lat="43.4320853" lon="11.1384399"><ele>123.00000000000001</ele><time>2026-04-26T08:35:20.204Z</time></trkpt><trkpt lat="43.4321517" lon="11.1385465"><ele>123.00000000000001</ele><time>2026-04-26T08:35:23.195Z</time></trkpt><trkpt lat="43.4322071" lon="11.1386311"><ele>123.0</ele><time>2026-04-26T08:35:25.191Z</time></trkpt><trkpt lat="43.4322738" lon="11.1387294"><ele>123.0</ele><time>2026-04-26T08:35:27.201Z</time></trkpt><trkpt lat="43.4323419" lon="11.1388198"><ele>123.2</ele><time>2026-04-26T08:35:29.203Z</time></trkpt><trkpt lat="43.4324062" lon="11.1389057"><ele>123.4</ele><time>2026-04-26T08:35:31.19Z</time></trkpt><trkpt lat="43.4324796" lon="11.1389782"><ele>123.60000000000001</ele><time>2026-04-26T08:35:33.202Z</time></trkpt><trkpt lat="43.4325623" lon="11.1390513"><ele>123.80000000000001</ele><time>2026-04-26T08:35:35.201Z</time></trkpt><trkpt lat="43.4326438" lon="11.1391252"><ele>124.0</ele><time>2026-04-26T08:35:37.207Z</time></trkpt><trkpt lat="43.4327214" lon="11.1392044"><ele>124.0</ele><time>2026-04-26T08:35:39.206Z</time></trkpt><trkpt lat="43.4327946" lon="11.1392715"><ele>124.0</ele><time>2026-04-26T08:35:41.191Z</time></trkpt><trkpt lat="43.4328786" lon="11.1393323"><ele>124.0</ele><time>2026-04-26T08:35:43.203Z</time></trkpt><trkpt lat="43.4329622" lon="11.1394002"><ele>124.0</ele><time>2026-04-26T08:35:45.196Z</time></trkpt><trkpt lat="43.4330483" lon="11.139473"><ele>124.0</ele><time>2026-04-26T08:35:47.247Z</time></trkpt><trkpt lat="43.4331251" lon="11.1395501"><ele>124.0</ele><time>2026-04-26T08:35:49.201Z</time></trkpt><trkpt lat="43.4332024" lon="11.1396303"><ele>124.0</ele><time>2026-04-26T08:35:51.224Z</time></trkpt><trkpt lat="43.433286" lon="11.1397034"><ele>124.0</ele><time>2026-04-26T08:35:53.255Z</time></trkpt><trkpt lat="43.4333663" lon="11.1397902"><ele>124.0</ele><time>2026-04-26T08:35:55.206Z</time></trkpt><trkpt lat="43.4334467" lon="11.1398743"><ele>124.0</ele><time>2026-04-26T08:35:57.25Z</time></trkpt><trkpt lat="43.4335326" lon="11.1399336"><ele>124.0</ele><time>2026-04-26T08:35:59.201Z</time></trkpt><trkpt lat="43.4336161" lon="11.1399981"><ele>124.0</ele><time>2026-04-26T08:36:01.222Z</time></trkpt><trkpt lat="43.4336966" lon="11.1400791"><ele>124.0</ele><time>2026-04-26T08:36:03.207Z</time></trkpt><trkpt lat="43.4337856" lon="11.140146"><ele>124.0</ele><time>2026-04-26T08:36:05.212Z</time></trkpt><trkpt lat="43.433873" lon="11.140225"><ele>124.0</ele><time>2026-04-26T08:36:07.266Z</time></trkpt><trkpt lat="43.43396" lon="11.1403051"><ele>126.80000000000001</ele><time>2026-04-26T08:36:09.214Z</time></trkpt><trkpt lat="43.4340439" lon="11.1403697"><ele>129.60000000000002</ele><time>2026-04-26T08:36:11.245Z</time></trkpt><trkpt lat="43.4341275" lon="11.1404396"><ele>132.4</ele><time>2026-04-26T08:36:13.208Z</time></trkpt><trkpt lat="43.4342134" lon="11.1405069"><ele>135.20000000000002</ele><time>2026-04-26T08:36:15.256Z</time></trkpt><trkpt lat="43.4343002" lon="11.1405772"><ele>138.0</ele><time>2026-04-26T08:36:17.247Z</time></trkpt><trkpt lat="43.4343818" lon="11.1406567"><ele>136.8</ele><time>2026-04-26T08:36:19.202Z</time></trkpt><trkpt lat="43.4344719" lon="11.1407176"><ele>135.60000000000002</ele><time>2026-04-26T08:36:21.201Z</time></trkpt><trkpt lat="43.4345567" lon="11.1407949"><ele>134.39999999999998</ele><time>2026-04-26T08:36:23.251Z</time></trkpt><trkpt lat="43.4346393" lon="11.1408618"><ele>133.2</ele><time>2026-04-26T08:36:25.199Z</time></trkpt><trkpt lat="43.4347342" lon="11.1409224"><ele>132.0</ele><time>2026-04-26T08:36:27.257Z</time></trkpt><trkpt lat="43.4348292" lon="11.1409752"><ele>132.0</ele><time>2026-04-26T08:36:29.204Z</time></trkpt><trkpt lat="43.4349308" lon="11.1410333"><ele>132.0</ele><time>2026-04-26T08:36:31.261Z</time></trkpt><trkpt lat="43.4350317" lon="11.1410895"><ele>132.0</ele><time>2026-04-26T08:36:33.228Z</time></trkpt><trkpt lat="43.4351372" lon="11.14114"><ele>132.0</ele><time>2026-04-26T08:36:35.211Z</time></trkpt><trkpt lat="43.435291" lon="11.1412126"><ele>132.0</ele><time>2026-04-26T08:36:38.227Z</time></trkpt><trkpt lat="43.4353891" lon="11.1412578"><ele>132.0</ele><time>2026-04-26T08:36:40.197Z</time></trkpt><trkpt lat="43.4354785" lon="11.1413155"><ele>132.0</ele><time>2026-04-26T08:36:42.211Z</time></trkpt><trkpt lat="43.4355785" lon="11.1413599"><ele>132.0</ele><time>2026-04-26T08:36:44.199Z</time></trkpt><trkpt lat="43.4356742" lon="11.1414137"><ele>132.0</ele><time>2026-04-26T08:36:46.21Z</time></trkpt><trkpt lat="43.4357643" lon="11.1414731"><ele>133.0</ele><time>2026-04-26T08:36:48.211Z</time></trkpt><trkpt lat="43.4358584" lon="11.1415307"><ele>134.0</ele><time>2026-04-26T08:36:50.206Z</time></trkpt><trkpt lat="43.435949" lon="11.1416067"><ele>135.0</ele><time>2026-04-26T08:36:52.248Z</time></trkpt><trkpt lat="43.4360406" lon="11.1416746"><ele>136.0</ele><time>2026-04-26T08:36:54.205Z</time></trkpt><trkpt lat="43.4361387" lon="11.1417453"><ele>137.0</ele><time>2026-04-26T08:36:56.198Z</time></trkpt><trkpt lat="43.4362314" lon="11.1418249"><ele>133.4</ele><time>2026-04-26T08:36:58.21Z</time></trkpt><trkpt lat="43.4363262" lon="11.1419069"><ele>129.79999999999998</ele><time>2026-04-26T08:37:00.224Z</time></trkpt><trkpt lat="43.4364213" lon="11.1419912"><ele>126.2</ele><time>2026-04-26T08:37:02.255Z</time></trkpt><trkpt lat="43.4365127" lon="11.1420783"><ele>122.6</ele><time>2026-04-26T08:37:04.198Z</time></trkpt><trkpt lat="43.4365987" lon="11.1421773"><ele>119.0</ele><time>2026-04-26T08:37:06.249Z</time></trkpt><trkpt lat="43.4366943" lon="11.1422701"><ele>119.0</ele><time>2026-04-26T08:37:08.21Z</time></trkpt><trkpt lat="43.4367911" lon="11.1423659"><ele>119.0</ele><time>2026-04-26T08:37:10.2Z</time></trkpt><trkpt lat="43.4368822" lon="11.1424603"><ele>119.0</ele><time>2026-04-26T08:37:12.217Z</time></trkpt><trkpt lat="43.4369682" lon="11.1425591"><ele>119.0</ele><time>2026-04-26T08:37:14.207Z</time></trkpt><trkpt lat="43.4370608" lon="11.1426484"><ele>117.80000000000001</ele><time>2026-04-26T08:37:16.197Z</time></trkpt><trkpt lat="43.4371423" lon="11.1427476"><ele>116.60000000000001</ele><time>2026-04-26T08:37:18.21Z</time></trkpt><trkpt lat="43.4372222" lon="11.142846"><ele>115.4</ele><time>2026-04-26T08:37:20.205Z</time></trkpt><trkpt lat="43.4373086" lon="11.1429278"><ele>114.2</ele><time>2026-04-26T08:37:22.187Z</time></trkpt><trkpt lat="43.4373973" lon="11.1430141"><ele>113.0</ele><time>2026-04-26T08:37:24.203Z</time></trkpt><trkpt lat="43.4374912" lon="11.1430901"><ele>113.0</ele><time>2026-04-26T08:37:26.239Z</time></trkpt><trkpt lat="43.4375792" lon="11.1431582"><ele>113.00000000000001</ele><time>2026-04-26T08:37:28.258Z</time></trkpt><trkpt lat="43.4376661" lon="11.1432114"><ele>113.00000000000001</ele><time>2026-04-26T08:37:30.203Z</time></trkpt><trkpt lat="43.4377699" lon="11.1432639"><ele>113.0</ele><time>2026-04-26T08:37:32.245Z</time></trkpt><trkpt lat="43.4378801" lon="11.1433035"><ele>113.0</ele><time>2026-04-26T08:37:34.212Z</time></trkpt><trkpt lat="43.4379914" lon="11.1433296"><ele>114.0</ele><time>2026-04-26T08:37:36.25Z</time></trkpt><trkpt lat="43.4381042" lon="11.143338"><ele>115.0</ele><time>2026-04-26T08:37:38.213Z</time></trkpt><trkpt lat="43.4382183" lon="11.1433343"><ele>116.0</ele><time>2026-04-26T08:37:40.202Z</time></trkpt><trkpt lat="43.4383337" lon="11.1433249"><ele>117.0</ele><time>2026-04-26T08:37:42.245Z</time></trkpt><trkpt lat="43.4384465" lon="11.143303"><ele>117.0</ele><time>2026-04-26T08:37:44.202Z</time></trkpt><trkpt lat="43.4385603" lon="11.1432704"><ele>116.99999999999999</ele><time>2026-04-26T08:37:46.249Z</time></trkpt><trkpt lat="43.4386676" lon="11.1432325"><ele>116.99999999999999</ele><time>2026-04-26T08:37:48.25Z</time></trkpt><trkpt lat="43.4387671" lon="11.1431761"><ele>117.0</ele><time>2026-04-26T08:37:50.198Z</time></trkpt><trkpt lat="43.4388671" lon="11.1431127"><ele>117.0</ele><time>2026-04-26T08:37:52.221Z</time></trkpt><trkpt lat="43.4389656" lon="11.1430375"><ele>117.5</ele><time>2026-04-26T08:37:54.197Z</time></trkpt><trkpt lat="43.439055" lon="11.1429474"><ele>118.0</ele><time>2026-04-26T08:37:56.188Z</time></trkpt><trkpt lat="43.4391375" lon="11.1428383"><ele>118.5</ele><time>2026-04-26T08:37:58.228Z</time></trkpt><trkpt lat="43.4392265" lon="11.1427363"><ele>119.0</ele><time>2026-04-26T08:38:00.203Z</time></trkpt><trkpt lat="43.4393128" lon="11.1426324"><ele>119.0</ele><time>2026-04-26T08:38:02.217Z</time></trkpt><trkpt lat="43.4393934" lon="11.1425137"><ele>119.0</ele><time>2026-04-26T08:38:04.206Z</time></trkpt><trkpt lat="43.4394767" lon="11.1423994"><ele>119.0</ele><time>2026-04-26T08:38:06.252Z</time></trkpt><trkpt lat="43.4395545" lon="11.1422936"><ele>119.0</ele><time>2026-04-26T08:38:08.247Z</time></trkpt><trkpt lat="43.439624" lon="11.1421853"><ele>119.4</ele><time>2026-04-26T08:38:10.213Z</time></trkpt><trkpt lat="43.4396995" lon="11.1420772"><ele>119.80000000000001</ele><time>2026-04-26T08:38:12.223Z</time></trkpt><trkpt lat="43.439769" lon="11.1419604"><ele>120.19999999999999</ele><time>2026-04-26T08:38:14.206Z</time></trkpt><trkpt lat="43.4398357" lon="11.1418461"><ele>120.6</ele><time>2026-04-26T08:38:16.199Z</time></trkpt><trkpt lat="43.4399021" lon="11.141728"><ele>121.0</ele><time>2026-04-26T08:38:18.246Z</time></trkpt><trkpt lat="43.4399667" lon="11.1416071"><ele>119.5</ele><time>2026-04-26T08:38:20.203Z</time></trkpt><trkpt lat="43.4400303" lon="11.1414834"><ele>118.0</ele><time>2026-04-26T08:38:22.254Z</time></trkpt><trkpt lat="43.4400919" lon="11.1413559"><ele>116.5</ele><time>2026-04-26T08:38:24.204Z</time></trkpt><trkpt lat="43.4401597" lon="11.1412276"><ele>115.0</ele><time>2026-04-26T08:38:26.249Z</time></trkpt><trkpt lat="43.4402265" lon="11.1411019"><ele>115.0</ele><time>2026-04-26T08:38:28.228Z</time></trkpt><trkpt lat="43.4403032" lon="11.1409848"><ele>115.0</ele><time>2026-04-26T08:38:30.189Z</time></trkpt><trkpt lat="43.4403715" lon="11.1408535"><ele>115.0</ele><time>2026-04-26T08:38:32.202Z</time></trkpt><trkpt lat="43.4404529" lon="11.1407315"><ele>115.0</ele><time>2026-04-26T08:38:34.199Z</time></trkpt><trkpt lat="43.4405399" lon="11.1406143"><ele>114.6</ele><time>2026-04-26T08:38:36.204Z</time></trkpt><trkpt lat="43.4406389" lon="11.1405159"><ele>114.2</ele><time>2026-04-26T08:38:38.248Z</time></trkpt><trkpt lat="43.4407405" lon="11.1404146"><ele>113.80000000000001</ele><time>2026-04-26T08:38:40.202Z</time></trkpt><trkpt lat="43.4407938" lon="11.1403664"><ele>113.4</ele><time>2026-04-26T08:38:41.202Z</time></trkpt><trkpt lat="43.4409029" lon="11.1402809"><ele>113.0</ele><time>2026-04-26T08:38:43.219Z</time></trkpt><trkpt lat="43.4410155" lon="11.1402092"><ele>113.0</ele><time>2026-04-26T08:38:45.205Z</time></trkpt><trkpt lat="43.4411309" lon="11.1401459"><ele>113.0</ele><time>2026-04-26T08:38:47.25Z</time></trkpt><trkpt lat="43.4412499" lon="11.1400943"><ele>113.0</ele><time>2026-04-26T08:38:49.2Z</time></trkpt><trkpt lat="43.4413657" lon="11.1400557"><ele>113.0</ele><time>2026-04-26T08:38:51.219Z</time></trkpt><trkpt lat="43.4414479" lon="11.1400313"><ele>112.80000000000001</ele><time>2026-04-26T08:38:53.205Z</time></trkpt><trkpt lat="43.4415086" lon="11.1400012"><ele>112.60000000000001</ele><time>2026-04-26T08:38:55.2Z</time></trkpt><trkpt lat="43.4415959" lon="11.1399857"><ele>112.39999999999999</ele><time>2026-04-26T08:38:57.202Z</time></trkpt><trkpt lat="43.441693" lon="11.1399538"><ele>112.19999999999999</ele><time>2026-04-26T08:38:59.201Z</time></trkpt><trkpt lat="43.4417946" lon="11.1399165"><ele>112.0</ele><time>2026-04-26T08:39:01.253Z</time></trkpt><trkpt lat="43.4418922" lon="11.1398708"><ele>111.8</ele><time>2026-04-26T08:39:03.25Z</time></trkpt><trkpt lat="43.4419904" lon="11.1398178"><ele>111.6</ele><time>2026-04-26T08:39:05.202Z</time></trkpt><trkpt lat="43.4420868" lon="11.1397584"><ele>111.39999999999999</ele><time>2026-04-26T08:39:07.243Z</time></trkpt><trkpt lat="43.4421787" lon="11.1396918"><ele>111.19999999999999</ele><time>2026-04-26T08:39:09.201Z</time></trkpt><trkpt lat="43.4422726" lon="11.1396156"><ele>111.0</ele><time>2026-04-26T08:39:11.249Z</time></trkpt><trkpt lat="43.4423626" lon="11.1395315"><ele>111.5</ele><time>2026-04-26T08:39:13.214Z</time></trkpt><trkpt lat="43.4424537" lon="11.139437"><ele>112.0</ele><time>2026-04-26T08:39:15.202Z</time></trkpt><trkpt lat="43.4425363" lon="11.1393317"><ele>112.5</ele><time>2026-04-26T08:39:17.234Z</time></trkpt><trkpt lat="43.4426153" lon="11.1392237"><ele>113.0</ele><time>2026-04-26T08:39:19.204Z</time></trkpt><trkpt lat="43.4426933" lon="11.1391076"><ele>113.2</ele><time>2026-04-26T08:39:21.224Z</time></trkpt><trkpt lat="43.4427664" lon="11.1389857"><ele>113.4</ele><time>2026-04-26T08:39:23.221Z</time></trkpt><trkpt lat="43.4428399" lon="11.138867"><ele>113.60000000000001</ele><time>2026-04-26T08:39:25.203Z</time></trkpt><trkpt lat="43.4429076" lon="11.1387521"><ele>113.80000000000001</ele><time>2026-04-26T08:39:27.202Z</time></trkpt><trkpt lat="43.4429762" lon="11.1386348"><ele>114.0</ele><time>2026-04-26T08:39:29.199Z</time></trkpt><trkpt lat="43.4430482" lon="11.138513"><ele>114.0</ele><time>2026-04-26T08:39:31.204Z</time></trkpt><trkpt lat="43.4431192" lon="11.1383929"><ele>114.0</ele><time>2026-04-26T08:39:33.211Z</time></trkpt><trkpt lat="43.4431918" lon="11.1382721"><ele>114.0</ele><time>2026-04-26T08:39:35.203Z</time></trkpt><trkpt lat="43.4432645" lon="11.138145"><ele>114.0</ele><time>2026-04-26T08:39:37.249Z</time></trkpt><trkpt lat="43.4433385" lon="11.1380251"><ele>113.25</ele><time>2026-04-26T08:39:39.204Z</time></trkpt><trkpt lat="43.4434081" lon="11.1378997"><ele>112.5</ele><time>2026-04-26T08:39:41.232Z</time></trkpt><trkpt lat="43.4434772" lon="11.1377777"><ele>111.75</ele><time>2026-04-26T08:39:43.215Z</time></trkpt><trkpt lat="43.4435478" lon="11.1376514"><ele>111.0</ele><time>2026-04-26T08:39:45.213Z</time></trkpt><trkpt lat="43.443625" lon="11.1375226"><ele>111.0</ele><time>2026-04-26T08:39:47.25Z</time></trkpt><trkpt lat="43.4436934" lon="11.1373942"><ele>111.0</ele><time>2026-04-26T08:39:49.202Z</time></trkpt><trkpt lat="43.4437665" lon="11.1372683"><ele>111.0</ele><time>2026-04-26T08:39:51.229Z</time></trkpt><trkpt lat="43.4438404" lon="11.1371436"><ele>111.0</ele><time>2026-04-26T08:39:53.198Z</time></trkpt><trkpt lat="43.4439106" lon="11.1370135"><ele>110.5</ele><time>2026-04-26T08:39:55.202Z</time></trkpt><trkpt lat="43.4439839" lon="11.1368868"><ele>110.0</ele><time>2026-04-26T08:39:57.255Z</time></trkpt><trkpt lat="43.4440575" lon="11.1367604"><ele>109.5</ele><time>2026-04-26T08:39:59.208Z</time></trkpt><trkpt lat="43.4441352" lon="11.136633"><ele>109.0</ele><time>2026-04-26T08:40:01.209Z</time></trkpt><trkpt lat="43.4442137" lon="11.1365127"><ele>109.0</ele><time>2026-04-26T08:40:03.222Z</time></trkpt><trkpt lat="43.4442825" lon="11.1363867"><ele>109.0</ele><time>2026-04-26T08:40:05.203Z</time></trkpt><trkpt lat="43.4443509" lon="11.1362684"><ele>109.0</ele><time>2026-04-26T08:40:07.222Z</time></trkpt><trkpt lat="43.4444178" lon="11.136151"><ele>109.0</ele><time>2026-04-26T08:40:09.198Z</time></trkpt><trkpt lat="43.444485" lon="11.1360439"><ele>109.0</ele><time>2026-04-26T08:40:11.259Z</time></trkpt><trkpt lat="43.4445479" lon="11.1359376"><ele>109.0</ele><time>2026-04-26T08:40:13.249Z</time></trkpt><trkpt lat="43.4446091" lon="11.1358305"><ele>109.0</ele><time>2026-04-26T08:40:15.198Z</time></trkpt><trkpt lat="43.4446807" lon="11.1357272"><ele>109.0</ele><time>2026-04-26T08:40:17.217Z</time></trkpt><trkpt lat="43.4447466" lon="11.1356165"><ele>109.0</ele><time>2026-04-26T08:40:19.201Z</time></trkpt><trkpt lat="43.4448145" lon="11.1354975"><ele>109.0</ele><time>2026-04-26T08:40:21.22Z</time></trkpt><trkpt lat="43.4448824" lon="11.1353825"><ele>108.6</ele><time>2026-04-26T08:40:23.223Z</time></trkpt><trkpt lat="43.4449421" lon="11.1352548"><ele>108.2</ele><time>2026-04-26T08:40:25.206Z</time></trkpt><trkpt lat="43.4450126" lon="11.1351396"><ele>107.79999999999998</ele><time>2026-04-26T08:40:27.256Z</time></trkpt><trkpt lat="43.4450816" lon="11.1350235"><ele>107.39999999999999</ele><time>2026-04-26T08:40:29.202Z</time></trkpt><trkpt lat="43.4451514" lon="11.1349022"><ele>107.0</ele><time>2026-04-26T08:40:31.244Z</time></trkpt><trkpt lat="43.4452206" lon="11.1347832"><ele>106.75</ele><time>2026-04-26T08:40:33.251Z</time></trkpt><trkpt lat="43.4452914" lon="11.1346652"><ele>106.5</ele><time>2026-04-26T08:40:35.201Z</time></trkpt><trkpt lat="43.4453635" lon="11.1345468"><ele>106.25</ele><time>2026-04-26T08:40:37.195Z</time></trkpt><trkpt lat="43.4454376" lon="11.1344089"><ele>106.0</ele><time>2026-04-26T08:40:39.203Z</time></trkpt><trkpt lat="43.4455142" lon="11.1342827"><ele>106.6</ele><time>2026-04-26T08:40:41.251Z</time></trkpt><trkpt lat="43.4455771" lon="11.1341606"><ele>107.19999999999999</ele><time>2026-04-26T08:40:43.218Z</time></trkpt><trkpt lat="43.4456348" lon="11.1340304"><ele>107.80000000000001</ele><time>2026-04-26T08:40:45.21Z</time></trkpt><trkpt lat="43.4456881" lon="11.1339036"><ele>108.4</ele><time>2026-04-26T08:40:47.208Z</time></trkpt><trkpt lat="43.4457462" lon="11.1337692"><ele>109.0</ele><time>2026-04-26T08:40:49.198Z</time></trkpt><trkpt lat="43.4458024" lon="11.1336394"><ele>109.0</ele><time>2026-04-26T08:40:51.255Z</time></trkpt><trkpt lat="43.4458564" lon="11.133512"><ele>109.0</ele><time>2026-04-26T08:40:53.256Z</time></trkpt><trkpt lat="43.4459141" lon="11.1333825"><ele>109.0</ele><time>2026-04-26T08:40:55.22Z</time></trkpt><trkpt lat="43.4459655" lon="11.1332471"><ele>109.0</ele><time>2026-04-26T08:40:57.251Z</time></trkpt><trkpt lat="43.4460191" lon="11.1331196"><ele>109.0</ele><time>2026-04-26T08:40:59.194Z</time></trkpt><trkpt lat="43.4460743" lon="11.1329938"><ele>108.80000000000001</ele><time>2026-04-26T08:41:01.21Z</time></trkpt><trkpt lat="43.4461334" lon="11.1328785"><ele>108.60000000000001</ele><time>2026-04-26T08:41:03.208Z</time></trkpt><trkpt lat="43.4461932" lon="11.132762"><ele>108.4</ele><time>2026-04-26T08:41:05.205Z</time></trkpt><trkpt lat="43.4462614" lon="11.1326464"><ele>108.2</ele><time>2026-04-26T08:41:07.205Z</time></trkpt><trkpt lat="43.4463313" lon="11.1325406"><ele>108.0</ele><time>2026-04-26T08:41:09.191Z</time></trkpt><trkpt lat="43.446404" lon="11.132437"><ele>108.2</ele><time>2026-04-26T08:41:11.2Z</time></trkpt><trkpt lat="43.4464813" lon="11.1323498"><ele>108.4</ele><time>2026-04-26T08:41:13.204Z</time></trkpt><trkpt lat="43.4465622" lon="11.1322628"><ele>108.60000000000001</ele><time>2026-04-26T08:41:15.204Z</time></trkpt><trkpt lat="43.4466443" lon="11.1321805"><ele>108.80000000000001</ele><time>2026-04-26T08:41:17.203Z</time></trkpt><trkpt lat="43.4467125" lon="11.1320912"><ele>109.0</ele><time>2026-04-26T08:41:19.203Z</time></trkpt><trkpt lat="43.4468065" lon="11.1320241"><ele>109.0</ele><time>2026-04-26T08:41:21.2Z</time></trkpt><trkpt lat="43.4469081" lon="11.1319683"><ele>109.0</ele><time>2026-04-26T08:41:23.21Z</time></trkpt><trkpt lat="43.4470052" lon="11.1319148"><ele>109.0</ele><time>2026-04-26T08:41:25.207Z</time></trkpt><trkpt lat="43.4471041" lon="11.1318702"><ele>109.0</ele><time>2026-04-26T08:41:27.254Z</time></trkpt><trkpt lat="43.447209" lon="11.1318403"><ele>109.0</ele><time>2026-04-26T08:41:29.204Z</time></trkpt><trkpt lat="43.4473116" lon="11.1318089"><ele>109.6</ele><time>2026-04-26T08:41:31.21Z</time></trkpt><trkpt lat="43.4474108" lon="11.1317911"><ele>110.2</ele><time>2026-04-26T08:41:33.229Z</time></trkpt><trkpt lat="43.4475108" lon="11.1317773"><ele>110.79999999999998</ele><time>2026-04-26T08:41:35.208Z</time></trkpt><trkpt lat="43.4476134" lon="11.1317706"><ele>111.39999999999999</ele><time>2026-04-26T08:41:37.245Z</time></trkpt><trkpt lat="43.4477185" lon="11.1317826"><ele>112.0</ele><time>2026-04-26T08:41:39.202Z</time></trkpt><trkpt lat="43.4478278" lon="11.1317877"><ele>112.0</ele><time>2026-04-26T08:41:41.224Z</time></trkpt><trkpt lat="43.4479366" lon="11.1317995"><ele>111.99999999999999</ele><time>2026-04-26T08:41:43.216Z</time></trkpt><trkpt lat="43.4480505" lon="11.1318098"><ele>111.99999999999999</ele><time>2026-04-26T08:41:45.206Z</time></trkpt><trkpt lat="43.4481624" lon="11.1318178"><ele>112.0</ele><time>2026-04-26T08:41:47.219Z</time></trkpt><trkpt lat="43.4482728" lon="11.1318252"><ele>112.0</ele><time>2026-04-26T08:41:49.192Z</time></trkpt><trkpt lat="43.4483846" lon="11.1318328"><ele>112.0</ele><time>2026-04-26T08:41:51.251Z</time></trkpt><trkpt lat="43.4484921" lon="11.1318443"><ele>111.99999999999999</ele><time>2026-04-26T08:41:53.204Z</time></trkpt><trkpt lat="43.4486017" lon="11.1318536"><ele>111.99999999999999</ele><time>2026-04-26T08:41:55.204Z</time></trkpt><trkpt lat="43.4487099" lon="11.1318637"><ele>112.0</ele><time>2026-04-26T08:41:57.2Z</time></trkpt><trkpt lat="43.4488158" lon="11.1318707"><ele>112.0</ele><time>2026-04-26T08:41:59.203Z</time></trkpt><trkpt lat="43.4489225" lon="11.1318737"><ele>111.19999999999999</ele><time>2026-04-26T08:42:01.229Z</time></trkpt><trkpt lat="43.4490277" lon="11.1318824"><ele>110.39999999999999</ele><time>2026-04-26T08:42:03.254Z</time></trkpt><trkpt lat="43.4491331" lon="11.1318918"><ele>109.60000000000001</ele><time>2026-04-26T08:42:05.207Z</time></trkpt><trkpt lat="43.4492393" lon="11.131899"><ele>108.80000000000001</ele><time>2026-04-26T08:42:07.23Z</time></trkpt><trkpt lat="43.4493439" lon="11.1319071"><ele>108.0</ele><time>2026-04-26T08:42:09.198Z</time></trkpt><trkpt lat="43.4494485" lon="11.1319218"><ele>108.0</ele><time>2026-04-26T08:42:11.242Z</time></trkpt><trkpt lat="43.4495451" lon="11.1319313"><ele>108.00000000000001</ele><time>2026-04-26T08:42:13.247Z</time></trkpt><trkpt lat="43.4496434" lon="11.1319385"><ele>108.00000000000001</ele><time>2026-04-26T08:42:15.2Z</time></trkpt><trkpt lat="43.4497482" lon="11.1319461"><ele>108.0</ele><time>2026-04-26T08:42:17.251Z</time></trkpt><trkpt lat="43.4498544" lon="11.1319607"><ele>108.0</ele><time>2026-04-26T08:42:19.201Z</time></trkpt><trkpt lat="43.4499686" lon="11.1319668"><ele>107.5</ele><time>2026-04-26T08:42:21.216Z</time></trkpt><trkpt lat="43.4500838" lon="11.131974"><ele>107.0</ele><time>2026-04-26T08:42:23.251Z</time></trkpt><trkpt lat="43.4502003" lon="11.1319863"><ele>106.5</ele><time>2026-04-26T08:42:25.203Z</time></trkpt><trkpt lat="43.4503173" lon="11.1319973"><ele>106.0</ele><time>2026-04-26T08:42:27.203Z</time></trkpt><trkpt lat="43.450433" lon="11.1320071"><ele>105.8</ele><time>2026-04-26T08:42:29.193Z</time></trkpt><trkpt lat="43.4505482" lon="11.1320153"><ele>105.6</ele><time>2026-04-26T08:42:31.214Z</time></trkpt><trkpt lat="43.4506578" lon="11.1320327"><ele>105.4</ele><time>2026-04-26T08:42:33.209Z</time></trkpt><trkpt lat="43.4507686" lon="11.1320458"><ele>105.2</ele><time>2026-04-26T08:42:35.257Z</time></trkpt><trkpt lat="43.4508741" lon="11.1320715"><ele>105.0</ele><time>2026-04-26T08:42:37.203Z</time></trkpt><trkpt lat="43.4509891" lon="11.1320896"><ele>105.0</ele><time>2026-04-26T08:42:39.202Z</time></trkpt><trkpt lat="43.4511003" lon="11.1321212"><ele>105.0</ele><time>2026-04-26T08:42:41.22Z</time></trkpt><trkpt lat="43.4511943" lon="11.1321524"><ele>105.0</ele><time>2026-04-26T08:42:43.25Z</time></trkpt><trkpt lat="43.4512944" lon="11.1321994"><ele>105.0</ele><time>2026-04-26T08:42:45.204Z</time></trkpt><trkpt lat="43.4513991" lon="11.1322407"><ele>105.0</ele><time>2026-04-26T08:42:47.217Z</time></trkpt><trkpt lat="43.4515005" lon="11.1322858"><ele>105.4</ele><time>2026-04-26T08:42:49.205Z</time></trkpt><trkpt lat="43.4516031" lon="11.132322"><ele>105.8</ele><time>2026-04-26T08:42:51.228Z</time></trkpt><trkpt lat="43.4516948" lon="11.1323687"><ele>106.19999999999999</ele><time>2026-04-26T08:42:53.235Z</time></trkpt><trkpt lat="43.4517965" lon="11.1324079"><ele>106.6</ele><time>2026-04-26T08:42:55.206Z</time></trkpt><trkpt lat="43.4518913" lon="11.1324672"><ele>107.0</ele><time>2026-04-26T08:42:57.26Z</time></trkpt><trkpt lat="43.4519876" lon="11.1325193"><ele>107.0</ele><time>2026-04-26T08:42:59.208Z</time></trkpt><trkpt lat="43.452091" lon="11.1325651"><ele>106.99999999999999</ele><time>2026-04-26T08:43:01.204Z</time></trkpt><trkpt lat="43.4521875" lon="11.1326253"><ele>106.99999999999999</ele><time>2026-04-26T08:43:03.2Z</time></trkpt><trkpt lat="43.4522861" lon="11.1326728"><ele>107.0</ele><time>2026-04-26T08:43:05.188Z</time></trkpt><trkpt lat="43.4523875" lon="11.1327165"><ele>107.0</ele><time>2026-04-26T08:43:07.184Z</time></trkpt><trkpt lat="43.4524764" lon="11.1327601"><ele>106.49999999999999</ele><time>2026-04-26T08:43:09.184Z</time></trkpt><trkpt lat="43.4525587" lon="11.1327981"><ele>106.0</ele><time>2026-04-26T08:43:11.185Z</time></trkpt><trkpt lat="43.4526323" lon="11.1328384"><ele>105.5</ele><time>2026-04-26T08:43:13.194Z</time></trkpt><trkpt lat="43.452711" lon="11.1328706"><ele>105.0</ele><time>2026-04-26T08:43:15.189Z</time></trkpt><trkpt lat="43.452791" lon="11.1329082"><ele>104.49999999999999</ele><time>2026-04-26T08:43:18.184Z</time></trkpt><trkpt lat="43.4528645" lon="11.1329451"><ele>104.0</ele><time>2026-04-26T08:43:20.192Z</time></trkpt><trkpt lat="43.4529345" lon="11.1329618"><ele>103.99999999999999</ele><time>2026-04-26T08:43:22.207Z</time></trkpt><trkpt lat="43.4530005" lon="11.1329942"><ele>104.0</ele><time>2026-04-26T08:43:24.201Z</time></trkpt><trkpt lat="43.4530832" lon="11.1330419"><ele>104.0</ele><time>2026-04-26T08:43:27.186Z</time></trkpt><trkpt lat="43.4531571" lon="11.1330843"><ele>104.0</ele><time>2026-04-26T08:43:30.154Z</time></trkpt><trkpt lat="43.4532148" lon="11.1331422"><ele>103.99999999999999</ele><time>2026-04-26T08:43:32.149Z</time></trkpt><trkpt lat="43.4532893" lon="11.1331938"><ele>104.0</ele><time>2026-04-26T08:43:34.189Z</time></trkpt><trkpt lat="43.4533682" lon="11.1332392"><ele>103.99999999999999</ele><time>2026-04-26T08:43:36.201Z</time></trkpt><trkpt lat="43.453445" lon="11.1332823"><ele>104.0</ele><time>2026-04-26T08:43:38.205Z</time></trkpt><trkpt lat="43.4535146" lon="11.1333099"><ele>104.0</ele><time>2026-04-26T08:43:40.204Z</time></trkpt><trkpt lat="43.4535808" lon="11.1333707"><ele>104.0</ele><time>2026-04-26T08:43:43.2Z</time></trkpt><trkpt lat="43.4536591" lon="11.1333633"><ele>103.99999999999999</ele><time>2026-04-26T08:44:45.189Z</time></trkpt><trkpt lat="43.453726" lon="11.1333909"><ele>104.0</ele><time>2026-04-26T08:44:47.207Z</time></trkpt><trkpt lat="43.453805" lon="11.1334349"><ele>103.66666666666666</ele><time>2026-04-26T08:44:49.2Z</time></trkpt><trkpt lat="43.4538755" lon="11.133475"><ele>103.33333333333333</ele><time>2026-04-26T08:44:51.197Z</time></trkpt><trkpt lat="43.4539444" lon="11.1334907"><ele>103.0</ele><time>2026-04-26T08:44:53.187Z</time></trkpt><trkpt lat="43.4540194" lon="11.1335367"><ele>102.66666666666666</ele><time>2026-04-26T08:44:55.183Z</time></trkpt><trkpt lat="43.4540892" lon="11.1335774"><ele>102.33333333333333</ele><time>2026-04-26T08:44:57.195Z</time></trkpt><trkpt lat="43.4541647" lon="11.1336197"><ele>102.0</ele><time>2026-04-26T08:44:59.188Z</time></trkpt><trkpt lat="43.4542441" lon="11.1336687"><ele>102.0</ele><time>2026-04-26T08:45:01.194Z</time></trkpt><trkpt lat="43.4543246" lon="11.1337112"><ele>102.0</ele><time>2026-04-26T08:45:03.188Z</time></trkpt><trkpt lat="43.4544036" lon="11.1337536"><ele>102.0</ele><time>2026-04-26T08:45:05.212Z</time></trkpt><trkpt lat="43.4544775" lon="11.1337909"><ele>102.0</ele><time>2026-04-26T08:45:07.186Z</time></trkpt><trkpt lat="43.4545677" lon="11.1338371"><ele>102.0</ele><time>2026-04-26T08:45:09.188Z</time></trkpt><trkpt lat="43.454632" lon="11.1338793"><ele>102.0</ele><time>2026-04-26T08:45:11.193Z</time></trkpt><trkpt lat="43.4547216" lon="11.1339109"><ele>102.83333333333333</ele><time>2026-04-26T08:45:13.192Z</time></trkpt><trkpt lat="43.4548118" lon="11.1339331"><ele>103.66666666666666</ele><time>2026-04-26T08:45:15.19Z</time></trkpt><trkpt lat="43.4548928" lon="11.1339739"><ele>104.5</ele><time>2026-04-26T08:45:17.232Z</time></trkpt><trkpt lat="43.4549713" lon="11.1340059"><ele>105.33333333333333</ele><time>2026-04-26T08:45:19.205Z</time></trkpt><trkpt lat="43.455056" lon="11.1340365"><ele>106.16666666666666</ele><time>2026-04-26T08:45:21.238Z</time></trkpt><trkpt lat="43.455128" lon="11.134051"><ele>107.0</ele><time>2026-04-26T08:45:23.198Z</time></trkpt><trkpt lat="43.4552031" lon="11.1340749"><ele>106.99999999999999</ele><time>2026-04-26T08:45:25.203Z</time></trkpt><trkpt lat="43.4552788" lon="11.1340771"><ele>107.0</ele><time>2026-04-26T08:45:27.203Z</time></trkpt><trkpt lat="43.4553529" lon="11.1340814"><ele>107.0</ele><time>2026-04-26T08:45:29.198Z</time></trkpt><trkpt lat="43.4554254" lon="11.1340998"><ele>107.0</ele><time>2026-04-26T08:45:31.194Z</time></trkpt><trkpt lat="43.4554996" lon="11.1340884"><ele>106.99999999999999</ele><time>2026-04-26T08:45:33.2Z</time></trkpt><trkpt lat="43.4555753" lon="11.1340595"><ele>107.0</ele><time>2026-04-26T08:45:35.198Z</time></trkpt><trkpt lat="43.4556487" lon="11.134008"><ele>109.83333333333333</ele><time>2026-04-26T08:45:37.191Z</time></trkpt><trkpt lat="43.4557322" lon="11.1339649"><ele>112.66666666666666</ele><time>2026-04-26T08:45:39.186Z</time></trkpt><trkpt lat="43.4558083" lon="11.1339313"><ele>115.5</ele><time>2026-04-26T08:45:41.196Z</time></trkpt><trkpt lat="43.4558897" lon="11.1338979"><ele>118.33333333333334</ele><time>2026-04-26T08:45:43.204Z</time></trkpt><trkpt lat="43.4559613" lon="11.1338551"><ele>121.16666666666667</ele><time>2026-04-26T08:45:45.052Z</time></trkpt><trkpt lat="43.4560464" lon="11.133807"><ele>124.0</ele><time>2026-04-26T08:45:47.192Z</time></trkpt><trkpt lat="43.4561164" lon="11.1337531"><ele>124.00000000000001</ele><time>2026-04-26T08:45:49.194Z</time></trkpt><trkpt lat="43.4561947" lon="11.1337079"><ele>124.0</ele><time>2026-04-26T08:45:51.2Z</time></trkpt><trkpt lat="43.4562748" lon="11.1336661"><ele>124.0</ele><time>2026-04-26T08:45:53.199Z</time></trkpt><trkpt lat="43.4563515" lon="11.1336139"><ele>124.0</ele><time>2026-04-26T08:45:55.197Z</time></trkpt><trkpt lat="43.4564303" lon="11.133571"><ele>124.00000000000001</ele><time>2026-04-26T08:45:57.218Z</time></trkpt><trkpt lat="43.4565113" lon="11.1335337"><ele>124.0</ele><time>2026-04-26T08:45:59.2Z</time></trkpt><trkpt lat="43.4565912" lon="11.133498"><ele>123.83333333333334</ele><time>2026-04-26T08:46:01.25Z</time></trkpt><trkpt lat="43.4566738" lon="11.1334639"><ele>123.66666666666667</ele><time>2026-04-26T08:46:03.231Z</time></trkpt><trkpt lat="43.4567604" lon="11.1334508"><ele>123.5</ele><time>2026-04-26T08:46:05.206Z</time></trkpt><trkpt lat="43.4568452" lon="11.1334391"><ele>123.33333333333334</ele><time>2026-04-26T08:46:07.2Z</time></trkpt><trkpt lat="43.4569291" lon="11.1334323"><ele>123.16666666666667</ele><time>2026-04-26T08:46:09.19Z</time></trkpt><trkpt lat="43.4570133" lon="11.1334414"><ele>123.0</ele><time>2026-04-26T08:46:11.193Z</time></trkpt><trkpt lat="43.4571011" lon="11.133454"><ele>124.33333333333333</ele><time>2026-04-26T08:46:13.253Z</time></trkpt><trkpt lat="43.4571823" lon="11.1334671"><ele>125.66666666666666</ele><time>2026-04-26T08:46:15.225Z</time></trkpt><trkpt lat="43.4572674" lon="11.13349"><ele>127.0</ele><time>2026-04-26T08:46:17.208Z</time></trkpt><trkpt lat="43.4573473" lon="11.1335275"><ele>128.33333333333331</ele><time>2026-04-26T08:46:19.2Z</time></trkpt><trkpt lat="43.4574257" lon="11.1335691"><ele>129.66666666666666</ele><time>2026-04-26T08:46:21.196Z</time></trkpt><trkpt lat="43.4575011" lon="11.133617"><ele>131.0</ele><time>2026-04-26T08:46:23.203Z</time></trkpt><trkpt lat="43.4575758" lon="11.1336742"><ele>131.0</ele><time>2026-04-26T08:46:25.207Z</time></trkpt><trkpt lat="43.4576456" lon="11.133727"><ele>131.0</ele><time>2026-04-26T08:46:27.196Z</time></trkpt><trkpt lat="43.4577094" lon="11.1337779"><ele>131.0</ele><time>2026-04-26T08:46:29.201Z</time></trkpt><trkpt lat="43.4577818" lon="11.1338283"><ele>131.0</ele><time>2026-04-26T08:46:31.194Z</time></trkpt><trkpt lat="43.4578422" lon="11.1339061"><ele>131.0</ele><time>2026-04-26T08:46:33.218Z</time></trkpt><trkpt lat="43.4579004" lon="11.1339883"><ele>131.0</ele><time>2026-04-26T08:46:35.198Z</time></trkpt><trkpt lat="43.4579509" lon="11.1340712"><ele>130.5</ele><time>2026-04-26T08:46:37.206Z</time></trkpt><trkpt lat="43.4580054" lon="11.1341605"><ele>130.0</ele><time>2026-04-26T08:46:39.201Z</time></trkpt><trkpt lat="43.4580569" lon="11.1342466"><ele>129.5</ele><time>2026-04-26T08:46:41.206Z</time></trkpt><trkpt lat="43.4580993" lon="11.1343398"><ele>129.0</ele><time>2026-04-26T08:46:43.206Z</time></trkpt><trkpt lat="43.4581378" lon="11.1344303"><ele>128.5</ele><time>2026-04-26T08:46:45.19Z</time></trkpt><trkpt lat="43.4581634" lon="11.1345398"><ele>128.0</ele><time>2026-04-26T08:46:47.212Z</time></trkpt><trkpt lat="43.4581957" lon="11.1346532"><ele>127.99999999999999</ele><time>2026-04-26T08:46:49.2Z</time></trkpt><trkpt lat="43.4582363" lon="11.134755"><ele>128.0</ele><time>2026-04-26T08:46:51.191Z</time></trkpt><trkpt lat="43.4582931" lon="11.1348712"><ele>128.0</ele><time>2026-04-26T08:46:53.207Z</time></trkpt><trkpt lat="43.4583389" lon="11.1349845"><ele>128.0</ele><time>2026-04-26T08:46:55.202Z</time></trkpt><trkpt lat="43.4583912" lon="11.1350766"><ele>127.99999999999999</ele><time>2026-04-26T08:46:57.197Z</time></trkpt><trkpt lat="43.4584373" lon="11.135165"><ele>128.0</ele><time>2026-04-26T08:46:59.211Z</time></trkpt><trkpt lat="43.458485" lon="11.1352757"><ele>126.60000000000001</ele><time>2026-04-26T08:47:01.132Z</time></trkpt><trkpt lat="43.4585345" lon="11.1354075"><ele>125.20000000000002</ele><time>2026-04-26T08:47:03.206Z</time></trkpt><trkpt lat="43.458596" lon="11.1355365"><ele>123.8</ele><time>2026-04-26T08:47:05.201Z</time></trkpt><trkpt lat="43.4586625" lon="11.1356674"><ele>122.4</ele><time>2026-04-26T08:47:07.201Z</time></trkpt><trkpt lat="43.4587399" lon="11.135782"><ele>121.0</ele><time>2026-04-26T08:47:09.201Z</time></trkpt><trkpt lat="43.4588062" lon="11.1358839"><ele>121.0</ele><time>2026-04-26T08:47:11.196Z</time></trkpt><trkpt lat="43.4589066" lon="11.1359885"><ele>121.0</ele><time>2026-04-26T08:47:13.212Z</time></trkpt><trkpt lat="43.4589558" lon="11.1360451"><ele>121.0</ele><time>2026-04-26T08:47:14.204Z</time></trkpt><trkpt lat="43.459025" lon="11.1361486"><ele>121.0</ele><time>2026-04-26T08:47:16.196Z</time></trkpt><trkpt lat="43.4591212" lon="11.1362494"><ele>121.0</ele><time>2026-04-26T08:47:18.206Z</time></trkpt><trkpt lat="43.4592282" lon="11.1363452"><ele>121.0</ele><time>2026-04-26T08:47:20.203Z</time></trkpt><trkpt lat="43.459334" lon="11.1364274"><ele>121.0</ele><time>2026-04-26T08:47:22.206Z</time></trkpt><trkpt lat="43.4594449" lon="11.1364988"><ele>121.0</ele><time>2026-04-26T08:47:24.191Z</time></trkpt><trkpt lat="43.4595541" lon="11.1365495"><ele>121.0</ele><time>2026-04-26T08:47:26.205Z</time></trkpt><trkpt lat="43.4596729" lon="11.1365973"><ele>119.66666666666667</ele><time>2026-04-26T08:47:28.202Z</time></trkpt><trkpt lat="43.4597865" lon="11.1366534"><ele>118.33333333333334</ele><time>2026-04-26T08:47:30.2Z</time></trkpt><trkpt lat="43.4599058" lon="11.1366981"><ele>117.0</ele><time>2026-04-26T08:47:32.208Z</time></trkpt><trkpt lat="43.4599691" lon="11.1367107"><ele>115.66666666666666</ele><time>2026-04-26T08:47:33.187Z</time></trkpt><trkpt lat="43.4600333" lon="11.1367212"><ele>114.33333333333333</ele><time>2026-04-26T08:47:34.207Z</time></trkpt><trkpt lat="43.4600965" lon="11.1367339"><ele>113.0</ele><time>2026-04-26T08:47:35.2Z</time></trkpt><trkpt lat="43.4601599" lon="11.1367426"><ele>113.0</ele><time>2026-04-26T08:47:36.203Z</time></trkpt><trkpt lat="43.4602232" lon="11.1367474"><ele>113.00000000000001</ele><time>2026-04-26T08:47:37.201Z</time></trkpt><trkpt lat="43.4603448" lon="11.1367412"><ele>113.00000000000001</ele><time>2026-04-26T08:47:39.193Z</time></trkpt><trkpt lat="43.4604668" lon="11.1367235"><ele>113.0</ele><time>2026-04-26T08:47:41.244Z</time></trkpt><trkpt lat="43.4605837" lon="11.1367049"><ele>113.0</ele><time>2026-04-26T08:47:43.204Z</time></trkpt><trkpt lat="43.4607017" lon="11.1366746"><ele>112.0</ele><time>2026-04-26T08:47:45.216Z</time></trkpt><trkpt lat="43.46082" lon="11.1366382"><ele>111.00000000000001</ele><time>2026-04-26T08:47:47.251Z</time></trkpt><trkpt lat="43.4609319" lon="11.1366153"><ele>110.00000000000001</ele><time>2026-04-26T08:47:49.2Z</time></trkpt><trkpt lat="43.4610447" lon="11.1365916"><ele>109.0</ele><time>2026-04-26T08:47:51.223Z</time></trkpt><trkpt lat="43.46111" lon="11.1365752"><ele>108.0</ele><time>2026-04-26T08:47:52.257Z</time></trkpt><trkpt lat="43.4612274" lon="11.1365424"><ele>108.0</ele><time>2026-04-26T08:47:54.206Z</time></trkpt><trkpt lat="43.4613424" lon="11.1365281"><ele>108.00000000000001</ele><time>2026-04-26T08:47:56.189Z</time></trkpt><trkpt lat="43.4614613" lon="11.1365267"><ele>108.00000000000001</ele><time>2026-04-26T08:47:58.215Z</time></trkpt><trkpt lat="43.4615246" lon="11.1365313"><ele>108.0</ele><time>2026-04-26T08:47:59.192Z</time></trkpt><trkpt lat="43.4616422" lon="11.1365465"><ele>108.0</ele><time>2026-04-26T08:48:01.197Z</time></trkpt><trkpt lat="43.4617591" lon="11.1365833"><ele>108.0</ele><time>2026-04-26T08:48:03.203Z</time></trkpt><trkpt lat="43.4618716" lon="11.136627"><ele>108.00000000000001</ele><time>2026-04-26T08:48:05.199Z</time></trkpt><trkpt lat="43.4619316" lon="11.1366571"><ele>108.00000000000001</ele><time>2026-04-26T08:48:06.2Z</time></trkpt><trkpt lat="43.4620455" lon="11.1367235"><ele>108.0</ele><time>2026-04-26T08:48:08.206Z</time></trkpt><trkpt lat="43.4621524" lon="11.1368014"><ele>108.0</ele><time>2026-04-26T08:48:10.204Z</time></trkpt><trkpt lat="43.4622541" lon="11.1368943"><ele>112.80000000000001</ele><time>2026-04-26T08:48:12.203Z</time></trkpt><trkpt lat="43.4623516" lon="11.136992"><ele>117.60000000000001</ele><time>2026-04-26T08:48:14.209Z</time></trkpt><trkpt lat="43.462444" lon="11.1370954"><ele>122.39999999999999</ele><time>2026-04-26T08:48:16.227Z</time></trkpt><trkpt lat="43.4624939" lon="11.1371491"><ele>127.19999999999999</ele><time>2026-04-26T08:48:17.248Z</time></trkpt><trkpt lat="43.4625791" lon="11.1372673"><ele>132.0</ele><time>2026-04-26T08:48:19.201Z</time></trkpt><trkpt lat="43.4626675" lon="11.1373836"><ele>131.5</ele><time>2026-04-26T08:48:21.243Z</time></trkpt><trkpt lat="43.4627071" lon="11.1374553"><ele>131.0</ele><time>2026-04-26T08:48:22.214Z</time></trkpt><trkpt lat="43.4627488" lon="11.1375237"><ele>130.5</ele><time>2026-04-26T08:48:23.255Z</time></trkpt><trkpt lat="43.4628261" lon="11.1376478"><ele>130.0</ele><time>2026-04-26T08:48:25.212Z</time></trkpt><trkpt lat="43.4628634" lon="11.1377184"><ele>129.5</ele><time>2026-04-26T08:48:26.225Z</time></trkpt><trkpt lat="43.4629114" lon="11.1378546"><ele>129.0</ele><time>2026-04-26T08:48:28.216Z</time></trkpt><trkpt lat="43.4629695" lon="11.137991"><ele>129.0</ele><time>2026-04-26T08:48:30.215Z</time></trkpt><trkpt lat="43.4630209" lon="11.1381259"><ele>129.0</ele><time>2026-04-26T08:48:32.226Z</time></trkpt><trkpt lat="43.4630727" lon="11.1382675"><ele>129.0</ele><time>2026-04-26T08:48:34.209Z</time></trkpt><trkpt lat="43.4631169" lon="11.1384134"><ele>129.0</ele><time>2026-04-26T08:48:36.252Z</time></trkpt><trkpt lat="43.4631581" lon="11.1385413"><ele>129.0</ele><time>2026-04-26T08:48:38.25Z</time></trkpt><trkpt lat="43.4632016" lon="11.1386842"><ele>126.0</ele><time>2026-04-26T08:48:40.266Z</time></trkpt><trkpt lat="43.4632359" lon="11.1388279"><ele>123.0</ele><time>2026-04-26T08:48:42.209Z</time></trkpt><trkpt lat="43.4632694" lon="11.1389737"><ele>120.0</ele><time>2026-04-26T08:48:44.203Z</time></trkpt><trkpt lat="43.4632952" lon="11.139125"><ele>117.0</ele><time>2026-04-26T08:48:46.2Z</time></trkpt><trkpt lat="43.4633285" lon="11.1392643"><ele>114.0</ele><time>2026-04-26T08:48:48.202Z</time></trkpt><trkpt lat="43.463367" lon="11.139406"><ele>112.80000000000001</ele><time>2026-04-26T08:48:50.207Z</time></trkpt><trkpt lat="43.4634218" lon="11.1395433"><ele>111.60000000000001</ele><time>2026-04-26T08:48:52.209Z</time></trkpt><trkpt lat="43.4634874" lon="11.1396593"><ele>110.4</ele><time>2026-04-26T08:48:54.202Z</time></trkpt><trkpt lat="43.463554" lon="11.1397871"><ele>109.2</ele><time>2026-04-26T08:48:56.2Z</time></trkpt><trkpt lat="43.4636266" lon="11.1399037"><ele>108.0</ele><time>2026-04-26T08:48:58.204Z</time></trkpt><trkpt lat="43.4637093" lon="11.1400064"><ele>107.80000000000001</ele><time>2026-04-26T08:49:00.205Z</time></trkpt><trkpt lat="43.4637995" lon="11.1400967"><ele>107.60000000000001</ele><time>2026-04-26T08:49:02.214Z</time></trkpt><trkpt lat="43.4638904" lon="11.1401775"><ele>107.39999999999999</ele><time>2026-04-26T08:49:04.202Z</time></trkpt><trkpt lat="43.4639843" lon="11.1402544"><ele>107.19999999999999</ele><time>2026-04-26T08:49:06.206Z</time></trkpt><trkpt lat="43.4640763" lon="11.1403341"><ele>107.0</ele><time>2026-04-26T08:49:08.209Z</time></trkpt><trkpt lat="43.4641666" lon="11.1404108"><ele>107.0</ele><time>2026-04-26T08:49:10.209Z</time></trkpt><trkpt lat="43.4642539" lon="11.1404864"><ele>106.99999999999999</ele><time>2026-04-26T08:49:12.207Z</time></trkpt><trkpt lat="43.4643453" lon="11.1405612"><ele>106.99999999999999</ele><time>2026-04-26T08:49:14.205Z</time></trkpt><trkpt lat="43.4644334" lon="11.1406334"><ele>107.0</ele><time>2026-04-26T08:49:16.203Z</time></trkpt><trkpt lat="43.4645214" lon="11.1406932"><ele>107.0</ele><time>2026-04-26T08:49:18.204Z</time></trkpt><trkpt lat="43.4646059" lon="11.1407526"><ele>105.99999999999999</ele><time>2026-04-26T08:49:20.215Z</time></trkpt><trkpt lat="43.4646929" lon="11.1407979"><ele>105.0</ele><time>2026-04-26T08:49:22.205Z</time></trkpt><trkpt lat="43.4647823" lon="11.1408307"><ele>104.0</ele><time>2026-04-26T08:49:24.199Z</time></trkpt><trkpt lat="43.4648724" lon="11.140866"><ele>103.0</ele><time>2026-04-26T08:49:26.206Z</time></trkpt><trkpt lat="43.4649628" lon="11.1409015"><ele>101.99999999999999</ele><time>2026-04-26T08:49:28.209Z</time></trkpt><trkpt lat="43.4650269" lon="11.1409182"><ele>101.0</ele><time>2026-04-26T08:49:30.12Z</time></trkpt><trkpt lat="43.4651185" lon="11.1409359"><ele>101.0</ele><time>2026-04-26T08:49:32.2Z</time></trkpt><trkpt lat="43.4652082" lon="11.1409408"><ele>101.0</ele><time>2026-04-26T08:49:34.199Z</time></trkpt><trkpt lat="43.4653078" lon="11.1409048"><ele>101.0</ele><time>2026-04-26T08:49:36.206Z</time></trkpt><trkpt lat="43.4653937" lon="11.1408448"><ele>101.0</ele><time>2026-04-26T08:49:38.199Z</time></trkpt><trkpt lat="43.4654692" lon="11.1407666"><ele>101.0</ele><time>2026-04-26T08:49:40.196Z</time></trkpt><trkpt lat="43.4655426" lon="11.1406617"><ele>101.0</ele><time>2026-04-26T08:49:42.21Z</time></trkpt><trkpt lat="43.4656162" lon="11.1405447"><ele>101.0</ele><time>2026-04-26T08:49:44.204Z</time></trkpt><trkpt lat="43.465651" lon="11.1404683"><ele>101.0</ele><time>2026-04-26T08:49:45.216Z</time></trkpt><trkpt lat="43.4657153" lon="11.1403276"><ele>101.0</ele><time>2026-04-26T08:49:47.209Z</time></trkpt><trkpt lat="43.4657872" lon="11.1401886"><ele>101.0</ele><time>2026-04-26T08:49:49.203Z</time></trkpt><trkpt lat="43.465859" lon="11.140044"><ele>101.0</ele><time>2026-04-26T08:49:51.208Z</time></trkpt><trkpt lat="43.4659011" lon="11.1399712"><ele>101.0</ele><time>2026-04-26T08:49:52.207Z</time></trkpt><trkpt lat="43.4659672" lon="11.1398371"><ele>101.0</ele><time>2026-04-26T08:49:54.204Z</time></trkpt><trkpt lat="43.4660448" lon="11.1397114"><ele>101.0</ele><time>2026-04-26T08:49:56.214Z</time></trkpt><trkpt lat="43.4661469" lon="11.1396355"><ele>101.0</ele><time>2026-04-26T08:49:58.199Z</time></trkpt><trkpt lat="43.4662504" lon="11.1396135"><ele>100.4</ele><time>2026-04-26T08:50:00.207Z</time></trkpt><trkpt lat="43.4663427" lon="11.1396475"><ele>99.8</ele><time>2026-04-26T08:50:02.202Z</time></trkpt><trkpt lat="43.4664224" lon="11.1397202"><ele>99.2</ele><time>2026-04-26T08:50:04.201Z</time></trkpt><trkpt lat="43.4664797" lon="11.1398164"><ele>98.60000000000001</ele><time>2026-04-26T08:50:06.202Z</time></trkpt><trkpt lat="43.466535" lon="11.1399237"><ele>98.0</ele><time>2026-04-26T08:50:08.208Z</time></trkpt><trkpt lat="43.4665889" lon="11.1400222"><ele>97.99999999999999</ele><time>2026-04-26T08:50:10.198Z</time></trkpt><trkpt lat="43.4666425" lon="11.1401266"><ele>98.0</ele><time>2026-04-26T08:50:12.198Z</time></trkpt><trkpt lat="43.466685" lon="11.1402356"><ele>98.0</ele><time>2026-04-26T08:50:14.203Z</time></trkpt><trkpt lat="43.4667351" lon="11.1403368"><ele>98.0</ele><time>2026-04-26T08:50:16.196Z</time></trkpt><trkpt lat="43.4667826" lon="11.1404404"><ele>97.99999999999999</ele><time>2026-04-26T08:50:18.202Z</time></trkpt><trkpt lat="43.4668347" lon="11.1405354"><ele>98.0</ele><time>2026-04-26T08:50:20.206Z</time></trkpt><trkpt lat="43.4668778" lon="11.1406239"><ele>97.99999999999999</ele><time>2026-04-26T08:50:22.198Z</time></trkpt><trkpt lat="43.466911" lon="11.1407143"><ele>98.0</ele><time>2026-04-26T08:50:25.191Z</time></trkpt><trkpt lat="43.4669674" lon="11.1407845"><ele>98.0</ele><time>2026-04-26T08:52:13.192Z</time></trkpt><trkpt lat="43.4670255" lon="11.1408706"><ele>98.0</ele><time>2026-04-26T08:52:17.187Z</time></trkpt><trkpt lat="43.4670755" lon="11.1409282"><ele>97.99999999999999</ele><time>2026-04-26T08:52:20.204Z</time></trkpt><trkpt lat="43.4671426" lon="11.140949"><ele>98.0</ele><time>2026-04-26T08:52:23.212Z</time></trkpt><trkpt lat="43.4672239" lon="11.1409022"><ele>97.66666666666666</ele><time>2026-04-26T08:52:26.206Z</time></trkpt><trkpt lat="43.4672908" lon="11.1408496"><ele>97.33333333333333</ele><time>2026-04-26T08:52:28.201Z</time></trkpt><trkpt lat="43.4673756" lon="11.1408269"><ele>97.0</ele><time>2026-04-26T08:52:30.207Z</time></trkpt><trkpt lat="43.4674647" lon="11.1408212"><ele>96.66666666666666</ele><time>2026-04-26T08:52:32.197Z</time></trkpt><trkpt lat="43.4675515" lon="11.1408134"><ele>96.33333333333333</ele><time>2026-04-26T08:52:34.19Z</time></trkpt><trkpt lat="43.4676342" lon="11.1408013"><ele>96.0</ele><time>2026-04-26T08:52:36.201Z</time></trkpt><trkpt lat="43.4677132" lon="11.1407977"><ele>96.0</ele><time>2026-04-26T08:52:38.186Z</time></trkpt><trkpt lat="43.4677902" lon="11.1407815"><ele>96.0</ele><time>2026-04-26T08:52:40.19Z</time></trkpt><trkpt lat="43.4678629" lon="11.1407717"><ele>96.0</ele><time>2026-04-26T08:52:42.198Z</time></trkpt><trkpt lat="43.4679344" lon="11.1407697"><ele>96.0</ele><time>2026-04-26T08:52:44.192Z</time></trkpt><trkpt lat="43.468006" lon="11.1407617"><ele>96.0</ele><time>2026-04-26T08:52:46.19Z</time></trkpt><trkpt lat="43.4680851" lon="11.1407555"><ele>96.0</ele><time>2026-04-26T08:52:48.197Z</time></trkpt><trkpt lat="43.4681704" lon="11.1407507"><ele>95.4</ele><time>2026-04-26T08:52:50.232Z</time></trkpt><trkpt lat="43.4682522" lon="11.1407494"><ele>94.8</ele><time>2026-04-26T08:52:52.211Z</time></trkpt><trkpt lat="43.4683443" lon="11.1407395"><ele>94.2</ele><time>2026-04-26T08:52:54.209Z</time></trkpt><trkpt lat="43.4684445" lon="11.1407336"><ele>93.60000000000001</ele><time>2026-04-26T08:52:56.255Z</time></trkpt><trkpt lat="43.4685402" lon="11.1407261"><ele>93.0</ele><time>2026-04-26T08:52:58.207Z</time></trkpt><trkpt lat="43.4686409" lon="11.1407132"><ele>92.80000000000001</ele><time>2026-04-26T08:53:00.258Z</time></trkpt><trkpt lat="43.4687424" lon="11.1406993"><ele>92.6</ele><time>2026-04-26T08:53:02.263Z</time></trkpt><trkpt lat="43.4688415" lon="11.1406892"><ele>92.4</ele><time>2026-04-26T08:53:04.206Z</time></trkpt><trkpt lat="43.4689417" lon="11.1406838"><ele>92.19999999999999</ele><time>2026-04-26T08:53:06.255Z</time></trkpt><trkpt lat="43.4690414" lon="11.1406919"><ele>92.0</ele><time>2026-04-26T08:53:08.205Z</time></trkpt><trkpt lat="43.4691385" lon="11.1407105"><ele>92.6</ele><time>2026-04-26T08:53:10.246Z</time></trkpt><trkpt lat="43.4692274" lon="11.1407457"><ele>93.19999999999999</ele><time>2026-04-26T08:53:12.246Z</time></trkpt><trkpt lat="43.4693131" lon="11.1407887"><ele>93.8</ele><time>2026-04-26T08:53:14.201Z</time></trkpt><trkpt lat="43.4693954" lon="11.1408343"><ele>94.4</ele><time>2026-04-26T08:53:16.21Z</time></trkpt><trkpt lat="43.4694773" lon="11.140881"><ele>95.0</ele><time>2026-04-26T08:53:18.22Z</time></trkpt><trkpt lat="43.4695666" lon="11.1409244"><ele>95.6</ele><time>2026-04-26T08:53:20.25Z</time></trkpt><trkpt lat="43.4696587" lon="11.1409741"><ele>96.2</ele><time>2026-04-26T08:53:22.217Z</time></trkpt><trkpt lat="43.469749" lon="11.141019"><ele>96.80000000000001</ele><time>2026-04-26T08:53:24.196Z</time></trkpt><trkpt lat="43.4698344" lon="11.1410667"><ele>97.4</ele><time>2026-04-26T08:53:26.226Z</time></trkpt><trkpt lat="43.4699138" lon="11.1411096"><ele>98.0</ele><time>2026-04-26T08:53:28.212Z</time></trkpt><trkpt lat="43.4699911" lon="11.1411714"><ele>97.99999999999999</ele><time>2026-04-26T08:53:30.203Z</time></trkpt><trkpt lat="43.4700655" lon="11.1412328"><ele>98.0</ele><time>2026-04-26T08:53:32.203Z</time></trkpt><trkpt lat="43.4701424" lon="11.1412755"><ele>98.0</ele><time>2026-04-26T08:53:34.207Z</time></trkpt><trkpt lat="43.4702135" lon="11.1413143"><ele>98.0</ele><time>2026-04-26T08:53:36.207Z</time></trkpt><trkpt lat="43.4702738" lon="11.1413789"><ele>97.99999999999999</ele><time>2026-04-26T08:53:38.2Z</time></trkpt><trkpt lat="43.4703251" lon="11.1414603"><ele>98.0</ele><time>2026-04-26T08:53:40.228Z</time></trkpt><trkpt lat="43.4703982" lon="11.1415429"><ele>98.99999999999999</ele><time>2026-04-26T08:53:42.21Z</time></trkpt><trkpt lat="43.4704638" lon="11.1416348"><ele>100.0</ele><time>2026-04-26T08:53:44.19Z</time></trkpt><trkpt lat="43.4705163" lon="11.1417376"><ele>101.0</ele><time>2026-04-26T08:53:46.204Z</time></trkpt><trkpt lat="43.4705581" lon="11.1418423"><ele>102.0</ele><time>2026-04-26T08:53:48.203Z</time></trkpt><trkpt lat="43.4705971" lon="11.1419236"><ele>102.99999999999999</ele><time>2026-04-26T08:53:50.202Z</time></trkpt><trkpt lat="43.4706288" lon="11.1420032"><ele>104.0</ele><time>2026-04-26T08:53:52.246Z</time></trkpt><trkpt lat="43.4706547" lon="11.1420835"><ele>103.99999999999999</ele><time>2026-04-26T08:53:54.189Z</time></trkpt><trkpt lat="43.4706796" lon="11.1421991"><ele>104.0</ele><time>2026-04-26T08:53:57.208Z</time></trkpt><trkpt lat="43.4706948" lon="11.1423099"><ele>104.0</ele><time>2026-04-26T08:54:00.189Z</time></trkpt><trkpt lat="43.4707008" lon="11.1424194"><ele>104.0</ele><time>2026-04-26T08:54:03.21Z</time></trkpt><trkpt lat="43.4707173" lon="11.1425352"><ele>103.99999999999999</ele><time>2026-04-26T08:54:06.207Z</time></trkpt><trkpt lat="43.4707392" lon="11.1426537"><ele>104.0</ele><time>2026-04-26T08:54:09.199Z</time></trkpt><trkpt lat="43.4707125" lon="11.1427464"><ele>104.83333333333333</ele><time>2026-04-26T08:54:12.221Z</time></trkpt><trkpt lat="43.4706515" lon="11.1427813"><ele>105.66666666666666</ele><time>2026-04-26T08:54:56.195Z</time></trkpt><trkpt lat="43.4706973" lon="11.1428497"><ele>106.5</ele><time>2026-04-26T09:06:07.193Z</time></trkpt><trkpt lat="43.4707738" lon="11.1428781"><ele>107.33333333333334</ele><time>2026-04-26T09:06:11.184Z</time></trkpt><trkpt lat="43.4708076" lon="11.1429805"><ele>108.16666666666667</ele><time>2026-04-26T09:06:14.192Z</time></trkpt><trkpt lat="43.470819" lon="11.1430815"><ele>109.0</ele><time>2026-04-26T09:06:16.19Z</time></trkpt><trkpt lat="43.470834" lon="11.1432026"><ele>108.50000000000001</ele><time>2026-04-26T09:06:18.197Z</time></trkpt><trkpt lat="43.4708456" lon="11.1433224"><ele>108.0</ele><time>2026-04-26T09:06:20.203Z</time></trkpt><trkpt lat="43.4708495" lon="11.1434436"><ele>107.5</ele><time>2026-04-26T09:06:22.193Z</time></trkpt><trkpt lat="43.4708622" lon="11.1435543"><ele>107.0</ele><time>2026-04-26T09:06:24.197Z</time></trkpt><trkpt lat="43.4709191" lon="11.1436232"><ele>106.50000000000001</ele><time>2026-04-26T09:06:26.198Z</time></trkpt><trkpt lat="43.4710084" lon="11.143565"><ele>106.0</ele><time>2026-04-26T09:06:28.19Z</time></trkpt><trkpt lat="43.4710848" lon="11.1435002"><ele>106.00000000000001</ele><time>2026-04-26T09:06:30.19Z</time></trkpt><trkpt lat="43.4711641" lon="11.143447"><ele>106.0</ele><time>2026-04-26T09:06:32.203Z</time></trkpt><trkpt lat="43.4712417" lon="11.1433849"><ele>106.0</ele><time>2026-04-26T09:06:34.198Z</time></trkpt><trkpt lat="43.4713208" lon="11.1433282"><ele>106.0</ele><time>2026-04-26T09:06:36.208Z</time></trkpt><trkpt lat="43.4713998" lon="11.1432749"><ele>106.00000000000001</ele><time>2026-04-26T09:06:38.198Z</time></trkpt><trkpt lat="43.4714764" lon="11.1432224"><ele>106.0</ele><time>2026-04-26T09:06:40.203Z</time></trkpt><trkpt lat="43.4715571" lon="11.1431756"><ele>106.19999999999999</ele><time>2026-04-26T09:06:42.203Z</time></trkpt><trkpt lat="43.4716373" lon="11.1431231"><ele>106.39999999999999</ele><time>2026-04-26T09:06:44.191Z</time></trkpt><trkpt lat="43.4717264" lon="11.1430718"><ele>106.6</ele><time>2026-04-26T09:06:46.192Z</time></trkpt><trkpt lat="43.4718099" lon="11.1430179"><ele>106.8</ele><time>2026-04-26T09:06:48.188Z</time></trkpt><trkpt lat="43.471896" lon="11.1429805"><ele>107.0</ele><time>2026-04-26T09:06:50.189Z</time></trkpt><trkpt lat="43.4719763" lon="11.1430047"><ele>106.99999999999999</ele><time>2026-04-26T09:06:52.194Z</time></trkpt><trkpt lat="43.4720549" lon="11.1430843"><ele>107.0</ele><time>2026-04-26T09:06:54.196Z</time></trkpt><trkpt lat="43.4721631" lon="11.1431805"><ele>107.0</ele><time>2026-04-26T09:06:56.194Z</time></trkpt><trkpt lat="43.4722204" lon="11.1432368"><ele>107.0</ele><time>2026-04-26T09:06:57.203Z</time></trkpt><trkpt lat="43.4722747" lon="11.1433046"><ele>106.99999999999999</ele><time>2026-04-26T09:06:58.203Z</time></trkpt><trkpt lat="43.4723308" lon="11.1433813"><ele>107.0</ele><time>2026-04-26T09:06:59.195Z</time></trkpt><trkpt lat="43.4723882" lon="11.1434533"><ele>105.66666666666666</ele><time>2026-04-26T09:07:00.25Z</time></trkpt><trkpt lat="43.4724406" lon="11.1435233"><ele>104.33333333333333</ele><time>2026-04-26T09:07:01.202Z</time></trkpt><trkpt lat="43.4725273" lon="11.1435617"><ele>103.0</ele><time>2026-04-26T09:07:02.207Z</time></trkpt><trkpt lat="43.4725906" lon="11.1435759"><ele>101.66666666666666</ele><time>2026-04-26T09:07:03.222Z</time></trkpt><trkpt lat="43.4727021" lon="11.1435577"><ele>100.33333333333333</ele><time>2026-04-26T09:07:05.263Z</time></trkpt><trkpt lat="43.472777" lon="11.1435086"><ele>99.0</ele><time>2026-04-26T09:07:07.187Z</time></trkpt><trkpt lat="43.4728561" lon="11.1435049"><ele>99.0</ele><time>2026-04-26T09:07:10.192Z</time></trkpt><trkpt lat="43.4728797" lon="11.1435906"><ele>99.0</ele><time>2026-04-26T09:07:13.185Z</time></trkpt><trkpt lat="43.4728544" lon="11.1436821"><ele>99.0</ele><time>2026-04-26T09:07:16.188Z</time></trkpt><trkpt lat="43.4728044" lon="11.1437724"><ele>99.0</ele><time>2026-04-26T09:07:19.197Z</time></trkpt><trkpt lat="43.4727524" lon="11.143836"><ele>99.0</ele><time>2026-04-26T09:07:22.195Z</time></trkpt><trkpt lat="43.4726643" lon="11.1438285"><ele>99.0</ele><time>2026-04-26T09:07:25.196Z</time></trkpt><trkpt lat="43.4725962" lon="11.1438652"><ele>99.0</ele><time>2026-04-26T09:07:27.204Z</time></trkpt><trkpt lat="43.4725341" lon="11.1439015"><ele>99.0</ele><time>2026-04-26T09:07:29.194Z</time></trkpt><trkpt lat="43.4724541" lon="11.1438902"><ele>99.0</ele><time>2026-04-26T09:07:32.194Z</time></trkpt><trkpt lat="43.4724298" lon="11.1439736"><ele>99.0</ele><time>2026-04-26T09:09:48.201Z</time></trkpt><trkpt lat="43.4723861" lon="11.1440717"><ele>99.0</ele><time>2026-04-26T09:09:52.201Z</time></trkpt><trkpt lat="43.4723396" lon="11.1441623"><ele>99.0</ele><time>2026-04-26T09:09:55.198Z</time></trkpt><trkpt lat="43.4722896" lon="11.1442622"><ele>99.16666666666667</ele><time>2026-04-26T09:09:58.195Z</time></trkpt><trkpt lat="43.4722653" lon="11.1443501"><ele>99.33333333333334</ele><time>2026-04-26T09:10:01.203Z</time></trkpt><trkpt lat="43.472213" lon="11.1444304"><ele>99.5</ele><time>2026-04-26T09:10:04.202Z</time></trkpt><trkpt lat="43.4721517" lon="11.144512"><ele>99.66666666666667</ele><time>2026-04-26T09:10:07.204Z</time></trkpt><trkpt lat="43.4720854" lon="11.144599"><ele>99.83333333333334</ele><time>2026-04-26T09:10:10.19Z</time></trkpt><trkpt lat="43.4720433" lon="11.1446665"><ele>100.0</ele><time>2026-04-26T09:10:12.2Z</time></trkpt><trkpt lat="43.4719937" lon="11.144732"><ele>100.00000000000001</ele><time>2026-04-26T09:10:14.192Z</time></trkpt><trkpt lat="43.4719494" lon="11.1447948"><ele>100.0</ele><time>2026-04-26T09:10:16.201Z</time></trkpt><trkpt lat="43.4718845" lon="11.144861"><ele>100.0</ele><time>2026-04-26T09:10:19.192Z</time></trkpt><trkpt lat="43.4718161" lon="11.1449254"><ele>100.0</ele><time>2026-04-26T09:10:22.193Z</time></trkpt><trkpt lat="43.4717605" lon="11.1450112"><ele>100.00000000000001</ele><time>2026-04-26T09:10:25.2Z</time></trkpt><trkpt lat="43.4717137" lon="11.1450916"><ele>100.0</ele><time>2026-04-26T09:10:28.187Z</time></trkpt><trkpt lat="43.4716614" lon="11.1451464"><ele>99.85714285714286</ele><time>2026-04-26T09:10:32.185Z</time></trkpt><trkpt lat="43.471601" lon="11.1452192"><ele>99.71428571428572</ele><time>2026-04-26T09:10:36.195Z</time></trkpt><trkpt lat="43.4715446" lon="11.1452727"><ele>99.57142857142858</ele><time>2026-04-26T09:10:39.189Z</time></trkpt><trkpt lat="43.4714948" lon="11.145347"><ele>99.42857142857143</ele><time>2026-04-26T09:10:42.198Z</time></trkpt><trkpt lat="43.4714575" lon="11.1454351"><ele>99.28571428571428</ele><time>2026-04-26T09:10:59.198Z</time></trkpt><trkpt lat="43.4714125" lon="11.1455126"><ele>99.14285714285715</ele><time>2026-04-26T09:11:03.188Z</time></trkpt><trkpt lat="43.4713486" lon="11.1455681"><ele>99.0</ele><time>2026-04-26T09:11:06.205Z</time></trkpt><trkpt lat="43.4712899" lon="11.1456577"><ele>99.5</ele><time>2026-04-26T09:11:09.199Z</time></trkpt><trkpt lat="43.4712277" lon="11.1457513"><ele>100.0</ele><time>2026-04-26T09:11:12.204Z</time></trkpt><trkpt lat="43.4711774" lon="11.1458235"><ele>100.5</ele><time>2026-04-26T09:11:16.204Z</time></trkpt><trkpt lat="43.4711146" lon="11.145886"><ele>101.0</ele><time>2026-04-26T09:11:20.197Z</time></trkpt><trkpt lat="43.4710484" lon="11.1459458"><ele>101.5</ele><time>2026-04-26T09:11:24.197Z</time></trkpt><trkpt lat="43.4710174" lon="11.1460597"><ele>102.0</ele><time>2026-04-26T09:12:39.196Z</time></trkpt><trkpt lat="43.4709582" lon="11.1461093"><ele>102.0</ele><time>2026-04-26T09:12:44.204Z</time></trkpt><trkpt lat="43.4708918" lon="11.1461713"><ele>102.0</ele><time>2026-04-26T09:12:49.189Z</time></trkpt><trkpt lat="43.4708363" lon="11.1462303"><ele>102.0</ele><time>2026-04-26T09:12:52.191Z</time></trkpt><trkpt lat="43.4707918" lon="11.1462984"><ele>102.0</ele><time>2026-04-26T09:12:55.198Z</time></trkpt><trkpt lat="43.4707361" lon="11.1463741"><ele>102.0</ele><time>2026-04-26T09:12:59.19Z</time></trkpt><trkpt lat="43.4707405" lon="11.1464644"><ele>102.0</ele><time>2026-04-26T09:13:02.205Z</time></trkpt><trkpt lat="43.4707424" lon="11.1465659"><ele>102.0</ele><time>2026-04-26T09:13:05.206Z</time></trkpt><trkpt lat="43.4707576" lon="11.1466883"><ele>102.16666666666667</ele><time>2026-04-26T09:13:08.196Z</time></trkpt><trkpt lat="43.4707785" lon="11.1468149"><ele>102.33333333333334</ele><time>2026-04-26T09:13:11.196Z</time></trkpt><trkpt lat="43.4707775" lon="11.1469348"><ele>102.5</ele><time>2026-04-26T09:13:14.211Z</time></trkpt><trkpt lat="43.4707798" lon="11.1470259"><ele>102.66666666666667</ele><time>2026-04-26T09:13:16.199Z</time></trkpt><trkpt lat="43.4707831" lon="11.1471182"><ele>102.83333333333334</ele><time>2026-04-26T09:13:18.206Z</time></trkpt><trkpt lat="43.4707816" lon="11.1472185"><ele>103.0</ele><time>2026-04-26T09:13:20.208Z</time></trkpt><trkpt lat="43.4707785" lon="11.1473164"><ele>102.66666666666667</ele><time>2026-04-26T09:13:22.204Z</time></trkpt><trkpt lat="43.4707724" lon="11.147414"><ele>102.33333333333334</ele><time>2026-04-26T09:13:24.199Z</time></trkpt><trkpt lat="43.47077" lon="11.1475237"><ele>102.0</ele><time>2026-04-26T09:13:26.195Z</time></trkpt><trkpt lat="43.470763" lon="11.1476275"><ele>101.66666666666666</ele><time>2026-04-26T09:13:28.206Z</time></trkpt><trkpt lat="43.4707536" lon="11.1477405"><ele>101.33333333333333</ele><time>2026-04-26T09:13:30.202Z</time></trkpt><trkpt lat="43.47075" lon="11.147849"><ele>101.0</ele><time>2026-04-26T09:13:32.209Z</time></trkpt><trkpt lat="43.4707431" lon="11.147941"><ele>101.0</ele><time>2026-04-26T09:13:34.198Z</time></trkpt><trkpt lat="43.470716" lon="11.1480604"><ele>101.0</ele><time>2026-04-26T09:13:37.201Z</time></trkpt><trkpt lat="43.4706601" lon="11.1481194"><ele>101.0</ele><time>2026-04-26T09:13:39.206Z</time></trkpt><trkpt lat="43.4705996" lon="11.148162"><ele>101.0</ele><time>2026-04-26T09:13:41.195Z</time></trkpt><trkpt lat="43.4705468" lon="11.1482096"><ele>101.0</ele><time>2026-04-26T09:13:43.192Z</time></trkpt><trkpt lat="43.4705005" lon="11.1482822"><ele>100.0</ele><time>2026-04-26T09:13:45.108Z</time></trkpt><trkpt lat="43.470456" lon="11.1483547"><ele>100.0</ele><time>2026-04-26T09:13:47.204Z</time></trkpt></trkseg></trk></gpx>